[[{"header":{"parameterUnit":"m.s-1","parameterCategory":1,"la1":30.6,"la2":29.2853,"lo1":-89.7004,"lo2":-87.6739,"dy":0.0162,"dx":0.0183,"nx":112,"ny":82,"refTime":"2024-07-03T12:00:00:Z","depth":0,"parameterNumber":2,"parameterNumberName":"U-component_of_WINDS"},"data":[0.0,0.0,0.0,0.0,0.0,0.0,0.0,0.0,0.0,0.0,0.0,0.0,0.0,0.0,0.0,0.0,0.0,0.0,0.0,0.0,0.0,0.0,0.0,0.0,0.0,0.0,0.0,0.0,0.0,0.0,0.0,0.0,0.0,0.0,0.0,0.0,0.0,0.0,0.0,0.0,0.0,0.0,0.0,0.0,0.0,0.0,0.0,0.0,0.0,0.0,0.0,0.0,0.0,0.0,0.0,0.0,0.0,0.0,0.0,0.0,0.0,0.0,0.0,0.0,0.0,0.0,0.0,0.0,0.0,0.0,0.0,0.0,0.0,0.0,0.0,0.0,0.0,0.0,0.0,0.0,0.0,0.0,0.0,0.0,0.0,0.0,0.0,0.0,0.0,0.0,-2.5408,-2.5493,-2.5504,-2.5503,-2.5503,-2.5196,-2.4914,-2.4737,0.0,0.0,0.0,0.0,0.0,0.0,0.0,0.0,0.0,0.0,0.0,0.0,0.0,0.0,0.0,0.0,0.0,0.0,0.0,0.0,0.0,0.0,0.0,0.0,0.0,0.0,0.0,0.0,0.0,0.0,0.0,0.0,0.0,0.0,0.0,0.0,0.0,0.0,0.0,0.0,0.0,0.0,0.0,0.0,0.0,0.0,0.0,0.0,0.0,0.0,0.0,0.0,0.0,0.0,0.0,0.0,0.0,0.0,0.0,0.0,0.0,0.0,0.0,0.0,0.0,0.0,0.0,0.0,0.0,0.0,0.0,0.0,0.0,0.0,0.0,0.0,0.0,0.0,0.0,0.0,0.0,0.0,0.0,0.0,0.0,0.0,0.0,0.0,0.0,0.0,0.0,0.0,0.0,0.0,0.0,0.0,0.0,0.0,0.0,0.0,0.0,0.0,0.0,0.0,-2.5353,-2.5488,-2.5504,-2.5503,-2.5503,-2.5196,-2.4815,-2.4407,0.0,0.0,0.0,0.0,0.0,0.0,0.0,0.0,0.0,0.0,0.0,0.0,0.0,0.0,0.0,0.0,0.0,0.0,0.0,0.0,0.0,0.0,0.0,0.0,0.0,0.0,0.0,0.0,0.0,0.0,0.0,0.0,0.0,0.0,0.0,0.0,0.0,0.0,0.0,0.0,0.0,0.0,0.0,0.0,0.0,0.0,0.0,0.0,0.0,0.0,0.0,0.0,0.0,0.0,0.0,0.0,0.0,0.0,0.0,0.0,0.0,0.0,0.0,0.0,0.0,0.0,0.0,0.0,0.0,0.0,0.0,0.0,0.0,0.0,0.0,0.0,0.0,0.0,0.0,0.0,0.0,0.0,0.0,0.0,0.0,0.0,0.0,0.0,0.0,0.0,0.0,0.0,0.0,0.0,0.0,0.0,0.0,0.0,0.0,0.0,0.0,0.0,0.0,-2.5402,-2.5426,-2.5491,-2.5502,-2.5443,-2.5299,-2.5045,-2.469,-2.418,-2.2712,0.0,0.0,0.0,0.0,0.0,0.0,0.0,0.0,0.0,0.0,0.0,0.0,0.0,0.0,0.0,0.0,0.0,0.0,0.0,0.0,0.0,0.0,0.0,0.0,0.0,0.0,0.0,0.0,0.0,0.0,0.0,0.0,0.0,0.0,0.0,0.0,0.0,0.0,0.0,0.0,0.0,0.0,0.0,0.0,0.0,0.0,0.0,0.0,0.0,0.0,0.0,0.0,0.0,0.0,0.0,0.0,0.0,0.0,0.0,0.0,0.0,0.0,0.0,0.0,0.0,0.0,0.0,0.0,0.0,0.0,0.0,0.0,0.0,0.0,0.0,0.0,0.0,0.0,0.0,0.0,0.0,0.0,0.0,0.0,0.0,0.0,0.0,0.0,0.0,0.0,0.0,0.0,0.0,0.0,0.0,0.0,0.0,0.0,0.0,0.0,0.0,0.0,-2.5474,-2.5498,-2.5498,-2.5493,-2.537,-2.512,-2.4921,-2.4542,-2.3922,-2.2062,0.0,0.0,0.0,0.0,0.0,0.0,0.0,0.0,0.0,0.0,0.0,0.0,0.0,0.0,0.0,0.0,0.0,0.0,0.0,0.0,0.0,0.0,0.0,0.0,0.0,0.0,0.0,0.0,0.0,0.0,0.0,0.0,0.0,0.0,0.0,0.0,0.0,0.0,0.0,0.0,0.0,0.0,0.0,0.0,0.0,0.0,0.0,0.0,0.0,0.0,0.0,0.0,0.0,0.0,0.0,0.0,0.0,0.0,0.0,0.0,0.0,0.0,0.0,0.0,0.0,0.0,0.0,0.0,0.0,0.0,0.0,0.0,0.0,0.0,0.0,0.0,0.0,0.0,0.0,0.0,0.0,0.0,0.0,0.0,0.0,0.0,0.0,0.0,0.0,0.0,0.0,0.0,0.0,0.0,0.0,0.0,0.0,0.0,0.0,0.0,0.0,0.0,-2.5496,-2.5498,-2.5498,-2.5439,-2.5319,-2.512,-2.4921,-2.444,-2.3599,-2.1941,0.0,0.0,0.0,0.0,0.0,0.0,0.0,0.0,0.0,0.0,0.0,0.0,0.0,0.0,0.0,0.0,0.0,0.0,0.0,0.0,0.0,0.0,0.0,0.0,0.0,0.0,0.0,0.0,0.0,0.0,0.0,0.0,0.0,0.0,0.0,0.0,0.0,0.0,0.0,0.0,0.0,0.0,0.0,0.0,0.0,0.0,0.0,0.0,0.0,0.0,0.0,0.0,0.0,0.0,0.0,0.0,0.0,0.0,0.0,0.0,0.0,0.0,0.0,0.0,0.0,0.0,0.0,0.0,0.0,0.0,0.0,0.0,0.0,0.0,0.0,0.0,0.0,0.0,0.0,0.0,0.0,0.0,0.0,0.0,0.0,0.0,0.0,0.0,0.0,0.0,0.0,0.0,0.0,0.0,0.0,0.0,0.0,0.0,0.0,0.0,0.0,0.0,-2.553,-2.5496,-2.5495,-2.5328,-2.513,-2.4924,-2.4737,-2.4051,-2.272,0.0,0.0,0.0,0.0,0.0,0.0,0.0,0.0,0.0,0.0,0.0,0.0,0.0,0.0,0.0,0.0,0.0,0.0,0.0,0.0,0.0,0.0,0.0,0.0,0.0,0.0,0.0,0.0,0.0,0.0,0.0,0.0,0.0,0.0,0.0,0.0,0.0,0.0,0.0,0.0,0.0,0.0,0.0,0.0,0.0,0.0,0.0,0.0,0.0,0.0,0.0,0.0,0.0,0.0,0.0,0.0,0.0,0.0,0.0,0.0,0.0,0.0,0.0,0.0,0.0,0.0,0.0,0.0,0.0,0.0,0.0,0.0,0.0,0.0,0.0,0.0,0.0,0.0,0.0,0.0,0.0,0.0,0.0,0.0,0.0,0.0,0.0,0.0,0.0,0.0,0.0,0.0,0.0,0.0,0.0,0.0,0.0,0.0,0.0,0.0,0.0,0.0,-2.558,-2.5547,-2.5505,-2.5498,-2.5298,-2.5055,-2.4823,-2.4416,-2.3591,-2.2193,0.0,0.0,0.0,0.0,0.0,0.0,0.0,0.0,0.0,0.0,0.0,0.0,0.0,0.0,0.0,0.0,0.0,0.0,0.0,0.0,0.0,0.0,0.0,0.0,0.0,0.0,0.0,0.0,0.0,0.0,0.0,0.0,0.0,0.0,0.0,0.0,0.0,0.0,0.0,0.0,0.0,0.0,0.0,0.0,0.0,0.0,0.0,0.0,0.0,0.0,0.0,0.0,0.0,0.0,0.0,0.0,0.0,0.0,0.0,0.0,0.0,0.0,0.0,0.0,0.0,0.0,0.0,0.0,0.0,0.0,0.0,0.0,0.0,0.0,0.0,0.0,0.0,0.0,0.0,0.0,0.0,0.0,0.0,0.0,0.0,0.0,0.0,0.0,0.0,0.0,0.0,0.0,0.0,0.0,0.0,0.0,0.0,0.0,0.0,0.0,0.0,0.0,-2.5576,-2.5583,-2.5498,-2.5498,-2.5368,-2.515,-2.4814,-2.3983,-2.3082,0.0,0.0,0.0,0.0,0.0,0.0,0.0,0.0,0.0,0.0,0.0,0.0,0.0,0.0,0.0,0.0,0.0,0.0,0.0,0.0,0.0,0.0,0.0,0.0,0.0,0.0,0.0,0.0,0.0,0.0,0.0,0.0,0.0,0.0,0.0,0.0,0.0,0.0,0.0,0.0,0.0,0.0,0.0,0.0,0.0,0.0,0.0,0.0,0.0,0.0,0.0,0.0,0.0,0.0,0.0,0.0,0.0,0.0,0.0,0.0,0.0,0.0,0.0,0.0,0.0,0.0,0.0,0.0,0.0,0.0,0.0,0.0,0.0,0.0,0.0,0.0,0.0,0.0,0.0,0.0,0.0,0.0,0.0,0.0,0.0,0.0,0.0,0.0,0.0,0.0,0.0,0.0,0.0,0.0,0.0,0.0,0.0,0.0,0.0,0.0,0.0,0.0,0.0,-2.5447,-2.5521,-2.5483,-2.5428,-2.4591,-2.3989,-2.3893,-2.2908,-2.1777,-2.0566,0.0,0.0,0.0,0.0,0.0,0.0,0.0,0.0,0.0,0.0,0.0,0.0,0.0,0.0,0.0,0.0,0.0,0.0,0.0,0.0,0.0,0.0,0.0,0.0,0.0,0.0,0.0,0.0,0.0,0.0,0.0,0.0,0.0,0.0,0.0,0.0,0.0,0.0,0.0,0.0,0.0,0.0,0.0,0.0,0.0,0.0,0.0,0.0,0.0,0.0,0.0,0.0,0.0,0.0,0.0,0.0,0.0,0.0,0.0,0.0,0.0,0.0,0.0,0.0,0.0,0.0,0.0,0.0,0.0,0.0,0.0,0.0,0.0,0.0,0.0,0.0,0.0,0.0,0.0,0.0,0.0,0.0,0.0,0.0,0.0,0.0,0.0,0.0,0.0,0.0,0.0,0.0,0.0,0.0,0.0,0.0,0.0,0.0,0.0,0.0,0.0,0.0,-2.5343,-2.5503,-2.5472,-2.5413,-2.4329,-2.3594,-2.3506,-2.2206,-2.0981,-2.0025,0.0,0.0,0.0,0.0,0.0,0.0,0.0,0.0,0.0,0.0,0.0,0.0,0.0,0.0,0.0,0.0,0.0,0.0,0.0,0.0,0.0,0.0,0.0,0.0,0.0,0.0,0.0,0.0,0.0,0.0,0.0,0.0,0.0,0.0,0.0,0.0,0.0,0.0,0.0,0.0,0.0,0.0,0.0,0.0,0.0,0.0,0.0,0.0,0.0,0.0,0.0,0.0,0.0,0.0,0.0,0.0,0.0,0.0,0.0,0.0,0.0,0.0,0.0,0.0,0.0,0.0,0.0,0.0,0.0,0.0,0.0,0.0,0.0,0.0,0.0,0.0,0.0,0.0,0.0,0.0,0.0,0.0,0.0,0.0,0.0,0.0,0.0,0.0,0.0,0.0,0.0,0.0,0.0,0.0,0.0,0.0,0.0,0.0,0.0,0.0,0.0,0.0,-2.5264,-2.5488,-2.5477,-2.5396,-2.4351,-2.3588,-2.3396,-2.1714,-2.0501,-2.011,0.0,0.0,0.0,0.0,0.0,0.0,0.0,0.0,0.0,0.0,0.0,0.0,0.0,0.0,0.0,0.0,0.0,0.0,0.0,0.0,0.0,0.0,0.0,0.0,0.0,0.0,0.0,0.0,0.0,0.0,0.0,0.0,0.0,0.0,0.0,0.0,0.0,0.0,0.0,0.0,0.0,0.0,0.0,0.0,0.0,0.0,0.0,0.0,0.0,0.0,0.0,0.0,0.0,0.0,0.0,0.0,0.0,0.0,0.0,0.0,-2.1074,-2.0558,0.0,0.0,0.0,0.0,0.0,0.0,0.0,0.0,0.0,0.0,0.0,0.0,0.0,0.0,0.0,0.0,0.0,0.0,0.0,0.0,0.0,0.0,0.0,0.0,0.0,0.0,0.0,0.0,0.0,0.0,0.0,0.0,0.0,0.0,0.0,0.0,0.0,0.0,0.0,0.0,-2.5203,-2.5391,-2.5406,-2.5331,-2.3698,-2.2593,-2.2555,-2.0746,-1.9515,-1.9271,-1.8841,0.0,0.0,0.0,0.0,0.0,0.0,0.0,0.0,0.0,0.0,0.0,0.0,0.0,0.0,0.0,0.0,0.0,0.0,0.0,0.0,0.0,0.0,0.0,0.0,0.0,0.0,0.0,0.0,0.0,0.0,0.0,0.0,0.0,0.0,0.0,0.0,0.0,0.0,0.0,0.0,0.0,0.0,0.0,0.0,0.0,0.0,0.0,0.0,0.0,0.0,0.0,0.0,0.0,0.0,0.0,0.0,0.0,0.0,0.0,-2.1636,-2.1216,0.0,0.0,0.0,0.0,0.0,0.0,0.0,0.0,0.0,0.0,0.0,0.0,0.0,0.0,0.0,0.0,0.0,0.0,0.0,0.0,0.0,0.0,0.0,0.0,0.0,0.0,0.0,0.0,0.0,0.0,0.0,0.0,0.0,0.0,0.0,0.0,0.0,0.0,0.0,0.0,-2.4934,-2.5088,-2.51,-2.5061,-2.3319,-2.2158,-2.2158,-2.0394,-1.9252,-1.915,-1.8931,0.0,0.0,0.0,0.0,0.0,0.0,0.0,0.0,0.0,0.0,0.0,0.0,0.0,0.0,0.0,0.0,0.0,0.0,0.0,0.0,0.0,0.0,0.0,0.0,0.0,0.0,0.0,0.0,0.0,0.0,0.0,0.0,0.0,0.0,0.0,0.0,0.0,0.0,0.0,0.0,0.0,0.0,0.0,0.0,0.0,0.0,0.0,0.0,0.0,0.0,0.0,0.0,0.0,-2.2537,-2.2564,-2.318,-2.2441,-2.2336,-2.2669,-2.1867,-2.1699,-2.1992,-2.1549,0.0,0.0,0.0,0.0,0.0,0.0,0.0,0.0,0.0,0.0,0.0,0.0,0.0,0.0,0.0,0.0,0.0,0.0,0.0,0.0,0.0,0.0,-1.6827,-1.6841,-1.7673,-1.8379,-1.8136,0.0,0.0,0.0,0.0,0.0,0.0,0.0,0.0,0.0,0.0,0.0,-2.4676,-2.4796,-2.4806,-2.4799,-2.3111,-2.2006,-2.2006,-2.0344,-1.9305,-1.9305,-1.911,-1.8896,0.0,0.0,0.0,0.0,0.0,0.0,0.0,0.0,0.0,0.0,0.0,0.0,0.0,0.0,0.0,0.0,0.0,0.0,0.0,0.0,0.0,0.0,0.0,0.0,0.0,0.0,0.0,0.0,0.0,0.0,0.0,0.0,-2.0508,-2.1957,0.0,0.0,0.0,0.0,0.0,0.0,0.0,0.0,0.0,0.0,0.0,0.0,0.0,-2.3956,-2.3692,-2.3414,-2.3236,-2.3189,-2.3091,-2.31,-2.3189,-2.2793,-2.2668,-2.2747,-2.1942,0.0,-2.1604,-2.0789,0.0,0.0,0.0,0.0,0.0,0.0,0.0,0.0,0.0,0.0,0.0,0.0,0.0,0.0,0.0,0.0,0.0,0.0,0.0,0.0,0.0,0.0,-1.5714,-1.5763,-1.6286,-1.7083,-1.842,-1.9364,-2.0031,-2.0149,-2.0839,-2.1349,0.0,0.0,0.0,0.0,0.0,0.0,-2.4723,-2.4799,-2.4804,-2.4804,-2.3111,-2.2006,-2.2006,-2.0344,-1.9305,-1.9305,-1.911,-1.8984,-1.8949,-1.7857,0.0,0.0,0.0,0.0,0.0,0.0,0.0,0.0,0.0,0.0,0.0,0.0,0.0,0.0,0.0,0.0,0.0,0.0,0.0,0.0,0.0,0.0,0.0,0.0,0.0,0.0,0.0,0.0,0.0,-2.0823,-2.1788,-2.285,-2.3024,-2.3021,0.0,0.0,0.0,0.0,0.0,0.0,0.0,0.0,0.0,-2.4629,-2.4227,-2.3801,-2.3414,-2.3093,-2.284,-2.2678,-2.2678,-2.2678,-2.2686,-2.2527,-2.2356,-2.2079,-2.1513,-2.1102,-2.083,-2.0475,-2.0093,-1.9887,0.0,0.0,0.0,0.0,-2.2937,-2.3656,-2.4192,-2.4657,-2.4781,-2.3479,0.0,0.0,0.0,0.0,0.0,0.0,0.0,-1.4207,-1.3971,-1.4198,-1.4603,-1.4937,-1.5991,-1.7213,-1.8513,-1.9796,-2.0748,-2.0999,-2.1329,-2.1688,-2.1966,-2.2385,0.0,0.0,0.0,-2.3906,-2.4146,-2.4346,-2.4461,-2.4461,-2.291,-2.1888,-2.1888,-2.0304,-1.9305,-1.9305,-1.9221,-1.9126,-1.901,-1.8322,-1.7944,0.0,0.0,0.0,0.0,0.0,0.0,0.0,0.0,0.0,0.0,0.0,0.0,0.0,0.0,0.0,0.0,0.0,0.0,0.0,0.0,0.0,0.0,0.0,0.0,0.0,0.0,0.0,0.0,-2.2439,-2.3011,-2.3737,-2.3759,-2.3837,0.0,0.0,0.0,0.0,0.0,0.0,-2.4495,-2.4639,-2.4614,-2.438,-2.3996,-2.3563,-2.3069,-2.2764,-2.2438,-2.2106,-2.2237,-2.2245,-2.2106,-2.2106,-2.1936,-2.1582,-2.1047,-2.0624,-2.0272,-2.0185,-1.9741,-1.9181,-2.0088,-2.0408,-2.0454,-2.1616,-2.271,-2.3685,-2.3949,-2.4382,-2.4558,-2.2943,-2.1064,-1.8868,-1.593,0.0,0.0,0.0,0.0,-1.1661,-1.1661,-1.2175,-1.2929,-1.3848,-1.5441,-1.7127,-1.8622,-2.0016,-2.1118,-2.1521,-2.1697,-2.1899,-2.2245,-2.2463,0.0,-2.2695,-2.3189,-2.3588,-2.3692,-2.3996,-2.4199,-2.4199,-2.2932,-2.2015,-2.183,-2.0446,-1.9519,-1.9299,-1.9305,-1.9205,-1.901,-1.8752,-1.8469,-1.8217,0.0,0.0,0.0,0.0,0.0,0.0,0.0,0.0,0.0,0.0,0.0,0.0,0.0,0.0,0.0,0.0,0.0,0.0,0.0,0.0,0.0,0.0,0.0,0.0,0.0,0.0,0.0,0.0,0.0,-2.4643,-2.4118,0.0,0.0,0.0,0.0,-2.417,-2.4393,-2.4495,-2.4495,-2.4512,-2.4353,-2.4035,-2.3507,-2.3076,-2.2721,-2.2472,-2.2089,-2.165,-2.2106,-2.2069,-2.165,-2.165,-2.162,-2.1552,-2.0699,-2.0306,-2.028,-1.9874,-1.9715,-1.9666,-1.9735,-1.9794,-1.9927,-2.0693,-2.1568,-2.2474,-2.3137,-2.3786,-2.4038,-2.2251,-1.945,-1.6237,-1.3356,-1.0196,0.0,0.0,-0.8882,-0.8916,-0.8916,-0.9394,-1.0358,-1.2258,-1.4074,-1.612,-1.879,-2.0239,-2.1118,-2.1521,-2.1966,-2.2274,-2.2291,0.0,-2.2407,-2.2652,-2.2996,-2.3346,-2.3671,-2.3996,-2.4199,-2.4199,-2.3446,-2.263,-2.1867,-2.096,-2.0115,-1.9344,-1.9305,-1.9205,-1.901,-1.8752,-1.8469,-1.8217,-1.7893,0.0,0.0,0.0,0.0,0.0,0.0,0.0,0.0,0.0,0.0,0.0,0.0,0.0,0.0,0.0,0.0,0.0,0.0,0.0,0.0,0.0,0.0,0.0,0.0,0.0,0.0,0.0,0.0,-2.47,-2.4346,0.0,-2.4199,-2.4094,-2.4065,-2.4199,-2.4275,-2.4524,-2.5041,-2.4372,-2.416,-2.4566,-2.3475,-2.2814,-2.2695,-2.2136,-2.1764,-2.159,-2.1515,-2.1393,-2.1213,-2.1213,-2.1047,-2.074,-2.0434,-2.0151,-1.9866,-1.9391,-1.8984,-1.8705,-1.9137,-1.9142,-1.8997,-2.02,-2.1237,-2.2119,-2.2573,-2.2538,-2.167,-1.7741,-1.4892,-1.2488,-0.99,-0.6736,-0.4306,-0.5599,-0.6656,-0.7258,-0.6956,-0.7562,-0.8872,-1.1381,-1.3869,-1.6378,-1.8848,-2.0457,-2.1538,-2.1966,-2.218,-2.231,-2.231,-2.231,-2.2321,-2.2426,-2.2874,-2.3236,-2.336,-2.3867,-2.4199,-2.4199,-2.3483,-2.2887,-2.2602,-2.1308,-2.0374,-2.0097,-1.9583,-1.9205,-1.901,-1.8914,-1.8651,-1.8208,-1.7803,-1.7392,0.0,0.0,0.0,0.0,0.0,0.0,0.0,0.0,0.0,0.0,0.0,0.0,0.0,0.0,0.0,0.0,0.0,0.0,0.0,0.0,0.0,0.0,0.0,0.0,0.0,-2.4104,-2.4228,-2.4651,-2.4401,-2.4199,-2.4199,-2.4199,-2.4199,-2.4199,-2.4447,-2.4783,-2.5184,-2.4737,-2.4617,-2.4922,-2.399,-2.3309,-2.2933,-2.2287,-2.1798,-2.1399,-2.1126,-2.0934,-2.0756,-2.0756,-2.0583,-2.0272,-2.0158,-1.9937,-1.9646,-1.893,-1.8419,-1.8168,-1.8611,-1.8598,-1.8403,-1.9346,-2.0392,-2.131,-2.1466,-2.0378,-1.8233,-1.4081,-1.1576,-0.9644,-0.6499,-0.3645,-0.166,-0.2717,-0.3995,-0.5103,-0.4976,-0.6133,-0.8086,-1.0851,-1.3749,-1.6604,-1.9109,-2.0702,-2.1726,-2.2209,-2.231,-2.231,-2.231,-2.231,-2.231,-2.231,-2.2815,-2.3189,-2.3189,-2.3795,-2.4199,-2.4199,-2.3722,-2.3189,-2.2639,-2.1584,-2.0813,-2.0512,-1.9915,-1.9583,-1.964,-1.9288,-1.8926,-1.8589,-1.7874,-1.7551,-1.764,0.0,0.0,0.0,0.0,0.0,0.0,0.0,0.0,0.0,0.0,0.0,0.0,0.0,0.0,0.0,0.0,0.0,0.0,0.0,0.0,0.0,0.0,0.0,-2.4053,-2.4475,-2.4729,-2.4524,-2.4312,-2.4199,-2.4199,-2.4199,-2.4208,-2.4236,-2.4924,-2.5202,-2.4878,-2.5553,-2.5654,-2.5068,-2.4994,-2.448,-2.3401,-2.2917,-2.2124,-2.0999,-2.0999,-2.0723,-2.028,-2.028,-2.028,-2.0246,-1.9874,-1.9682,-1.9603,-1.8574,-1.8138,-1.8128,-1.8122,-1.8164,-1.815,-1.8193,-1.8981,-2.0013,-1.979,-1.7413,-1.41,-1.1707,-0.9896,-0.7847,-0.3508,-0.1116,0.0112,-0.0,-0.1004,-0.2286,-0.2895,-0.5233,-0.8062,-1.0718,-1.3729,-1.6718,-1.9587,-2.0951,-2.1764,-2.2209,-2.2282,-2.2282,-2.2282,-2.2282,-2.2291,-2.2282,-2.2815,0.0,-2.3189,-2.3795,-2.4199,-2.4199,-2.4199,-2.3566,-2.2014,-2.1858,-2.1473,-2.0622,-2.03,-2.0355,-2.0852,-1.9887,-1.9343,-1.9325,-1.8191,-1.8004,-1.8761,0.0,0.0,0.0,0.0,0.0,0.0,0.0,0.0,0.0,0.0,0.0,0.0,0.0,0.0,0.0,0.0,0.0,0.0,0.0,0.0,0.0,-2.4419,-2.4836,-2.4791,-2.4797,-2.4729,-2.4524,-2.4312,-2.4199,-2.4199,-2.4199,-2.4437,-2.5035,-2.4516,-2.4864,-2.6456,-2.5232,-2.4907,-2.5831,-2.5073,-2.4241,-2.3401,-2.2917,-2.2124,-2.0999,-2.0657,-2.0261,-1.9874,-1.9874,-1.9874,-1.9874,-1.9754,-1.9682,-1.9646,-1.8968,-1.8696,-1.8556,-1.7413,-1.7226,-1.7623,-1.7581,-1.8245,-1.8959,-1.7605,-1.585,-1.3652,-1.0409,-0.8358,-0.6569,-0.3228,0.0335,0.2805,0.0616,-0.028,-0.1114,-0.3444,-0.6824,-1.0128,-1.207,-1.4869,-1.7733,-2.011,-2.1403,-2.2143,-2.2274,-2.2032,-2.1794,-2.1794,-2.2069,-2.2172,-2.1832,-2.2609,-2.3189,-2.3189,-2.3795,-2.4199,-2.4199,-2.4199,-2.4015,-2.3575,-2.3006,-2.2456,-2.1986,-2.1329,-2.0849,-2.0544,-2.0447,-2.0229,-1.9891,-2.017,-2.0219,0.0,0.0,0.0,0.0,0.0,0.0,0.0,0.0,0.0,0.0,0.0,0.0,0.0,0.0,0.0,0.0,0.0,0.0,0.0,0.0,0.0,0.0,-2.4513,-2.4946,-2.4864,-2.4741,-2.4593,-2.4392,-2.4275,-2.4327,-2.4667,-2.4547,-2.4668,-2.5154,-2.5045,-2.5345,-2.6233,-2.5371,-2.519,-2.5927,-2.5019,-2.4137,-2.3401,-2.2762,-2.1964,-2.0999,-2.0364,-1.9937,-1.9682,-1.9682,-1.9682,-1.9726,-1.9874,-1.9929,-1.9929,-1.9577,-1.9361,-1.9044,0.0,0.0,0.0,0.0,-1.7524,-1.7666,-1.6584,-1.5037,-1.3027,-1.042,-0.7813,-0.5289,-0.2934,0.0056,0.2522,0.2021,-0.0782,-0.4073,-0.5627,-0.9117,-1.2522,-1.3817,-1.6382,-1.8984,-2.0743,-2.1761,-2.2237,-2.2032,-2.1794,0.0,-2.1134,-2.1438,-2.1713,-2.1628,-2.238,-2.301,-2.3189,-2.3795,-2.4199,-2.4199,-2.4199,-2.4061,-2.3731,-2.3272,0.0,0.0,0.0,-2.1348,-2.0761,-2.1092,0.0,0.0,0.0,0.0,0.0,-2.2061,0.0,0.0,-2.1936,-2.2223,0.0,0.0,0.0,0.0,0.0,0.0,0.0,0.0,0.0,0.0,0.0,0.0,0.0,0.0,0.0,0.0,-2.427,-2.47,-2.4528,-2.4452,-2.4329,-2.4152,-2.4142,-2.4397,-2.5082,-2.4824,-2.4685,-2.4829,-2.5797,-2.6014,-2.519,-2.5784,0.0,0.0,0.0,-2.4255,-2.346,-2.2605,-2.1737,-2.0926,-2.0147,-1.9747,-1.9682,-1.9754,-1.9782,-1.9775,-2.0193,-2.0382,-2.0366,-2.0304,-2.0066,-1.9649,-1.8584,-1.7841,-1.7401,-1.7385,-1.7093,-1.6618,-1.6403,0.0,0.0,-1.1161,-0.8088,-0.4676,-0.2966,-0.1439,0.0167,0.2577,-0.2277,-0.8348,-0.8862,-1.2001,-1.5192,-1.591,-1.8093,-2.0303,-2.1434,-2.1966,-2.2106,-2.1688,-2.1521,-2.1228,-2.0442,-2.069,-2.1118,-2.1491,-2.2137,-2.2752,-2.3156,-2.3795,-2.4199,-2.4199,-2.4199,0.0,-2.3208,-2.3144,-2.2976,-2.2593,-2.2242,-2.1816,-2.1331,-2.1864,-2.1786,-2.1029,-2.1715,-2.2373,-2.2988,-2.3098,-2.3501,-2.4162,-2.2731,-2.2558,0.0,0.0,0.0,0.0,0.0,0.0,0.0,0.0,0.0,0.0,0.0,0.0,0.0,0.0,0.0,-2.4402,-2.4542,-2.4536,-2.4512,-2.4136,-2.384,-2.3795,-2.3795,-2.3747,-2.3651,-2.3569,-2.378,-2.4453,-2.4454,-2.4882,-2.59,-2.5822,-2.5968,-2.6463,-2.5769,-2.4874,-2.3801,-2.2996,-2.1851,-2.0449,-2.0246,0.0,-1.9718,-2.0035,-2.0185,-2.0219,-2.0665,-2.0854,-2.0854,-2.0846,-2.0805,-2.0589,-1.9266,-1.8405,-1.7962,-1.8029,-1.7938,-1.7619,-1.6219,-1.5342,-1.4384,-1.1625,-0.9449,-0.7463,-0.4826,-0.3257,0.0,-0.3907,-0.462,-0.6231,-1.19,-1.5503,-1.7779,-1.8193,-1.9466,-2.0894,-2.194,-2.1928,-2.1726,-2.162,-2.1031,-2.0509,-2.0348,-2.069,-2.1031,-2.1086,-2.1953,-2.2752,-2.3156,-2.3795,-2.4199,-2.4199,-2.4199,-2.4135,-2.3979,-2.3969,-2.3719,-2.3092,-2.2539,-2.2211,-2.209,-2.264,-2.259,-2.1799,-2.3066,-2.3492,-2.2988,-2.3657,-2.4052,-2.419,-2.3878,-2.3943,0.0,0.0,0.0,0.0,0.0,0.0,0.0,0.0,0.0,0.0,0.0,-2.2958,-2.3638,0.0,-2.3732,-2.4386,-2.4428,-2.4293,-2.4117,-2.3871,-2.3692,-2.3692,-2.3544,-2.3543,-2.377,-2.3782,-2.3885,-2.4173,-2.4693,-2.5109,-2.5339,-2.5159,-2.5389,-2.6133,-2.4818,-2.3991,-2.3794,-2.2941,-2.1916,-2.0783,-2.061,-2.0335,-2.0,-2.0219,-2.0518,-2.0903,-2.1364,-2.1657,-2.179,-2.179,-2.2174,-2.2511,-2.0604,-1.9457,-1.8765,-1.8003,-1.7894,-1.7894,-1.6544,-1.5798,-1.5107,-1.2927,-1.1107,-0.9489,-0.7837,-0.6564,-0.6185,-0.8599,-0.9595,-1.1059,-1.5802,-1.7847,-1.8844,-1.9645,-2.0718,-2.1677,-2.22,-2.2115,-2.1832,-2.1368,-2.0951,-2.0524,-2.0062,-2.02,-2.0514,-2.0926,-2.1728,-2.2522,-2.3262,-2.3945,-2.4348,-2.4348,-2.4348,-2.4321,-2.4218,-2.4045,-2.3744,-2.3221,-2.2908,-2.2678,-2.2509,-2.3111,-2.3258,-2.2852,-2.3746,-2.3997,-2.3602,-2.3997,-2.4199,-2.4199,-2.4199,-2.4256,0.0,0.0,0.0,0.0,0.0,0.0,0.0,-2.2722,-2.3142,-2.3142,-2.3372,-2.3692,-2.3946,-2.3786,-2.3714,-2.4045,-2.4045,-2.3937,-2.3723,-2.3588,-2.3522,-2.3522,-2.3268,-2.3349,-2.3942,-2.3995,-2.3928,-2.3763,-2.4936,-2.5308,-2.4441,-2.4596,-2.4983,-2.5592,-2.3941,-2.3285,-2.3783,-2.2791,-2.1992,-2.1357,-2.1159,-2.0831,-2.0508,-2.0907,-2.1327,-2.1728,-2.2339,-2.2851,-2.3254,-2.3137,-2.3605,-2.4145,-2.1908,-2.052,-1.9538,-1.8035,-1.7747,-1.794,-1.6733,-1.6058,-1.546,-1.4011,-1.2474,-1.1056,-1.0505,-0.9708,-0.9557,-1.1842,-1.4098,-1.6436,-1.8993,-1.9507,-1.9663,-2.0899,-2.1791,-2.2369,-2.2302,-2.2245,-2.1945,-2.1158,-2.0926,-2.0632,-1.9846,-1.9747,-2.0077,-2.0862,-2.1507,-2.2289,-2.335,-2.4091,-2.4495,-2.4495,-2.4495,-2.4418,-2.4218,-2.3887,-2.3588,-2.3314,-2.3245,-2.3069,-2.2822,-2.3392,-2.3726,-2.3759,-2.4086,-2.4275,-2.4321,-2.4275,-2.4256,-2.4256,-2.4209,-2.4199,-2.2169,-2.3397,-2.4186,-2.4312,-2.4348,-2.4295,0.0,-2.3775,-2.3608,-2.3608,-2.3437,-2.3268,-2.3291,-2.3268,-2.3369,-2.3692,-2.3522,-2.3392,-2.3662,-2.3198,-2.2822,-2.2822,-2.2772,-2.2704,-2.2562,-2.2737,-2.2877,-2.2859,-2.3638,-2.4086,-2.3972,-2.4939,-2.5516,-2.5609,-2.4921,-2.4427,-2.416,-2.2932,-2.2072,-2.1646,-2.2011,-2.185,-2.1264,-2.3094,-2.3328,-2.2367,-2.3792,-2.4878,-2.5582,-2.5042,-2.4629,-2.4155,-2.2563,-2.1242,-2.0034,-1.8557,-1.8059,-1.7887,-1.6268,-1.5965,-1.5922,-1.3643,-1.2764,-1.2352,-1.1064,-1.0912,-1.1549,-1.3287,-1.4697,-1.6441,-1.9492,-2.0661,-2.1274,-2.2257,-2.2574,-2.2599,-2.2341,-2.1966,-2.1529,-2.1095,-2.0649,-2.0219,-1.9782,-2.0007,-2.0416,-2.0926,-2.1507,-2.2289,-2.335,-2.4091,-2.4495,-2.4495,-2.4495,-2.4418,-2.4218,-2.3887,-2.3692,-2.3649,-2.336,-2.3189,-2.315,-2.3491,-2.3783,-2.3959,-2.4292,-2.4552,-2.4731,-2.4552,-2.447,-2.4461,-2.4284,-2.4199,-2.3325,-2.4382,-2.472,-2.4538,-2.4584,-2.455,-2.4028,-2.3795,-2.364,-2.3446,-2.2946,-2.2686,-2.3109,-2.2847,-2.2762,-2.3314,-2.3291,-2.3165,-2.3126,-2.2873,-2.2634,-2.2482,-2.3039,-2.3206,-2.258,-2.2815,-2.2996,-2.2996,-2.3892,-2.4452,-2.4549,-2.5007,-2.5541,-2.6209,-2.5053,-2.4519,-2.4772,-2.3613,-2.2609,-2.1695,-2.2562,-2.2553,-2.1835,-2.3596,-2.4527,-2.4838,-2.5807,-2.6589,-2.7149,-2.6236,-2.5666,-2.5124,-2.2699,-2.0977,-1.9704,-1.8147,-1.7489,-1.7192,-1.5608,-1.5196,-1.5144,-1.3815,-1.3369,-1.3348,-1.3042,-1.379,-1.5012,-1.6336,-1.7798,-1.9339,-2.0959,-2.1877,-2.2462,-2.2643,-2.2695,-2.2643,-2.2369,-2.2143,-2.1811,-2.1126,-2.0821,-2.0491,-1.9818,-2.0027,-2.0449,-2.0926,-2.1765,-2.2606,-2.339,-2.4091,-2.4495,-2.4495,-2.4393,-2.4284,-2.4218,-2.4065,-2.3917,-2.3714,-2.3744,-2.3759,-2.3678,-2.3994,-2.4256,-2.4468,-2.4595,-2.4716,-2.4804,-2.4716,-2.4607,-2.4495,-2.4418,-2.4312,-2.4384,-2.5067,-2.509,-2.4684,-2.4685,-2.4611,-2.3883,-2.3619,-2.3446,-2.3003,-2.2274,-2.1905,-2.2504,-2.2129,-2.2037,-2.2895,-2.3052,-2.3045,-2.2988,-2.2898,-2.2764,-2.2571,-2.3284,-2.3657,-2.3331,-2.3525,-2.3578,-2.3355,-2.4257,-2.4813,-2.4809,-2.5149,-2.5657,-2.6353,-2.5113,-2.4641,-2.5174,-2.4158,-2.3138,-2.2226,-2.3358,-2.3451,-2.271,-2.4215,-2.5812,-2.7379,-2.7615,-2.8034,-2.8437,-2.7187,-2.6375,-2.5623,-2.2646,-2.0584,-1.9127,-1.7317,-1.6564,-1.629,-1.4919,-1.4521,-1.4528,-1.3987,-1.3909,-1.4174,-1.488,-1.6131,-1.7529,-1.8701,-2.0227,-2.1653,-2.2247,-2.2863,-2.3236,-2.2914,-2.2839,-2.2738,-2.2369,-2.231,-2.2086,-2.1314,-2.1158,-2.0926,-2.0181,-2.039,-2.0773,-2.1118,-2.2006,-2.2809,-2.3303,-2.394,-2.4363,-2.4363,-2.4182,-2.4016,-2.3917,-2.4016,-2.3967,-2.3723,-2.4016,-2.4182,-2.4137,-2.4363,-2.4614,-2.4855,-2.4855,-2.4883,-2.4932,-2.4883,-2.4756,-2.4584,-2.4528,-2.4393,-2.5321,-2.5389,-2.5289,-2.4891,-2.479,-2.4611,-2.3883,-2.3446,-2.3003,-2.2281,-2.1425,-2.0887,-2.1031,-2.0958,-2.1226,-2.2418,-2.2669,-2.2939,-2.3566,-2.3392,-2.3165,-2.3165,-2.3192,-2.3652,-2.473,-2.4834,-2.4531,-2.3747,-2.4441,-2.4723,-2.4351,-2.549,-2.5997,-2.5634,-2.5334,-2.5197,-2.5221,-2.4158,-2.358,-2.3542,-2.4625,-2.4745,-2.4083,-2.549,-2.7415,-2.9564,-2.8996,-2.9099,-2.9531,-2.8008,-2.6619,-2.5149,-2.2476,-2.028,-1.8377,-1.6085,-1.5322,-1.5198,-1.4163,-1.419,-1.4606,-1.4009,-1.4195,-1.4875,-1.5996,-1.7005,-1.8124,-1.9717,-2.1082,-2.2237,-2.2979,-2.3414,-2.3597,-2.3259,-2.3189,-2.3014,-2.2415,-2.231,-2.2172,-2.1697,-2.159,-2.146,-2.1023,-2.1298,-2.156,-2.159,-2.2205,-2.277,-2.3,-2.3605,-2.4016,-2.4016,-2.3844,-2.3588,-2.3268,-2.3522,-2.3714,-2.3692,-2.4016,-2.4284,-2.4478,-2.4486,-2.4657,-2.4998,-2.4989,-2.5088,-2.5283,-2.5088,-2.492,-2.479,-2.4601,-2.4393,-2.4562,-2.4992,-2.5362,-2.4911,-2.4625,-2.4276,-2.3534,-2.2888,-2.2247,-2.1396,-2.0581,-2.0085,-2.0405,-2.044,-2.0823,-2.2057,-2.2504,-2.2873,-2.3323,-2.3268,-2.3189,-2.3189,-2.4334,-2.5062,-2.491,-2.4414,-2.4529,-2.5549,-2.4883,-2.4634,-2.5065,-2.5499,-2.5678,-2.5583,-2.5696,-2.5577,-2.5221,-2.4511,-2.3523,-2.233,-2.3392,-2.4263,-2.509,-2.6762,-2.7919,-2.8671,-2.9183,-2.9278,-2.8981,-2.7442,-2.5589,-2.3431,-2.1007,-1.8753,-1.6644,-1.5052,-1.4548,-1.4622,-1.4021,-1.3909,-1.4149,-1.4329,-1.4829,-1.5481,-1.6608,-1.7841,-1.9175,-2.0639,-2.1936,-2.2946,-2.3414,-2.3774,-2.3946,-2.3619,-2.3369,-2.3069,-2.2652,-2.2426,-2.2172,-2.1688,-2.159,-2.146,-2.1063,-2.1337,-2.1726,-2.2032,-2.2439,-2.2805,-2.3097,-2.3329,-2.3472,-2.3472,-2.3419,-2.3314,-2.3221,-2.3522,-2.3692,-2.3692,-2.4016,-2.4348,-2.4685,-2.47,-2.4855,-2.5194,-2.5203,-2.5224,-2.5293,-2.5224,-2.5061,-2.4804,-2.4731,-2.4397,-2.4645,-2.4972,-2.5269,-2.4898,-2.4488,-2.398,-2.3179,-2.2374,-2.1528,-2.0573,-1.9793,-1.9432,-1.9913,-2.0208,-2.0791,-2.2084,-2.2785,-2.3266,-2.362,-2.3728,-2.3871,-2.4174,-2.5248,-2.5984,-2.6051,-2.5251,-2.5251,-2.6509,-2.5906,-2.5486,-2.5498,-2.58,-2.5839,-2.5592,-2.5586,-2.5342,-2.4844,-2.4547,-2.3923,-2.2978,-2.3935,-2.5069,-2.6411,-2.779,-2.8471,-2.8603,-2.9223,-2.9217,-2.8658,-2.6801,-2.474,-2.2527,-2.01,-1.7787,-1.5778,-1.4813,-1.4404,-1.4328,-1.3931,-1.4091,-1.4498,-1.492,-1.5416,-1.6114,-1.7205,-1.8379,-1.9667,-2.0966,-2.2247,-2.3245,-2.3468,-2.3867,-2.4122,-2.3774,-2.3437,-2.3117,-2.2772,-2.2482,-2.2209,-2.1899,-2.1861,-2.1764,-2.1524,-2.1675,-2.1966,-2.2245,-2.2445,-2.2678,-2.2972,-2.3021,-2.3021,-2.3021,-2.303,-2.2998,-2.2891,-2.3277,-2.3522,-2.3522,-2.3946,-2.4348,-2.4685,-2.476,-2.4923,-2.5183,-2.5264,-2.5293,-2.5293,-2.5293,-2.5126,-2.4804,-2.4684,-2.4298,-2.5351,-2.5149,-2.4946,-2.4765,-2.4309,-2.3692,-2.2774,-2.1883,-2.0946,-1.9816,-1.9178,-1.8979,-1.9519,-2.0229,-2.1166,-2.2419,-2.3386,-2.4109,-2.4476,-2.4685,-2.5078,-2.5852,-2.5834,-2.6376,-2.7895,-2.725,-2.6753,-2.6722,-2.7346,-2.7109,-2.5631,-2.6357,-2.644,-2.5641,-2.5146,-2.4688,-2.4256,-2.4304,-2.4649,-2.5225,-2.6045,-2.694,-2.783,-2.8469,-2.8977,-2.9288,-2.9139,-2.8935,-2.8545,-2.6158,-2.4227,-2.2507,-1.9704,-1.7567,-1.5886,-1.5342,-1.487,-1.4421,-1.4021,-1.4635,-1.5588,-1.5632,-1.6045,-1.6716,-1.7787,-1.8695,-1.9647,-2.0708,-2.2071,-2.3189,-2.3221,-2.3714,-2.4122,-2.3795,-2.3468,-2.3117,-2.2788,-2.2509,-2.231,-2.231,-2.231,-2.231,-2.231,-2.231,-2.231,-2.231,-2.231,-2.2379,-2.2634,-2.2678,-2.2678,-2.2678,-2.2747,-2.2642,-2.2338,-2.2841,-2.3165,-2.3165,-2.3795,-2.4257,-2.4469,-2.466,-2.4846,-2.4998,-2.5183,-2.5293,-2.5293,-2.5293,-2.5126,-2.478,-2.446,-2.4082,-2.3033,-2.3086,-2.3521,-2.3465,-2.3165,-2.2763,-2.2341,-2.1333,-2.0301,-1.9733,-1.9178,-1.9009,-1.9756,-2.0567,-2.1577,-2.2899,-2.3624,-2.4173,-2.4651,-2.4775,-2.4879,-2.5078,-2.612,-2.6917,-2.7186,-2.8095,-2.8614,-2.8393,-2.7475,-2.6768,-2.6473,-2.664,-2.6382,-2.5632,-2.6017,-2.5814,-2.4948,-2.4069,-2.423,-2.5338,-2.562,-2.6051,-2.6599,-2.7911,-2.8242,-2.7787,-2.8342,-2.8252,-2.7543,-2.5657,-2.3879,-2.217,-2.0187,-1.8288,-1.6638,-1.6111,-1.5907,-1.5811,-1.5308,-1.5359,-1.5676,-1.6139,-1.6374,-1.6716,-1.7787,-1.8695,-1.9694,-2.0981,-2.2238,-2.3268,-2.3513,-2.3887,-2.417,-2.4094,-2.3619,-2.3174,-2.3093,-2.266,-2.231,-2.231,-2.231,-2.231,-2.231,-2.231,-2.231,-2.231,-2.231,-2.2321,-2.2379,-2.2407,-2.2407,-2.2407,-2.2424,-2.2377,-2.231,-2.2608,-2.2822,-2.2822,-2.3468,-2.3912,-2.4118,-2.4431,-2.4717,-2.4989,-2.5055,-2.5152,-2.5293,-2.5293,-2.5126,-2.478,-2.446,-2.3952,-2.2606,-2.2523,-2.2852,-2.2975,-2.2557,-2.2073,-2.189,-2.0847,-1.9858,-1.9641,-1.9459,-1.9567,-2.0415,-2.1453,-2.2489,-2.346,-2.4111,-2.4587,-2.4892,-2.5024,-2.5232,-2.5599,-2.6657,-2.7422,-2.7546,-2.8689,-2.9289,-2.9007,-2.7999,-2.7224,-2.681,-2.659,-2.6215,-2.5609,-2.6006,-2.5998,-2.5569,-2.4598,-2.4702,-2.5888,-2.6327,-2.6757,-2.7145,-2.8191,-2.832,-2.7736,-2.804,-2.7842,-2.7166,-2.5301,-2.3605,-2.2012,-2.0332,-1.8566,-1.6959,-1.6716,-1.6487,-1.6341,-1.6096,-1.6002,-1.6051,-1.638,-1.6674,-1.6993,-1.786,-1.8882,-1.994,-2.0982,-2.222,-2.3236,-2.3414,-2.3846,-2.4199,-2.4199,-2.3692,-2.3189,-2.3189,-2.2738,-2.231,-2.231,-2.231,-2.231,-2.231,-2.231,-2.231,-2.231,-2.231,-2.231,-2.231,-2.231,-2.231,-2.231,-2.231,-2.231,-2.231,-2.2537,-2.2695,-2.2695,-2.3189,-2.3604,-2.3857,-2.4137,-2.4477,-2.4894,-2.4974,-2.5055,-2.5172,-2.5172,-2.5003,-2.4654,-2.4162,-2.3687,-2.2826,-2.2419,-2.2364,-2.2684,-2.214,-2.1513,-2.1507,-2.0605,-1.9768,-1.9783,-1.9993,-2.0447,-2.1307,-2.2522,-2.359,-2.4174,-2.4826,-2.5322,-2.5457,-2.5693,-2.6056,-2.6633,-2.7258,-2.7774,-2.8051,-2.869,-2.8996,-2.8709,-2.8315,-2.7743,-2.6996,-2.656,-2.6117,-2.5617,-2.5527,-2.5573,-2.5787,-2.5193,-2.5397,-2.6373,-2.7365,-2.8005,-2.8352,-2.8785,-2.8773,-2.8385,-2.8056,-2.7657,-2.7144,-2.515,-2.3588,-2.2315,-2.0633,-1.8914,-1.7416,-1.7304,-1.6926,-1.6532,-1.6523,-1.6515,-1.6515,-1.6515,-1.6873,-1.7388,-1.794,-1.9082,-2.0315,-2.0838,-2.2071,-2.3189,-2.3189,-2.3692,-2.4199,-2.4142,-2.3671,-2.3189,-2.3141,-2.2678,-2.231,-2.231,-2.231,-2.231,-2.231,-2.231,-2.231,-2.231,-2.231,-2.231,-2.231,-2.231,-2.231,-2.231,-2.231,-2.231,-2.231,-2.2519,-2.2634,-2.2634,-2.2947,-2.3259,-2.3566,-2.3828,-2.4191,-2.4678,-2.4858,-2.4949,-2.4965,-2.4965,-2.4813,-2.4486,-2.3806,-2.3387,-2.1197,-2.069,-2.0768,-2.1423,-2.1359,-2.119,-2.1503,-2.1084,-2.0629,-2.0724,-2.0918,-2.1337,-2.2217,-2.3209,-2.4275,-2.5454,-2.5948,-2.6477,-2.7376,-2.7579,-2.7404,-2.6774,-2.7431,-2.7536,-2.6509,-2.7128,-2.7418,-2.7028,-2.6631,-2.6794,-2.766,-2.7346,-2.6642,-2.5625,-2.5154,-2.4888,-2.4761,-2.4471,-2.4782,-2.5701,-2.6799,-2.7519,-2.794,-2.865,-2.8773,-2.8385,-2.8056,-2.7657,-2.7184,-2.5644,-2.4539,-2.369,-2.2027,-2.0573,-1.9368,-1.8367,-1.77,-1.7146,-1.6673,-1.6515,-1.6515,-1.6515,-1.6873,-1.7388,-1.794,-1.9082,-2.0315,-2.0838,-2.2071,-2.3189,-2.3189,-2.3692,-2.4122,-2.3846,-2.35,-2.3117,-2.2848,-2.2527,-2.231,-2.231,-2.231,-2.231,-2.231,-2.231,-2.231,-2.231,-2.231,-2.231,-2.231,-2.231,-2.231,-2.231,-2.231,-2.231,-2.231,-2.2341,-2.2369,-2.2369,-2.2625,-2.2814,-2.2864,-2.345,-2.3866,-2.4128,-2.4437,-2.4666,-2.4828,-2.4828,-2.4721,-2.4486,-2.3806,-2.3387,-2.1355,-2.0595,-2.0379,-2.1126,-2.0981,-2.0863,-2.1458,-2.1235,-2.099,-2.1267,-2.1678,-2.2163,-2.2785,-2.3746,-2.4631,-2.5275,-2.5695,-2.6274,-2.7236,-2.7461,-2.7498,-2.7439,-2.8168,-2.8144,-2.6766,-2.7374,-2.7526,-2.6664,-2.6222,-2.6202,-2.6641,-2.6137,-2.5763,-2.5609,-2.4969,-2.4671,-2.4761,-2.4663,-2.4995,-2.5779,-2.6883,-2.7552,-2.7824,-2.8778,-2.8911,-2.8385,-2.8056,-2.7657,-2.7192,-2.5778,-2.4792,-2.4017,-2.2041,-2.0771,-1.9832,-1.8346,-1.7614,-1.7294,-1.6716,-1.6515,-1.6515,-1.6515,-1.7034,-1.7747,-1.802,-1.928,-2.0676,-2.0918,-2.2071,-2.3189,-2.3189,-2.3692,-2.4122,-2.3774,-2.3314,-2.2856,-2.2545,-2.2379,-2.231,-2.231,-2.231,-2.231,-2.231,-2.231,-2.231,-2.231,-2.231,-2.231,-2.231,-2.231,-2.231,-2.231,-2.231,-2.231,-2.231,-2.231,-2.231,-2.231,-2.2426,-2.2555,-2.2695,-2.3021,-2.3361,-2.3737,-2.3912,-2.41,-2.4383,-2.4383,-2.4361,-2.4321,-2.3846,-2.3459,-2.19,-2.1011,-2.0533,-2.1157,-2.0894,-2.0712,-2.1577,-2.1507,-2.1376,-2.1744,-2.2318,-2.286,-2.3293,-2.4146,-2.4875,-2.5097,-2.5647,-2.6364,-2.723,-2.763,-2.7972,-2.8345,-2.8937,-2.8689,-2.7093,-2.756,-2.745,-2.6176,-2.5737,-2.5479,-2.5394,-2.5028,-2.5,-2.5355,-2.4788,-2.4573,-2.4772,-2.4674,-2.491,-2.5528,-2.6785,-2.7463,-2.7656,-2.8792,-2.9056,-2.8587,-2.8102,-2.7716,-2.7308,-2.5814,-2.4886,-2.418,-2.1822,-2.0543,-1.9807,-1.8047,-1.7306,-1.7131,-1.6672,-1.6515,-1.6515,-1.6515,-1.7229,-1.8099,-1.8099,-1.9476,-2.0999,-2.0999,-2.2071,-2.3189,-2.3189,-2.364,-2.3996,-2.3588,-2.303,-2.2563,-2.2349,-2.231,-2.231,-2.231,-2.231,-2.231,-2.231,-2.231,-2.231,-2.231,-2.2349,-2.2388,-2.2388,-2.2388,-2.2388,-2.2388,-2.2321,-2.231,-2.231,-2.231,-2.231,-2.231,-2.231,-2.2379,-2.2599,-2.2678,-2.2895,-2.3329,-2.3404,-2.356,-2.3832,-2.3832,-2.3916,-2.4084,-2.3744,-2.3491,-2.2049,-2.1314,-2.1052,-2.1248,-2.1041,-2.1033,-2.2004,-2.2217,-2.226,-2.2547,-2.2889,-2.3293,-2.3823,-2.4409,-2.5106,-2.6009,-2.7116,-2.817,-2.9035,-2.9962,-3.0228,-2.9382,-2.9347,-2.8531,-2.6328,-2.6182,-2.5726,-2.4504,-2.4105,-2.4239,-2.5012,-2.5604,-2.5536,-2.4633,-2.4548,-2.4326,-2.4002,-2.3593,-2.3537,-2.3927,-2.5798,-2.6794,-2.7037,-2.8396,-2.9147,-2.9261,-2.8298,-2.7869,-2.7698,-2.5933,-2.5174,-2.4839,-2.2004,-2.056,-1.9862,-1.8074,-1.7043,-1.6584,-1.6534,-1.6515,-1.6515,-1.6515,-1.7229,-1.8099,-1.8099,-1.9476,-2.0999,-2.0999,-2.2071,-2.3189,-2.3189,-2.3468,-2.3588,-2.2939,-2.2545,-2.233,-2.231,-2.231,-2.231,-2.231,-2.231,-2.231,-2.231,-2.231,-2.231,-2.231,-2.25,-2.2652,-2.2652,-2.2652,-2.2652,-2.2652,-2.2445,-2.231,-2.231,-2.231,-2.231,-2.231,-2.231,-2.2302,-2.2358,-2.2555,-2.2712,-2.2771,-2.3076,-2.325,-2.3273,-2.3273,-2.3437,-2.3744,-2.3392,-2.3392,-2.3387,-2.2571,-2.1907,-2.2,-2.1781,-2.1651,-2.2186,-2.231,-2.2388,-2.2626,-2.2972,-2.337,-2.3911,-2.4442,-2.4955,-2.5444,-2.6061,-2.6983,-2.8418,-2.8965,-2.9437,-3.0047,-3.0085,-2.9254,-2.7165,-2.6848,-2.6052,-2.432,-2.4074,-2.3981,-2.3935,-2.4467,-2.4497,-2.3863,-2.3833,-2.3716,-2.3472,-2.3285,-2.353,-2.4211,-2.5577,-2.6459,-2.6935,-2.8119,-2.8831,-2.9115,-2.8273,-2.7641,-2.7106,-2.5316,-2.4348,-2.3655,-2.0896,-1.9676,-1.9265,-1.7519,-1.6716,-1.6515,-1.6515,-1.6515,-1.6515,-1.6515,-1.7229,-1.8171,-1.8447,-1.9675,-2.1055,-2.1275,-2.2254,-2.3189,-2.3189,-2.3291,-2.3268,-2.2822,-2.2509,-2.231,-2.231,-2.231,-2.231,-2.231,-2.231,-2.231,-2.231,-2.231,-2.2341,-2.2527,-2.2634,-2.2763,-2.2972,-2.2996,-2.2914,-2.2721,-2.2463,-2.231,-2.231,-2.2032,-2.2003,-2.2274,-2.2032,-2.2003,-2.2282,-2.2407,-2.2463,-2.2463,-2.2313,-2.2468,-2.2889,-2.2669,-2.2829,-2.3392,-2.3468,-2.3459,-2.4237,-2.3465,-2.2665,-2.2455,-2.2186,-2.206,-2.2245,-2.231,-2.2407,-2.2755,-2.3045,-2.3406,-2.4109,-2.4551,-2.4855,-2.5053,-2.5697,-2.6614,-2.7889,-2.8509,-2.9271,-3.0432,-3.0529,-2.9738,-2.7791,-2.6924,-2.5836,-2.4311,-2.4122,-2.3795,-2.3221,-2.3658,-2.3741,-2.3422,-2.3393,-2.3429,-2.3519,-2.3313,-2.3651,-2.4521,-2.5464,-2.6174,-2.6662,-2.7545,-2.8119,-2.8353,-2.7798,-2.7251,-2.6646,-2.5117,-2.4075,-2.3139,-2.0465,-1.9287,-1.8886,-1.7164,-1.6515,-1.6515,-1.6515,-1.6515,-1.6515,-1.6515,-1.7229,-1.8196,-1.8808,-1.9905,-2.1086,-2.1499,-2.2298,-2.3045,-2.3045,-2.3045,-2.2972,-2.2652,-2.2445,-2.231,-2.231,-2.231,-2.231,-2.231,-2.231,-2.231,-2.231,-2.231,-2.2379,-2.2652,-2.2788,-2.2972,-2.3291,-2.3346,-2.3221,-2.2889,-2.2475,-2.2203,-2.2098,-2.1667,-2.1568,-2.1878,-2.1726,-2.1756,-2.2069,-2.2245,-2.2237,-2.2106,-2.1899,-2.1994,-2.2369,-2.2222,-2.2485,-2.3069,-2.3401,-2.357,-2.4175,-2.3705,-2.3275,-2.2413,-2.2099,-2.206,-2.2245,-2.231,-2.2462,-2.3063,-2.3189,-2.3538,-2.4598,-2.4804,-2.4906,-2.5243,-2.6802,-2.7979,-2.8007,-2.9486,-3.0565,-3.0506,-3.0498,-2.9738,-2.7791,-2.574,-2.4437,-2.4218,-2.3887,-2.3566,-2.3221,-2.3658,-2.3741,-2.3422,-2.3393,-2.3687,-2.4273,-2.3554,-2.3651,-2.4504,-2.5316,-2.58,-2.6025,-2.6643,-2.6916,-2.6916,-2.6779,-2.671,-2.6625,-2.5601,-2.4788,-2.392,-2.1182,-1.9683,-1.8886,-1.7164,-1.6515,-1.6515,-1.6515,-1.6515,-1.6515,-1.6515,-1.7229,-1.8267,-1.9111,-2.0164,-2.1086,-2.1499,-2.2122,-2.2721,-2.2721,-2.2721,-2.2643,-2.2369,-2.231,-2.231,-2.231,-2.231,-2.231,-2.231,-2.231,-2.231,-2.231,-2.231,-2.2379,-2.2652,-2.2972,-2.3323,-2.364,-2.3692,-2.3575,-2.3221,-2.2548,-2.1972,-2.1642,-2.1244,-2.0999,-2.0999,-2.1368,-2.159,-2.162,-2.204,-2.2069,-2.162,-2.2069,-2.2069,-2.1612,-2.2069,-2.2445,-2.2712,-2.3045,-2.3672,-2.4822,-2.4382,-2.3899,-2.3249,-2.295,-2.2779,-2.2617,-2.2755,-2.3023,-2.3455,-2.3544,-2.3806,-2.4648,-2.4804,-2.5045,-2.5783,-2.6551,-2.7412,-2.8473,-2.9168,-2.9795,-3.0431,-2.9458,-2.8136,-2.666,-2.5412,-2.4559,-2.4228,-2.3896,-2.3544,-2.3221,-2.3117,-2.296,-2.2657,-2.3139,-2.3335,-2.3223,-2.3193,-2.3525,-2.4164,-2.4659,-2.52,-2.5811,-2.6553,-2.6696,-2.6407,-2.7183,-2.6794,-2.5555,-2.4814,-2.3609,-2.2022,-2.0138,-1.8762,-1.7716,-1.6392,-1.5864,-1.5864,-1.5864,-1.5864,-1.599,-1.6769,-1.751,-1.8345,-1.9579,-2.0438,-2.1197,-2.2085,-2.253,-2.2695,-2.2695,-2.2695,-2.2634,-2.236,-2.231,-2.231,-2.231,-2.231,-2.231,-2.231,-2.231,-2.231,-2.231,-2.231,-2.2453,-2.2956,-2.3117,-2.3392,-2.3967,-2.3846,-2.3566,-2.3245,-2.2293,-2.1657,-2.1612,-2.0943,-2.0657,-2.0967,-2.1118,-2.1306,-2.159,-2.204,-2.2245,-2.2069,-2.1899,-2.1899,-2.2077,-2.1899,-2.2231,-2.3045,-2.3392,-2.3966,-2.492,-2.4542,-2.409,-2.3683,-2.3383,-2.315,-2.2947,-2.3106,-2.3383,-2.3662,-2.375,-2.3985,-2.4588,-2.4746,-2.4993,-2.5583,-2.639,-2.7282,-2.8272,-2.9001,-2.9567,-2.9931,-2.8392,-2.695,-2.608,-2.5192,-2.4552,-2.4228,-2.3896,-2.3544,-2.3221,-2.2864,-2.2581,-2.231,-2.275,-2.2886,-2.2695,-2.3021,-2.3472,-2.4007,-2.4413,-2.4839,-2.526,-2.5841,-2.5772,-2.5235,-2.6143,-2.5715,0.0,-2.3938,-2.2694,-2.0933,-1.9605,-1.8206,-1.6828,-1.5928,-1.5588,-1.5588,-1.5588,-1.589,-1.6367,-1.705,-1.8018,-1.9119,-2.034,-2.1078,-2.1637,-2.2339,-2.2537,-2.2537,-2.2537,-2.2537,-2.25,-2.2349,-2.231,-2.231,-2.231,-2.231,-2.231,-2.231,-2.231,-2.231,-2.231,-2.231,-2.2508,-2.3102,-2.3189,-2.3446,-2.4113,-2.3917,-2.3566,-2.3245,-2.2337,-2.1686,-2.1612,-2.0674,-2.0254,-2.0723,-2.0894,-2.1181,-2.1582,-2.204,-2.2217,-2.204,-2.1928,-2.1928,-2.204,-2.2022,-2.2406,-2.3221,-2.3535,-2.4042,0.0,-2.4237,-2.3948,-2.3759,-2.3468,-2.3245,-2.3245,-2.3392,0.0,-2.3717,-2.3886,-2.4118,-2.4442,-2.4654,-2.4794,-2.485,-2.6332,-2.7508,-2.754,-2.8865,-2.9606,-2.8994,-2.7371,-2.6192,-2.5933,-2.5063,-2.4428,-2.4218,-2.3896,-2.3544,-2.3221,-2.2864,-2.2581,-2.231,-2.231,-2.2426,-2.2678,-2.3021,-2.345,-2.3949,-2.4503,-2.4654,-2.4487,-2.4711,-2.4381,-2.3694,-2.4173,-2.3901,-2.3148,-2.3075,-2.2072,-2.0467,-1.9419,-1.7852,-1.6213,-1.5664,-1.5493,-1.5537,-1.5582,-1.6311,-1.7258,-1.7422,-1.8726,-2.0415,-2.1336,-2.1936,-2.231,-2.231,-2.231,-2.231,-2.231,-2.231,-2.231,-2.231,-2.231,-2.231,-2.231,-2.231,-2.231,-2.231,-2.231,-2.231,-2.231,-2.231,-2.2508,-2.3102,-2.3189,-2.3446,-2.4113,-2.3917,-2.3566,-2.3268,-2.2539,-2.1963,-2.1663,-2.0483,-1.9937,-2.0314,-2.0789,-2.1213,-2.1582,-2.204,-2.2098,-2.1658,-2.2077,-2.2089,-2.1663,-2.2396,-2.2914,-2.3236,-2.3566,-2.402,-2.4284,0.0,-2.3948,-2.3759,-2.364,-2.3566,0.0,-2.3819,-2.4048,-2.4094,-2.4124,-2.421,-2.4461,-2.4536,-2.4774,-2.5392,-2.6484,-2.722,-2.7082,-2.7702,-2.7928,-2.7263,-2.6663,-2.5973,-2.5158,-2.4735,-2.4428,-2.4218,-2.3896,-2.3544,-2.3221,-2.2864,-2.2581,-2.231,-2.231,-2.233,-2.2379,-2.2924,-2.3273,-2.3401,-2.404,-2.4321,-2.4284,-2.469,-2.432,-2.3371,-2.4454,-2.413,-2.2793,-2.2571,-2.1258,-1.9289,-1.8229,-1.6671,-1.5045,-1.4457,-1.4509,-1.4966,-1.5363,-1.6015,-1.688,-1.8534,-1.9831,-2.0894,-2.1452,-2.1936,-2.231,-2.231,-2.231,-2.231,-2.231,-2.231,-2.231,-2.231,-2.231,-2.231,-2.231,-2.231,-2.231,-2.231,-2.231,-2.231,-2.231,-2.231,-2.2508,-2.3102,-2.3189,-2.3446,-2.4113,-2.3917,-2.3671,-2.3588,-2.2694,-2.2068,-2.1992,-2.1204,-2.0731,-2.0829,-2.1244,-2.1491,-2.159,-2.204,-2.2245,-2.2143,-2.2237,-2.2343,-2.245,-2.2864,-2.3236,-2.3588,-2.3926,-2.422,-2.4199,-2.4039,-2.3876,-2.3928,-2.3871,-2.3855,-2.3908,-2.422,-2.4418,-2.4247,-2.4266,-2.4348,-2.4366,-2.4436,-2.4731,-2.544,-2.6182,-2.6774,-2.7125,-2.7157,-2.7004,-2.6639,-2.6018,-2.5399,-2.4842,-2.4536,-2.4321,-2.4218,-2.4025,-2.3786,-2.3446,-2.3268,-2.294,-2.2509,-2.2482,-2.2426,-2.231,-2.2764,-2.3045,-2.3221,-2.3833,-2.4058,-2.3976,-2.4338,-2.3822,-2.2729,-2.3417,-2.2805,-2.1229,-2.0803,-1.9333,-1.7274,-1.641,-1.5143,-1.3831,-1.3784,-1.4174,-1.4835,-1.5622,-1.678,-1.8145,-1.971,-2.0699,-2.1376,-2.1802,-2.2106,-2.231,-2.231,-2.231,-2.231,-2.231,-2.231,-2.231,-2.231,-2.231,-2.231,-2.231,-2.231,-2.231,-2.231,-2.231,-2.231,-2.231,-2.231,-2.2462,-2.2898,-2.2972,-2.3212,-2.3887,-2.3671,-2.3522,-2.3692,-2.3043,-2.2591,-2.2591,-2.2237,-2.1881,-2.1532,-2.1719,-2.1894,-2.2102,-2.2347,-2.2426,-2.231,-2.231,-2.236,-2.2527,-2.2989,-2.3291,-2.3468,-2.3967,-2.4256,-2.4199,-2.3996,-2.3837,-2.4122,-2.4145,-2.41,-2.419,0.0,0.0,0.0,0.0,-2.4401,-2.4228,-2.4348,-2.4623,-2.5169,-2.5571,-2.6155,-2.7157,-2.6759,-2.6359,-2.6359,-2.5434,-2.479,-2.476,-2.4418,-2.4199,-2.4199,-2.4199,-2.4045,-2.3723,-2.3692,-2.3423,-2.2797,-2.2721,-2.2599,-2.2369,-2.2581,-2.2839,-2.3117,-2.3648,-2.3778,-2.364,-2.3749,-2.3181,-2.2088,-2.1958,-2.0957,-1.9381,-1.8559,-1.6915,-1.4887,-1.4293,-1.3434,-1.2556,-1.3323,-1.4095,-1.4994,-1.6329,-1.8081,-1.9861,-2.0715,-2.1275,-2.1688,-2.2212,-2.2321,-2.231,-2.2341,-2.2321,-2.231,-2.231,-2.2245,-2.2209,-2.2274,-2.2245,-2.2209,-2.2274,-2.231,-2.231,-2.231,-2.231,-2.231,-2.231,-2.231,-2.2379,-2.2652,-2.2695,-2.2914,-2.3535,-2.3414,-2.3392,-2.3671,-2.3446,-2.3268,-2.3268,-2.3221,-2.2954,-2.238,-2.2308,-2.2398,-2.2704,-2.2704,-2.2581,-2.231,-2.231,-2.233,-2.2369,-2.2933,-2.3221,-2.3291,-2.3867,-2.4122,-2.4199,-2.417,-2.4151,-2.4199,-2.4312,-2.4373,-2.4238,-2.4375,0.0,0.0,-2.4228,-2.4247,-2.4218,-2.4228,-2.4321,-2.4603,-2.4826,-2.531,-2.6272,-2.5735,-2.5256,-2.5256,-2.4976,-2.4731,-2.4568,-2.433,-2.4199,-2.4199,-2.4199,-2.4045,-2.3723,-2.3692,-2.3513,-2.315,-2.2839,-2.2669,-2.2634,-2.2678,-2.2721,-2.2772,-2.3147,-2.3305,-2.3268,-2.3019,-2.2617,-2.206,-2.1305,-2.0157,-1.8641,-1.7057,-1.505,-1.2876,-1.2349,-1.1729,-1.1243,-1.2503,-1.3964,-1.568,-1.7792,-1.9251,-2.0272,-2.0821,-2.1275,-2.1723,-2.2413,-2.2482,-2.2349,-2.2573,-2.249,-2.231,-2.231,-2.2003,-2.1794,-2.2209,-2.2003,-2.1832,-2.2209,-2.231,-2.231,-2.231,-2.231,-2.231,-2.231,-2.231,-2.2379,-2.2652,-2.2695,-2.2839,-2.3221,-2.3468,-2.364,-2.3692,-2.364,-2.3619,-2.3619,-2.336,-2.3268,-2.345,-2.318,-2.2956,-2.2781,-2.2747,-2.2581,-2.231,-2.231,-2.2398,-2.2634,-2.303,-2.3346,-2.3619,-2.3723,-2.3774,-2.408,-2.4275,-2.4357,-2.4357,-2.4502,-2.4639,-2.4561,-2.4601,-2.4617,-2.4401,-2.4275,-2.4199,-2.4199,-2.4284,-2.4452,-2.4737,-2.5148,-2.5471,-2.5542,-2.5171,-2.4891,-2.4891,-2.4741,-2.4591,-2.4512,-2.4321,-2.4199,-2.4199,-2.4199,-2.4122,-2.3976,-2.3967,-2.3825,-2.3468,-2.3141,-2.2889,-2.2695,-2.2563,-2.2563,-2.2695,-2.2873,-2.2914,-2.2914,-2.2539,-2.2068,-2.1472,-2.0547,-1.9074,-1.7177,-1.5776,-1.3493,-1.094,-1.0735,-1.0705,-1.1051,-1.3761,-1.5855,-1.7518,-1.8821,-1.9904,-2.0748,-2.1173,-2.1606,-2.2064,-2.2547,-2.25,-2.2349,-2.2617,-2.25,-2.231,-2.231,-2.2143,-2.2032,-2.2245,-2.2143,-2.204,-2.2245,-2.231,-2.231,-2.231,-2.231,-2.231,-2.231,-2.231,-2.2341,-2.2472,-2.2473,-2.259,-2.2898,-2.3221,-2.3491,-2.3671,-2.3867,-2.3967,-2.3967,-2.3825,-2.3723,-2.3692,-2.3566,-2.3323,-2.3032,-2.2806,-2.2581,-2.231,-2.231,-2.2369,-2.2473,-2.278,-2.3021,-2.3165,-2.3346,-2.3414,-2.386,-2.4304,-2.4584,-2.4614,-2.4732,-2.4837,-2.4746,-2.4775,-2.4731,-2.4478,-2.4339,-2.4275,-2.4275,-2.4469,-2.4693,-2.492,-2.5418,-2.5584,-2.5032,-2.486,-2.479,-2.4731,-2.4591,-2.4478,-2.4426,-2.4284,-2.4199,-2.4199,-2.4199,-2.4199,-2.4199,-2.4199,-2.4074,-2.3825,-2.3491,-2.3174,-2.2814,-2.2527,-2.2472,-2.2599,-2.2599,-2.2599,-2.2591,-2.2169,-2.1622,-2.0926,-1.9881,-1.8268,-1.6321,-1.4888,-1.263,-1.0109,-1.021,-1.096,-1.2372,-1.5709,-1.7884,-1.9251,-1.9756,-2.046,-2.1181,-2.1491,-2.1928,-2.2341,-2.2617,-2.25,-2.2349,-2.2617,-2.25,-2.231,-2.231,-2.2209,-2.2172,-2.2274,-2.2217,-2.2172,-2.2282,-2.231,-2.231,-2.231,-2.231,-2.231,-2.231,-2.231,-2.231,-2.231,-2.2341,-2.2445,-2.2581,-2.303,-2.3392,-2.3566,-2.3946,-2.4199,-2.4199,-2.4199,-2.4094,-2.3837,-2.3825,-2.364,-2.3221,-2.2939,-2.2652,-2.231,-2.231,-2.231,-2.231,-2.2555,-2.2695,-2.2721,-2.2963,-2.3117,-2.3496,-2.4143,-2.4809,-2.4937,-2.4977,-2.4901,-2.4598,-2.467,-2.4685,-2.4303,-2.4366,-2.4478,-2.4478,-2.4733,-2.4924,-2.4828,-2.4964,-2.5013,-2.4847,-2.4804,-2.4731,-2.4536,-2.4512,-2.4418,-2.4247,-2.4218,-2.4199,-2.4199,-2.4199,-2.4199,-2.4199,-2.4199,-2.4199,-2.4161,-2.3846,-2.3491,-2.3174,-2.2848,-2.2563,-2.233,-2.233,-2.233,-2.2321,-2.1845,-2.1391,-2.0926,-1.9489,-1.8184,-1.6933,-1.4705,-1.2872,-1.1572,-1.1581,-1.3202,-1.5834,-1.7729,-1.9154,-2.018,-2.0724,-2.1173,-2.156,-2.1582,-2.1928,-2.2341,-2.2617,-2.25,-2.2349,-2.2617,-2.25,-2.231,-2.231,-2.1974,-2.1756,-2.2209,-2.1966,-2.1756,-2.2209,-2.231,-2.231,-2.231,-2.231,-2.231,-2.231,-2.231,-2.231,-2.231,-2.25,-2.2581,-2.2369,-2.3113,-2.3544,-2.3268,-2.3816,-2.4199,-2.4199,-2.4199,-2.4199,-2.417,-2.417,-2.3867,-2.3221,-2.3174,-2.2883,-2.2302,-2.231,-2.231,-2.231,-2.2555,-2.2695,-2.2695,-2.2712,-2.2889,-2.3352,-2.4202,-2.4917,-2.4877,-2.4946,-2.4965,-2.4845,-2.4702,-2.4568,-2.4418,-2.4348,-2.4393,-2.4639,-2.4854,-2.4977,-2.4933,-2.4891,-2.4818,-2.4639,-2.4512,-2.441,-2.4312,-2.4312,-2.4284,-2.4218,-2.4199,-2.4199,-2.4199,-2.4199,-2.4199,-2.4199,-2.4199,-2.4199,-2.4199,-2.3867,-2.364,-2.3513,-2.2972,-2.266,-2.2537,-2.2388,-2.231,-2.2274,-2.1823,-2.1521,-2.1306,-1.9893,-1.8595,-1.7328,-1.5862,-1.4199,-1.274,-1.3778,-1.551,-1.7595,-1.9044,-2.0047,-2.0749,-2.1236,-2.146,-2.1658,-2.1928,-2.2152,-2.2396,-2.2874,-2.2678,-2.2396,-2.289,-2.2678,-2.231,-2.231,-2.2172,-2.2069,-2.2245,-2.2281,-2.2324,-2.2501,-2.2537,-2.2537,-2.2537,-2.2398,-2.231,-2.231,-2.231,-2.231,-2.231,-2.2519,-2.2652,-2.2555,-2.3206,-2.364,-2.3513,-2.3917,-2.4199,-2.4199,-2.4199,-2.4199,-2.4199,-2.4199,-2.3996,-2.3522,-2.3513,-2.3206,-2.2563,-2.2537,-2.2463,-2.231,-2.2407,-2.2436,-2.2472,-2.2617,-2.2772,-2.3452,-2.4376,-2.5053,-2.49,-2.4904,-2.492,-2.4858,-2.4663,-2.4478,-2.4418,-2.4393,-2.4495,-2.4804,-2.4946,-2.4986,-2.4937,-2.4804,-2.4648,-2.4436,-2.4294,-2.4199,-2.4199,-2.4199,-2.4199,-2.4199,-2.4199,-2.4199,-2.4199,-2.4199,-2.4199,-2.4199,-2.4199,-2.4199,-2.4199,-2.3976,-2.3816,-2.3692,-2.3141,-2.2864,-2.2839,-2.2572,-2.2379,-2.2274,-2.1823,-2.159,-2.1521,-2.0312,-1.9276,-1.8337,-1.7341,-1.6194,-1.5143,-1.6349,-1.783,-1.9356,-2.029,-2.0967,-2.1454,-2.1735,-2.1832,-2.1861,-2.2209,-2.231,-2.2377,-2.2798,-2.2624,-2.2377,-2.2798,-2.2624,-2.231,-2.231,-2.231,-2.231,-2.231,-2.2445,-2.2581,-2.2581,-2.2581,-2.2581,-2.2581,-2.2426,-2.231,-2.231,-2.231,-2.231,-2.231,-2.2616,-2.2814,-2.2712,-2.3392,-2.3867,-2.3867,-2.4065,-2.4199,-2.4199,-2.4094,-2.4094,-2.419,-2.4094,-2.3946,-2.3714,-2.3597,-2.3268,-2.2721,-2.2695,-2.2555,-2.231,-2.231,-2.231,-2.231,-2.2581,-2.2772,-2.3813,-2.4678,-2.5253,-2.5055,-2.4891,-2.4746,-2.4536,-2.4486,-2.4436,-2.4238,-2.4528,-2.4842,-2.4965,-2.5001,-2.4959,-2.4823,-2.4623,-2.4436,-2.4228,-2.4199,-2.419,-2.419,-2.419,-2.419,-2.419,-2.4199,-2.4199,-2.4199,-2.4199,-2.4199,-2.4199,-2.4199,-2.4199,-2.4199,-2.4199,-2.4045,-2.3714,-2.3369,-2.3189,-2.3189,-2.2864,-2.2555,-2.2282,-2.1823,-2.1612,-2.1543,-2.062,-2.0232,-2.0149,-1.9014,-1.8716,-1.9036,-1.9259,-2.0149,-2.134,-2.1538,-2.1899,-2.231,-2.231,-2.231,-2.231,-2.231,-2.231,-2.231,-2.231,-2.231,-2.231,-2.231,-2.231,-2.231,-2.231,-2.231,-2.231,-2.231,-2.231,-2.231,-2.231,-2.231,-2.231,-2.231,-2.231,-2.231,-2.231,-2.231,-2.231,-2.231,-2.2824,-2.3069,-2.2746,-2.3575,-2.4199,-2.4199,-2.419,-2.4199,-2.4199,-2.3896,-2.3837,-2.417,-2.3887,-2.3692,-2.3692,-2.3392,-2.3045,-2.2721,-2.2695,-2.2555,-2.231,-2.231,-2.231,-2.231,-2.2581,-2.2889,-2.3647,-2.4309,-2.4896,-2.4702,-2.4435,-2.4182,-2.3973,-2.4115,-2.4266,-2.4209,-2.4528,-2.4809,-2.4846,-2.4933,-2.4959,-2.4823,-2.4623,-2.4436,-2.4228,-2.4312,-2.4401,-2.4401,-2.4401,-2.4401,-2.4401,-2.4284,-2.4199,-2.4199,-2.4199,-2.4199,-2.4199,-2.4199,-2.4199,-2.4199,-2.4199,-2.4142,-2.4045,-2.3723,-2.3544,-2.3544,-2.3221,-2.2881,-2.2581,-2.244,-2.2275,-2.2061,-2.1686,-2.1548,-2.1493,-2.1057,-2.1016,-2.1201,-2.1259,-2.1582,-2.2014,-2.2081,-2.2172,-2.231,-2.231,-2.231,-2.231,-2.231,-2.231,-2.2358,-2.2519,-2.2445,-2.2349,-2.2519,-2.2445,-2.231,-2.231,-2.2445,-2.2545,-2.2341,-2.2616,-2.2883,-2.2625,-2.2755,-2.2849,-2.2625,-2.2426,-2.231,-2.231,-2.231,-2.236,-2.2555,-2.2931,-2.3245,-2.3392,-2.3468,-2.35,-2.35,-2.3723,-2.3846,-2.3846,-2.3765,-2.3837,-2.417,-2.3662,-2.3566,-2.4025,-2.3723,-2.3392,-2.3069,-2.2814,-2.2555,-2.231,-2.231,-2.231,-2.2302,-2.2807,-2.3085,-2.3955,-2.4298,-2.4554,-2.4352,-2.4054,-2.3744,-2.3539,-2.3765,-2.3996,-2.3996,-2.4364,-2.4685,-2.4685,-2.4818,-2.4891,-2.4809,-2.47,-2.4584,-2.4453,-2.4536,-2.4632,-2.4632,-2.4632,-2.4584,-2.4512,-2.4393,-2.4294,-2.4218,-2.4199,-2.4199,-2.4199,-2.4199,-2.4199,-2.4199,-2.4199,-2.4199,-2.4199,-2.3867,-2.3774,-2.3887,-2.3566,-2.3291,-2.3085,-2.2972,-2.2823,-2.266,-2.2574,-2.2548,-2.2539,-2.2462,-2.247,-2.2513,-2.2398,-2.2395,-2.2445,-2.2349,-2.231,-2.231,-2.231,-2.231,-2.231,-2.231,-2.236,-2.2463,-2.2519,-2.25,-2.2463,-2.2527,-2.25,-2.2417,-2.233,-2.25,-2.2652,-2.2509,-2.2832,-2.3117,-2.2772,-2.2864,-2.2898,-2.2608,-2.2407,-2.231,-2.231,-2.231,-2.2379,-2.2652,-2.2996,-2.3314,-2.3671,-2.3423,-2.3245,-2.3392,-2.3566,-2.3744,-2.3896,-2.3774,-2.3837,-2.417,-2.3692,-2.3566,-2.3987,-2.3671,-2.3423,-2.3189,-2.2864,-2.2555,-2.231,-2.231,-2.231,-2.2302,-2.2781,-2.3061,-2.449,-2.4488,-2.4197,-2.3932,-2.3587,-2.3267,-2.3049,-2.3282,-2.3557,-2.364,-2.408,-2.4459,-2.4459,-2.4645,-2.4804,-2.4804,-2.4804,-2.4804,-2.4804,-2.4809,-2.4823,-2.4823,-2.4823,-2.4751,-2.4559,-2.4519,-2.4418,-2.4238,-2.4209,-2.4199,-2.4199,-2.4199,-2.4199,-2.4199,-2.4199,-2.4199,-2.4199,-2.3896,-2.3896,-2.4199,-2.3896,-2.3744,-2.3735,-2.3392,-2.3245,-2.3245,-2.3245,-2.3259,-2.3291,-2.3291,-2.3268,-2.3165,-2.2864,-2.2721,-2.2634,-2.2379,-2.231,-2.231,-2.231,-2.231,-2.231,-2.233,-2.2473,-2.2617,-2.2407,-2.2482,-2.2617,-2.2369,-2.25,-2.2626,-2.2407,-2.2572,-2.2797,-2.2797,-2.2996,-2.3093,-2.2755,-2.2704,-2.2669,-2.2369,-2.231,-2.231,-2.231,-2.233,-2.2453,-2.2764,-2.3012,-2.3314,-2.3619,-2.3346,-2.3245,-2.3566,-2.3649,-2.3795,-2.4122,-2.3876,-2.3837,-2.417,-2.3896,-2.3692,-2.3692,-2.3392,-2.3198,-2.3174,-2.2822,-2.2502,-2.2209,-2.2276,-2.2276,-2.2209,-2.2547,-2.2864,-2.4005,-2.3876,-2.3675,-2.3065,-2.2401,-2.1863,-2.1538,-2.1967,-2.2617,-2.3189,-2.3728,-2.4109,-2.4109,-2.4494,-2.4804,-2.4804,-2.4804,-2.4804,-2.4804,-2.4891,-2.4959,-2.4959,-2.4959,-2.4937,-2.4898,-2.4657,-2.4478,-2.4436,-2.4284,-2.4199,-2.4199,-2.4199,-2.4199,-2.4199,-2.4199,-2.4199,-2.4199,-2.4122,-2.4122,-2.4199,-2.4122,-2.4094,-2.4074,-2.3744,-2.3588,-2.3588,-2.3588,-2.3744,-2.3987,-2.3987,-2.3662,-2.3189,-2.3117,-2.2807,-2.2388,-2.233,-2.231,-2.231,-2.231,-2.231,-2.2321,-2.2537,-2.25,-2.2426,-2.2555,-2.25,-2.236,-2.231,-2.25,-2.2704,-2.2643,-2.3063,-2.3491,-2.3491,-2.3346,-2.3063,-2.249,-2.2764,-2.2949,-2.2388,-2.231,-2.231,-2.231,-2.2482,-2.2815,-2.3401,-2.3314,-2.3221,-2.3291,-2.2824,-2.2607,-2.2873,-2.3141,-2.3437,-2.3774,-2.3744,-2.3837,-2.417,-2.3896,-2.3692,-2.3692,-2.3392,-2.3069,-2.2814,-2.2527,-2.2071,-2.1431,-2.2023,-2.2006,-2.1466,-2.2306,-2.2864,-2.3819,-2.3588,-2.3259,-2.2337,-2.1699,-2.1227,-2.1055,-2.1313,-2.1732,-2.2317,-2.3188,-2.3866,-2.3866,-2.4368,-2.4804,-2.4804,-2.4932,-2.5034,-2.5034,-2.5096,-2.5142,-2.5142,-2.5142,-2.5109,-2.501,-2.4845,-2.4663,-2.4502,-2.4401,-2.4339,-2.4339,-2.4256,-2.4238,-2.4348,-2.4256,-2.4199,-2.4199,-2.4199,-2.4199,-2.4199,-2.4199,-2.4199,-2.419,-2.4025,-2.3946,-2.3946,-2.3946,-2.4045,-2.4199,-2.4199,-2.3896,-2.3446,-2.3446,-2.3144,-2.273,-2.273,-2.2634,-2.25,-2.25,-2.2407,-2.2341,-2.2617,-2.2721,-2.2721,-2.2712,-2.2721,-2.266,-2.2369,-2.25,-2.2695,-2.2695,-2.2972,-2.3268,-2.3414,-2.3566,-2.35,-2.2875,-2.2974,-2.3014,-2.2424,-2.231,-2.2349,-2.2463,-2.2865,-2.33,-2.3649,-2.3414,-2.3189,-2.3189,-2.2781,-2.2616,-2.2898,-2.3245,-2.3575,-2.3917,-2.3946,-2.4016,-2.4199,-2.3896,-2.3619,-2.3468,-2.3141,-2.2864,-2.2686,-2.2086,-2.1574,-2.1212,-2.1202,-2.1008,-2.0644,-2.1566,-2.1952,-2.3692,-2.3227,-2.26,-2.1706,-2.107,-2.0649,-2.0649,-2.0715,-2.087,-2.1282,-2.241,-2.3373,-2.357,-2.4143,-2.4625,-2.4785,-2.507,-2.5293,-2.5293,-2.5293,-2.5293,-2.5293,-2.5293,-2.5224,-2.5067,-2.5022,-2.4875,-2.4614,-2.4559,-2.4552,-2.4552,-2.4383,-2.4357,-2.4495,-2.433,-2.4247,-2.4199,-2.4199,-2.4199,-2.4199,-2.4199,-2.4199,-2.4199,-2.4199,-2.4199,-2.4199,-2.4199,-2.4199,-2.4199,-2.4199,-2.3996,-2.3692,-2.3692,-2.35,-2.3189,-2.3189,-2.2996,-2.2695,-2.2695,-2.2519,-2.2341,-2.2695,-2.2939,-2.3085,-2.2914,-2.2996,-2.3014,-2.2526,-2.2519,-2.2695,-2.2695,-2.2797,-2.2939,-2.3221,-2.3744,-2.3996,-2.3268,-2.3165,-2.3014,-2.2424,-2.2358,-2.2472,-2.2729,-2.3291,-2.3723,-2.3774,-2.3446,-2.3189,-2.3189,-2.2856,-2.278,-2.3174,-2.3446,-2.3765,-2.417,-2.4199,-2.4199,-2.4199,-2.3896,-2.3544,-2.3212,-2.2864,-2.2678,-2.2634,-2.1812,-2.1253,-2.0982,-2.0467,-2.0078,-1.9891,-2.0653,-2.084,-2.3369,-2.231,-2.1243,-2.1118,-2.0112,-1.917,-1.917,-1.9484,-1.9916,-2.0315,-2.1093,-2.2041,-2.3079,-2.3483,-2.3917,-2.4681,-2.507,-2.5293,-2.5293,-2.5293,-2.5293,-2.5293,-2.5293,-2.5293,-2.5264,-2.5099,-2.4977,-2.4949,-2.4832,-2.476,-2.476,-2.4721,-2.4654,-2.4502,-2.4478,-2.4375,-2.4199,-2.4199,-2.4199,-2.4199,-2.4199,-2.4199,-2.4199,-2.4199,-2.4199,-2.4199,-2.4199,-2.4199,-2.4199,-2.4199,-2.3996,-2.3692,-2.3692,-2.35,-2.3189,-2.3189,-2.2996,-2.2695,-2.2695,-2.2519,-2.2396,-2.294,-2.2972,-2.2873,-2.3392,-2.3224,-2.2824,-2.2695,-2.2678,-2.2695,-2.2695,-2.3117,-2.3566,-2.3619,-2.3917,-2.3946,-2.2963,-2.2988,-2.3014,-2.2424,-2.2482,-2.2755,-2.3069,-2.3446,-2.3795,-2.4094,-2.3597,-2.3189,-2.3189,-2.2695,-2.2571,-2.315,-2.3245,-2.3522,-2.4151,-2.4199,-2.4199,-2.4199,-2.3896,-2.3544,-2.3212,-2.2864,-2.2599,-2.2369,-2.2228,-2.1507,-2.0154,-2.0754,-2.0483,-1.9409,-1.9914,-2.0407,-2.3069,-2.1967,-2.0918,-2.0635,-1.9705,-1.881,-1.8535,-1.8826,-1.9397,-2.007,-2.0629,-2.1464,-2.2926,-2.3675,-2.4219,-2.4723,-2.499,-2.5163,-2.5274,-2.5293,-2.5293,-2.5293,-2.5293,-2.5293,-2.5293,-2.5214,-2.512,-2.501,-2.4946,-2.4907,-2.4907,-2.4842,-2.4785,-2.4785,-2.4712,-2.4632,-2.4545,-2.4418,-2.4312,-2.4199,-2.4199,-2.4199,-2.4199,-2.4199,-2.4199,-2.4199,-2.4199,-2.4199,-2.4199,-2.4199,-2.4113,-2.3976,-2.3976,-2.3896,-2.3765,-2.3765,-2.3544,-2.3268,-2.3268,-2.3063,-2.2891,-2.3323,-2.3392,-2.3323,-2.3619,-2.3378,-2.2974,-2.2772,-2.2599,-2.25,-2.2652,-2.2914,-2.3236,-2.3619,-2.3671,-2.3522,-2.3069,-2.3093,-2.3014,-2.2424,-2.2678,-2.3021,-2.3165,-2.364,-2.4025,-2.417,-2.3619,-2.3189,-2.3189,-2.2798,-2.2712,-2.315,-2.3369,-2.3671,-2.417,-2.4199,-2.4199,-2.4199,-2.3714,-2.3337,-2.3221,-2.273,-2.2426,-2.231,-2.1437,-2.0669,-2.0002,-1.9536,-1.9069,-1.8698,-1.9324,-1.9625,-2.2442,-2.1546,-2.074,-2.0312,-1.944,-1.8574,-1.8178,-1.8419,-1.8955,-1.9805,-2.0526,-2.1446,-2.2928,-2.3742,-2.4309,-2.4672,-2.485,-2.5005,-2.5149,-2.5171,-2.5171,-2.5171,-2.5203,-2.5224,-2.5224,-2.5264,-2.5234,-2.5088,-2.5077,-2.5077,-2.5077,-2.4787,-2.4648,-2.4684,-2.4378,-2.4294,-2.4469,-2.4488,-2.4418,-2.4275,-2.4228,-2.4199,-2.4199,-2.4199,-2.4142,-2.4074,-2.417,-2.4199,-2.4199,-2.4199,-2.4199,-2.4199,-2.4199,-2.4199,-2.4199,-2.4199,-2.3996,-2.3692,-2.3692,-2.3468,-2.3268,-2.3588,-2.3692,-2.3723,-2.3795,-2.3535,-2.3141,-2.2898,-2.2572,-2.2349,-2.2537,-2.2704,-2.2939,-2.3437,-2.3446,-2.3268,-2.3117,-2.3005,-2.2866,-2.2472,-2.2832,-2.3221,-2.3314,-2.3816,-2.4199,-2.4199,-2.3619,-2.3189,-2.3189,-2.284,-2.2738,-2.3174,-2.3414,-2.3744,-2.4161,-2.4199,-2.4199,-2.4199,-2.364,-2.3323,-2.3323,-2.2798,-2.244,-2.2234,-2.0832,-2.0094,-2.0002,-1.8701,-1.815,-1.8299,-1.8801,-1.8912,-2.1282,-2.0715,-2.0348,-2.0306,-1.9207,-1.8138,-1.8099,-1.8138,-1.8408,-1.9256,-2.071,-2.213,-2.3025,-2.3295,-2.3617,-2.4381,-2.4685,-2.4809,-2.4823,-2.4832,-2.4832,-2.4832,-2.4943,-2.5022,-2.5022,-2.5183,-2.5303,-2.5283,-2.5274,-2.5274,-2.5274,-2.4553,-2.4052,-2.3873,-2.305,-2.292,-2.3554,-2.4182,-2.4486,-2.4478,-2.4284,-2.4199,-2.4199,-2.4199,-2.4025,-2.3744,-2.4065,-2.4199,-2.4199,-2.4199,-2.4199,-2.4199,-2.4199,-2.4199,-2.4199,-2.4199,-2.3996,-2.3692,-2.3692,-2.3468,-2.3268,-2.3588,-2.3692,-2.3765,-2.4074,-2.3723,-2.3198,-2.3165,-2.2747,-2.231,-2.233,-2.2756,-2.3189,-2.3221,-2.3468,-2.3491,-2.2864,-2.2527,-2.2407,-2.2643,-2.2972,-2.3291,-2.3619,-2.3976,-2.4199,-2.4199,-2.3619,-2.3189,-2.3189,-2.2686,-2.2553,-2.3126,-2.3221,-2.3491,-2.4142,-2.4199,-2.4199,-2.4199,-2.3867,-2.3662,-2.3662,-2.3346,-2.2782,-2.2022,-2.1008,-2.0312,-2.0002,-1.9223,-1.8757,-1.8566,-1.8354,-1.8513,-2.133,-2.0838,-2.0299,-2.0252,-1.9411,-1.8535,-1.8178,-1.8373,-1.888,-1.9728,-2.0854,-2.1891,-2.272,-2.3431,-2.4006,-2.4431,-2.4568,-2.4654,-2.479,-2.4804,-2.4804,-2.4804,-2.4842,-2.4904,-2.4989,-2.5077,-2.5163,-2.5293,-2.5293,-2.5072,-2.4553,-2.4264,-2.3803,-2.318,-2.2853,-2.2745,-2.2863,-2.3657,-2.3992,-2.3857,-2.4217,-2.4383,-2.4393,-2.4256,-2.4142,-2.4025,-2.4151,-2.4074,-2.3896,-2.4113,-2.4199,-2.4199,-2.4199,-2.4199,-2.4199,-2.4199,-2.4122,-2.4016,-2.4016,-2.3937,-2.3867,-2.3967,-2.4016,-2.4045,-2.417,-2.3744,-2.3189,-2.3189,-2.2781,-2.2349,-2.25,-2.289,-2.3236,-2.3468,-2.3619,-2.3575,-2.3117,-2.2789,-2.2581,-2.2669,-2.3141,-2.3566,-2.3671,-2.3976,-2.4122,-2.3917,-2.3491,-2.3189,-2.3189,-2.2815,-2.2798,-2.3446,-2.3522,-2.3723,-2.417,-2.4321,-2.4383,-2.4383,-2.4089,-2.3888,-2.3888,-2.3446,-2.2835,-2.2028,-2.1013,-2.0189,-1.9559,-1.864,-1.8249,-1.8351,-1.843,-1.8651,-2.0814,-2.055,-2.0081,-2.0028,-1.947,-1.881,-1.8458,-1.865,-1.9155,-2.0001,-2.0783,-2.151,-2.2344,-2.3139,-2.3753,-2.4014,-2.4052,-2.41,-2.4244,-2.4262,-2.4262,-2.4262,-2.4426,-2.457,-2.4667,-2.4873,-2.4941,-2.4809,-2.486,-2.4543,-2.3716,-2.3388,-2.2831,-2.1985,-2.2216,-2.2297,-2.2171,-2.296,-2.3298,-2.3164,-2.3777,-2.4059,-2.4078,-2.4165,-2.4142,-2.4045,-2.4142,-2.4065,-2.3896,-2.4122,-2.4199,-2.4199,-2.4199,-2.4199,-2.4199,-2.4199,-2.4199,-2.4199,-2.4199,-2.4199,-2.4199,-2.4199,-2.4199,-2.4199,-2.4199,-2.3816,-2.3369,-2.3369,-2.3007,-2.2634,-2.2831,-2.3117,-2.3414,-2.3649,-2.3692,-2.3619,-2.3268,-2.3021,-2.2889,-2.3012,-2.3401,-2.3744,-2.3846,-2.3967,-2.3987,-2.3887,-2.35,-2.3245,-2.3337,-2.3069,-2.3069,-2.364,-2.3692,-2.3869,-2.4266,-2.4418,-2.4519,-2.4601,-2.4394,-2.4236,-2.4164,-2.3573,-2.2788,-2.1823,-2.0785,-1.9817,-1.8923,-1.8166,-1.7984,-1.833,-1.8517,-1.878,0.0,0.0,0.0,-1.9718,-1.9325,-1.893,-1.8923,-1.8923,-1.9155,-2.0043,-2.0508,-2.1051,-2.1901,-2.2338,-2.2701,-2.31,-2.3165,-2.3189,-2.3189,-2.3189,-2.3189,-2.3189,-2.3648,-2.3979,-2.4007,-2.4614,-2.4655,-2.3875,-2.3995,-2.3706,-2.2811,-2.1936,-2.1108,-2.0321,-2.1062,-2.1456,-2.1466,-2.2124,-2.2469,-2.2479,-2.2951,-2.3189,-2.3236,-2.387,-2.3998,-2.3735,-2.4065,-2.4199,-2.4199,-2.4199,-2.4199,-2.4199,-2.4199,-2.4199,-2.4199,-2.4199,-2.4199,-2.4199,-2.4199,-2.4199,-2.4199,-2.4199,-2.4199,-2.4199,-2.4199,-2.3976,-2.3692,-2.3692,-2.3468,-2.3189,-2.3221,-2.3459,-2.3714,-2.3714,-2.3714,-2.3619,-2.3291,-2.3221,-2.3314,-2.364,-2.3714,-2.3816,-2.4142,-2.3917,-2.3816,-2.4142,-2.364,-2.3337,-2.3671,-2.3414,-2.3337,-2.3671,-2.3714,-2.3941,-2.4461,-2.4512,-2.4591,-2.478,-2.4804,-2.4706,-2.4491,-2.3719,-2.2702,-2.1396,-2.0344,-1.9266,-1.8187,-1.7927,-1.807,-1.8575,-1.8585,-1.8842,-1.9974,0.0,0.0,0.0,0.0,0.0,-1.9864,-1.9709,-1.9717,-2.0601,-2.0585,-2.061,-2.1212,-2.1622,-2.1906,-2.2029,-2.2695,-2.3189,-2.3189,-2.2944,-2.2877,-2.3165,-2.328,-2.3587,-2.417,-2.4597,-2.4619,-2.4059,-2.407,-2.3487,-2.2072,-2.1181,-2.0578,-2.0305,-2.0518,-2.0629,-2.0629,-2.1385,-2.1779,-2.1779,-2.2297,-2.2854,-2.3416,-2.3368,-2.3601,-2.4074,-2.417,-2.4199,-2.4199,-2.4199,-2.4199,-2.4199,-2.4199,-2.4199,-2.4199,-2.4199,-2.4199,-2.4199,-2.4199,-2.4199,-2.4199,-2.4199,-2.4199,-2.4199,-2.4199,-2.3976,-2.3692,-2.3692,-2.3468,-2.3268,-2.3491,-2.3816,-2.4065,-2.4065,-2.4065,-2.4045,-2.3937,-2.3917,-2.3876,-2.3723,-2.3896,-2.4094,-2.417,-2.4122,-2.4016,-2.3867,-2.3806,-2.3758,-2.3705,-2.3755,-2.3857,-2.4036,-2.4065,-2.4191,-2.4478,-2.4623,-2.4785,-2.4933,-2.4937,-2.4654,-2.4024,-2.3557,-2.2465,-2.0709,-2.0099,-1.9266,-1.8187,-1.7927,-1.7869,-1.8027,-1.841,-1.8842,-1.9913,-1.9874,-1.9754,-2.0,0.0,0.0,-2.0007,-2.0,-2.0131,-2.0862,-2.0624,-2.0449,-2.0926,-2.1181,-2.1346,-2.1346,-2.202,-2.253,-2.253,-2.215,-2.2014,-2.2469,-2.2556,-2.2923,-2.3869,-2.4463,-2.4582,-2.4065,-2.3763,-2.2879,-2.1248,-2.0679,-2.0384,-2.0337,-2.0305,-2.0299,-2.0304,-2.077,-2.1004,-2.1006,-2.1562,-2.2054,-2.248,-2.2894,-2.3124,-2.3235,-2.3905,-2.4006,-2.3722,-2.4146,-2.4275,-2.4199,-2.4199,-2.4199,-2.4199,-2.4199,-2.4199,-2.4199,-2.4199,-2.4199,-2.4199,-2.4199,-2.4199,-2.4199,-2.4199,-2.4065,-2.3917,-2.3917,-2.3774,-2.3662,-2.3867,-2.4045,-2.4199,-2.4199,-2.4199,-2.4199,-2.4199,-2.4199,-2.4142,-2.3946,-2.4074,-2.4199,-2.4199,-2.4094,-2.3998,-2.404,-2.4005,-2.4044,-2.4146,-2.4201,-2.4247,-2.433,-2.4256,-2.4321,-2.4591,-2.4731,-2.4896,-2.5109,-2.5131,-2.4692,-2.3723,-2.3159,-2.2027,-2.0182,-1.9583,-1.8889,-1.8027,-1.7869,-1.7914,-1.8146,-1.8575,-1.8965,-1.9581,-1.9603,-1.9603,-1.9603,-1.9603,0.0,-1.9818,-2.0062,-2.0449,-2.0959,-2.069,-2.0524,-2.0926,-2.1031,-2.1055,-2.0999,-2.1337,-2.1582,-2.1505,-2.1037,-2.0887,-2.1428,-2.164,-2.2203,-2.3428,-2.4292,-2.4563,-2.3975,-2.3223,-2.209,-2.0509,-2.0422,-2.0409,-2.0408,-2.0347,-2.0315,-2.0297,-2.0304,-2.03,-2.0304,-2.0824,-2.1051,-2.1073,-2.2363,-2.2539,-2.1903,-2.3428,-2.3667,-2.3088,-2.4094,-2.4383,-2.4247,-2.4256,-2.4275,-2.4256,-2.4238,-2.4247,-2.4256,-2.4238,-2.4247,-2.4256,-2.4247,-2.4219,-2.4228,-2.4218,-2.4199,-2.4199,-2.4199,-2.4199,-2.4199,-2.4199,-2.4199,-2.4199,-2.4199,-2.4199,-2.4199,-2.4199,-2.4199,-2.4199,-2.4199,-2.4199,-2.4199,-2.4199,-2.3946,-2.3921,-2.4425,-2.4272,-2.4251,-2.4741,-2.4636,-2.4508,-2.4459,-2.4294,-2.4357,-2.4702,-2.478,-2.4945,-2.5283,-2.5293,-2.474,-2.3468,-2.27,-2.1501,-1.9799,-1.8968,-1.833,-1.7847,-1.7847,-1.8103,-1.8613,-1.8878,-1.911,-1.9259,-1.905,-1.905,-1.905,-1.905,0.0,-2.0491,-2.0524,-2.0542,-2.1329,-2.115,-2.0894,-2.0991,-2.1275,-2.1368,-2.1055,-2.1337,-2.1458,-2.1021,-2.0307,-2.0111,-2.0879,-2.1117,-2.19,-2.3582,-2.4369,-2.4616,-2.417,-2.2824,-2.1592,-2.0613,-2.0508,-2.0478,-2.0482,-2.0472,-2.0408,-2.0303,-2.0305,-2.0298,-2.0294,-2.026,-2.0563,-2.1166,-2.1343,-2.162,-2.2017,-2.2975,-2.3241,-2.3088,-2.4094,-2.4478,-2.447,-2.4623,-2.4685,-2.4654,-2.4495,-2.4536,-2.4654,-2.4495,-2.4552,-2.4664,-2.4486,-2.4436,-2.4401,-2.4238,-2.4199,-2.4199,-2.4199,-2.4199,-2.4199,-2.4199,-2.4199,-2.4199,-2.4199,-2.4199,-2.4199,-2.4199,-2.4199,-2.4199,-2.4199,-2.4199,-2.4199,-2.4199,-2.4151,-2.4191,-2.4461,-2.458,-2.4676,-2.4785,-2.4765,-2.4582,-2.4146,-2.4164,-2.4257,-2.4393,-2.464,-2.4945,-2.5283,-2.5293,-2.4582,-2.3007,-2.2528,-2.1407,-1.9516,-1.8698,-1.8237,-1.8133,-1.8133,-1.829,-1.8613,-1.8878,-1.911,-1.9207,-1.8893,-1.8893,-1.8893,-1.8893,0.0,0.0,-2.0657,-2.0846,-2.146,-2.143,-2.1306,-2.1306,-2.146,-2.1469,-2.1063,-2.1158,-2.1046,-2.0315,-1.9624,-1.9602,-2.0639,-2.0809,-2.1695,-2.3833,-2.4577,-2.4697,-2.4187,-2.3457,-2.2488,-2.1216,-2.1123,-2.0913,-2.0508,-2.0466,-2.043,-2.0401,-2.0371,-2.033,-2.0301,-2.02,-2.0304,-2.0612,-2.0956,-2.1026,-2.0961,-2.2111,-2.2342,-2.2009,-2.3419,-2.4007,-2.4045,-2.4591,-2.4525,-2.4143,-2.405,-2.4065,-2.4143,-2.4035,-2.4292,-2.4623,-2.4536,-2.4436,-2.433,-2.4228,-2.4199,-2.4199,-2.4199,-2.4199,-2.4199,-2.4199,-2.4199,-2.4199,-2.4199,-2.4199,-2.4199,-2.4199,-2.4199,-2.4199,-2.4199,-2.4199,-2.4199,-2.4199,-2.4199,-2.4303,-2.4591,-2.4737,-2.4865,-2.5027,-2.4781,-2.4412,-2.3861,-2.389,-2.3956,-2.3942,-2.4464,-2.4945,-2.5283,-2.5293,-2.4524,-2.2777,-2.2441,-2.1264,-1.9048,-1.8476,-1.8187,-1.8208,-1.8469,-1.8669,-1.8807,-1.8931,-1.915,-1.9126,-1.865,-1.8612,-1.8734,-1.8803,-1.9155,0.0,0.0,0.0,-2.1658,-2.1726,-2.1726,-2.1726,-2.1658,-2.1469,-2.1063,-2.0926,-2.0575,-1.972,-1.9258,-1.9476,-2.0615,-2.0832,-2.1796,-2.4076,-2.4737,-2.4735,-2.4053,-2.414,-2.3559,-2.2047,-2.1745,-2.1346,-2.0769,-2.0542,-2.0448,-2.0498,-2.0451,-2.0388,-2.032,-2.032,-2.0228,-2.0077,-2.0728,-2.0592,-1.9909,-2.1232,-2.1421,-2.0928,-2.2594,-2.3266,-2.3364,-2.4297,-2.432,-2.3795,-2.3443,-2.3542,-2.3814,-2.3582,-2.3883,-2.4339,-2.4286,-2.4024,-2.3768,-2.3914,-2.3969,-2.3997,-2.4153,-2.4199,-2.4199,-2.4199,-2.4199,-2.4199,-2.4199,-2.4199,-2.4199,-2.4199,-2.4199,-2.4199,-2.4199,-2.4199,-2.4199,-2.4199,-2.4199,-2.4312,-2.4685,-2.4777,-2.4901,-2.5172,-2.4734,-2.4207,-2.3732,-2.3687,-2.3721,-2.3741,-2.4395,-2.4945,-2.5283,-2.5293,-2.4504,-2.2707,-2.2114,-2.0829,-1.8715,-1.8469,-1.8351,-1.8351,-1.8789,-1.8993,-1.8993,-1.9035,-1.9246,-1.8475,-1.782,-1.7585,-1.8059,-1.8486,-1.9163,-2.0601,0.0,-2.1658,-2.2143,0.0,-2.2209,-2.2209,0.0,0.0,-2.1063,-2.0657,-2.0196,-1.9685,-1.9759,-2.0131,-2.0883,-2.1541,-2.2541,-2.4157,-2.4787,-2.4695,-2.3734,-2.3838,-2.3649,-2.2986,-2.1926,-2.1436,-2.165,-2.0898,-2.0486,-2.0498,-2.0494,-2.0447,-2.0388,-2.0388,-2.0357,-2.0273,-2.0354,-2.0252,-2.0021,-2.0776,-2.0992,-2.0881,-2.1975,-2.2441,-2.2542,-2.3722,-2.4553,-2.4887,-2.3236,-2.367,-2.4933,-2.3875,-2.3666,-2.3831,-2.3536,-2.2819,-2.2198,-2.2923,-2.3144,-2.329,-2.3997,-2.4199,-2.4199,-2.4199,-2.4199,-2.4199,-2.4199,-2.4199,-2.4199,-2.4199,-2.4199,-2.4199,-2.4199,-2.4199,-2.4199,-2.4199,-2.4199,-2.4275,-2.4495,-2.4695,-2.4806,-2.4846,-2.4596,-2.4282,-2.398,-2.3796,-2.3848,-2.4185,-2.4576,-2.4945,-2.5283,-2.5293,-2.4543,-2.2842,-2.1037,-1.973,-1.8966,-1.8931,-1.8914,-1.8914,-1.8975,-1.8993,-1.901,-1.9173,-1.9389,-1.792,-1.747,-1.7429,-1.798,-1.8447,-1.9192,-2.0659,-2.1306,-2.1726,-2.22,0.0,0.0,0.0,0.0,0.0,0.0,-2.1165,-2.0975,-2.075,-2.0996,-2.1304,-2.1602,-2.2148,-2.2923,-2.397,-2.427,-2.4241,-2.3864,-2.4048,-2.4008,-2.3589,-2.2572,-2.1854,-2.1523,-2.082,-2.0462,-2.0498,-2.0536,-2.0516,-2.0457,-2.0422,-2.0361,-2.0297,-2.0295,-2.025,-2.018,-2.0354,-2.0335,-2.0295,-2.1306,-2.1668,-2.167,-2.2326,-2.2802,-2.3005,-2.2211,-2.2374,-2.2966,-2.2928,-2.2846,-2.2806,-2.3045,-2.2847,-2.2648,-2.3456,-2.3703,-2.3768,-2.4098,-2.4199,-2.4199,-2.4199,-2.4199,-2.4199,-2.4199,-2.4199,-2.4199,-2.4199,-2.4199,-2.4199,-2.4199,-2.4199,-2.4199,-2.4199,-2.4199,-2.4275,-2.4461,-2.4599,-2.4704,-2.4785,-2.4465,-2.4052,-2.364,-2.3766,-2.3884,-2.3896,-2.4524,-2.5027,-2.5274,-2.4389,-2.3448,-2.2558,-2.062,-1.9434,-1.9127,-1.9034,-1.9034,-1.912,-1.9164,-1.9173,-1.9182,-1.9268,-1.9457,-1.7497,-1.7188,-1.7229,-1.794,-1.8541,-1.9316,-2.0692,-2.1415,-2.1899,-2.2245,-2.231,0.0,0.0,0.0,-2.2003,-2.1658,0.0,-2.1592,-2.1661,-2.2065,-2.241,-2.2491,-2.2808,-2.3183,-2.3594,-2.363,-2.3677,-2.38,-2.4111,-2.4271,-2.4229,-2.3049,-2.215,-2.1673,-2.0797,-2.0398,-2.0498,-2.0574,-2.0585,-2.0526,-2.046,-2.0393,-2.0326,-2.0305,-2.0296,-2.0294,-2.005,-1.989,-1.9858,-2.0586,-2.0831,-2.0774,-2.1062,-2.1168,-2.1168,-2.1168,-2.1387,-2.17,-2.1998,-2.1874,-2.1665,-2.2159,-2.23,-2.2502,-2.3556,-2.3869,-2.3924,-2.4135,-2.4199,-2.4199,-2.4199,-2.4199,-2.4199,-2.4199,-2.4199,-2.4218,-2.4275,-2.4247,-2.4218,-2.4275,-2.4247,-2.4199,-2.4199,-2.4199,-2.4238,-2.4393,-2.451,-2.4582,-2.4629,-2.4316,-2.3934,-2.3578,-2.3777,-2.3904,-2.3851,-2.4514,-2.4946,-2.4976,-2.361,-2.2575,-2.2052,-2.0445,-1.9503,-1.9369,-1.9225,-1.9202,-1.931,-1.9301,-1.9305,-1.9305,-1.9305,-1.9481,-1.7312,-1.6915,-1.6795,-1.782,-1.8763,-1.9655,-2.0757,-2.1653,-2.2274,-2.231,-2.231,-2.231,-2.231,-2.1936,-2.162,-2.159,-2.1562,0.0,0.0,-2.2642,-2.3182,-2.3516,-2.3574,-2.3408,-2.2971,-2.2943,-2.3047,-2.33,-2.375,-2.4315,-2.5022,-2.3134,-2.218,-2.2556,-2.1029,-2.0303,-2.0498,-2.0574,-2.0596,-2.0596,-2.0527,-2.046,-2.0397,-2.0331,-2.0302,-2.0277,-1.9951,-1.9802,-1.98,-1.983,-1.9858,-1.9872,-2.021,-2.034,-2.034,-2.034,-2.1281,-2.2415,-2.1408,-2.0826,-2.0547,-2.0567,-2.0576,-2.0888,-2.2529,-2.3052,-2.3208,-2.3979,-2.4199,-2.4199,-2.4199,-2.4199,-2.4199,-2.4199,-2.4199,-2.4256,-2.4453,-2.433,-2.4256,-2.4444,-2.433,-2.4199,-2.4199,-2.4199,-2.4199,-2.4218,-2.4375,-2.4426,-2.4238,-2.408,-2.4053,-2.4162,-2.3878,-2.3912,-2.4433,-2.4676,-2.4613,-2.4168,-2.3302,-2.2355,-2.1366,-2.046,-1.9923,-1.9778,-1.9643,-1.9578,-1.9592,-1.9394,-1.9305,-1.9305,-1.9305,-1.9481,-1.6752,-1.6637,-1.6752,-1.782,-1.8572,-1.9344,-2.0692,-2.1446,-2.1928,-2.2245,-2.231,-2.231,-2.231,-2.2172,-2.2061,-2.2061,-2.2175,-2.2236,0.0,-2.223,-2.2502,-2.29,-2.258,-2.2296,-2.2186,-2.2092,-2.2272,-2.2806,-2.335,-2.4026,-2.4855,-2.369,-2.2783,-2.2343,-2.1416,-2.0763,-2.0442,-2.0498,-2.0562,-2.0586,-1.9952,-1.9634,-1.9597,-1.9541,-1.9484,-1.9465,-1.9932,-2.006,-1.9933,-2.0079,-2.005,-1.9963,-2.0197,-2.0302,-2.0285,-2.0152,-2.0384,-2.066,-2.008,-2.0142,-2.0494,-2.0494,-2.0494,-2.0805,-2.2483,-2.2988,-2.318,-2.3969,-2.4199,-2.4199,-2.4199,-2.4303,-2.4357,-2.4228,-2.4401,-2.4584,-2.4502,-2.4453,-2.4418,-2.4495,-2.433,-2.4199,-2.4199,-2.4199,-2.4199,-2.4199,-2.4256,-2.4275,-2.4218,-2.4153,-2.4144,-2.4199,-2.422,-2.4311,-2.4486,-2.4766,-2.4915,-2.4899,-2.3581,-2.2547,-2.1988,-2.0609,-1.9802,-1.9669,-1.9495,-1.9471,-1.9605,-1.9404,-1.9305,-1.9305,-1.9305,-1.9481,-1.6737,-1.6492,-1.6459,-1.7508,-1.8371,-1.9285,-2.0383,-2.1266,-2.1949,-2.2354,-2.2445,-2.2472,-2.2598,-2.2517,-2.2463,-2.2589,-2.2781,-2.2854,0.0,-2.2283,-2.2055,-2.2371,-2.198,-2.1648,-2.1518,-2.1562,-2.194,-2.274,-2.3266,-2.3932,-2.4817,-2.4023,-2.3161,-2.2328,-2.1674,-2.1027,-2.0366,-2.0447,-2.0368,-2.0086,-1.9485,-1.9037,-1.8737,-1.8663,-1.8763,-1.903,-1.9542,-1.9857,-2.0003,-2.0142,-2.0115,-2.0022,-2.0223,-2.0302,-2.0277,-2.0069,-1.9881,-1.9698,-1.94,-1.9638,-2.0124,-2.0402,-2.0494,-2.0767,-2.2204,-2.2855,-2.3222,-2.3791,-2.4117,-2.4303,-2.4303,-2.4348,-2.4375,-2.4312,-2.4502,-2.4691,-2.4687,-2.4582,-2.4519,-2.4591,-2.4393,-2.4199,-2.4199,-2.4199,-2.4199,-2.4199,-2.4199,-2.4199,-2.4199,-2.4199,-2.4199,-2.4199,-2.4375,-2.4543,-2.4672,-2.4827,-2.4782,-2.4438,-2.3352,-2.2354,-2.1523,-2.0391,-1.9776,-1.9738,-1.9563,-1.9545,-1.9669,-1.9495,-1.9374,-1.9305,-1.9305,-1.9448]},{"header":{"parameterUnit":"m.s-1","parameterCategory":1,"la1":30.6,"la2":29.2853,"lo1":-89.7004,"lo2":-87.6739,"dy":0.0162,"dx":0.0183,"nx":112,"ny":82,"refTime":"2024-07-03T12:00:00:Z","depth":0,"parameterNumber":3,"parameterNumberName":"V-component_of_WINDS"},"data":[0.0,0.0,0.0,0.0,0.0,0.0,0.0,0.0,0.0,0.0,0.0,0.0,0.0,0.0,0.0,0.0,0.0,0.0,0.0,0.0,0.0,0.0,0.0,0.0,0.0,0.0,0.0,0.0,0.0,0.0,0.0,0.0,0.0,0.0,0.0,0.0,0.0,0.0,0.0,0.0,0.0,0.0,0.0,0.0,0.0,0.0,0.0,0.0,0.0,0.0,0.0,0.0,0.0,0.0,0.0,0.0,0.0,0.0,0.0,0.0,0.0,0.0,0.0,0.0,0.0,0.0,0.0,0.0,0.0,0.0,0.0,0.0,0.0,0.0,0.0,0.0,0.0,0.0,0.0,0.0,0.0,0.0,0.0,0.0,0.0,0.0,0.0,0.0,0.0,0.0,0.3176,0.2286,-0.0445,-0.2175,-0.2175,-0.4216,-0.5867,-0.6686,0.0,0.0,0.0,0.0,0.0,0.0,0.0,0.0,0.0,0.0,0.0,0.0,0.0,0.0,0.0,0.0,0.0,0.0,0.0,0.0,0.0,0.0,0.0,0.0,0.0,0.0,0.0,0.0,0.0,0.0,0.0,0.0,0.0,0.0,0.0,0.0,0.0,0.0,0.0,0.0,0.0,0.0,0.0,0.0,0.0,0.0,0.0,0.0,0.0,0.0,0.0,0.0,0.0,0.0,0.0,0.0,0.0,0.0,0.0,0.0,0.0,0.0,0.0,0.0,0.0,0.0,0.0,0.0,0.0,0.0,0.0,0.0,0.0,0.0,0.0,0.0,0.0,0.0,0.0,0.0,0.0,0.0,0.0,0.0,0.0,0.0,0.0,0.0,0.0,0.0,0.0,0.0,0.0,0.0,0.0,0.0,0.0,0.0,0.0,0.0,0.0,0.0,0.0,0.0,0.3789,0.2342,-0.0445,-0.2175,-0.2175,-0.4216,-0.6072,-0.7346,0.0,0.0,0.0,0.0,0.0,0.0,0.0,0.0,0.0,0.0,0.0,0.0,0.0,0.0,0.0,0.0,0.0,0.0,0.0,0.0,0.0,0.0,0.0,0.0,0.0,0.0,0.0,0.0,0.0,0.0,0.0,0.0,0.0,0.0,0.0,0.0,0.0,0.0,0.0,0.0,0.0,0.0,0.0,0.0,0.0,0.0,0.0,0.0,0.0,0.0,0.0,0.0,0.0,0.0,0.0,0.0,0.0,0.0,0.0,0.0,0.0,0.0,0.0,0.0,0.0,0.0,0.0,0.0,0.0,0.0,0.0,0.0,0.0,0.0,0.0,0.0,0.0,0.0,0.0,0.0,0.0,0.0,0.0,0.0,0.0,0.0,0.0,0.0,0.0,0.0,0.0,0.0,0.0,0.0,0.0,0.0,0.0,0.0,0.0,0.0,0.0,0.0,0.0,0.2894,0.2672,0.1169,-0.0891,-0.2506,-0.3331,-0.5039,-0.6673,-0.8091,-0.8605,0.0,0.0,0.0,0.0,0.0,0.0,0.0,0.0,0.0,0.0,0.0,0.0,0.0,0.0,0.0,0.0,0.0,0.0,0.0,0.0,0.0,0.0,0.0,0.0,0.0,0.0,0.0,0.0,0.0,0.0,0.0,0.0,0.0,0.0,0.0,0.0,0.0,0.0,0.0,0.0,0.0,0.0,0.0,0.0,0.0,0.0,0.0,0.0,0.0,0.0,0.0,0.0,0.0,0.0,0.0,0.0,0.0,0.0,0.0,0.0,0.0,0.0,0.0,0.0,0.0,0.0,0.0,0.0,0.0,0.0,0.0,0.0,0.0,0.0,0.0,0.0,0.0,0.0,0.0,0.0,0.0,0.0,0.0,0.0,0.0,0.0,0.0,0.0,0.0,0.0,0.0,0.0,0.0,0.0,0.0,0.0,0.0,0.0,0.0,0.0,0.0,0.0,0.2285,0.1225,0.0111,-0.1503,-0.3003,-0.4316,-0.5753,-0.727,-0.8825,-0.9308,0.0,0.0,0.0,0.0,0.0,0.0,0.0,0.0,0.0,0.0,0.0,0.0,0.0,0.0,0.0,0.0,0.0,0.0,0.0,0.0,0.0,0.0,0.0,0.0,0.0,0.0,0.0,0.0,0.0,0.0,0.0,0.0,0.0,0.0,0.0,0.0,0.0,0.0,0.0,0.0,0.0,0.0,0.0,0.0,0.0,0.0,0.0,0.0,0.0,0.0,0.0,0.0,0.0,0.0,0.0,0.0,0.0,0.0,0.0,0.0,0.0,0.0,0.0,0.0,0.0,0.0,0.0,0.0,0.0,0.0,0.0,0.0,0.0,0.0,0.0,0.0,0.0,0.0,0.0,0.0,0.0,0.0,0.0,0.0,0.0,0.0,0.0,0.0,0.0,0.0,0.0,0.0,0.0,0.0,0.0,0.0,0.0,0.0,0.0,0.0,0.0,0.0,0.1057,0.0111,0.0,-0.2002,-0.3615,-0.4316,-0.5753,-0.7472,-0.9475,-0.954,0.0,0.0,0.0,0.0,0.0,0.0,0.0,0.0,0.0,0.0,0.0,0.0,0.0,0.0,0.0,0.0,0.0,0.0,0.0,0.0,0.0,0.0,0.0,0.0,0.0,0.0,0.0,0.0,0.0,0.0,0.0,0.0,0.0,0.0,0.0,0.0,0.0,0.0,0.0,0.0,0.0,0.0,0.0,0.0,0.0,0.0,0.0,0.0,0.0,0.0,0.0,0.0,0.0,0.0,0.0,0.0,0.0,0.0,0.0,0.0,0.0,0.0,0.0,0.0,0.0,0.0,0.0,0.0,0.0,0.0,0.0,0.0,0.0,0.0,0.0,0.0,0.0,0.0,0.0,0.0,0.0,0.0,0.0,0.0,0.0,0.0,0.0,0.0,0.0,0.0,0.0,0.0,0.0,0.0,0.0,0.0,0.0,0.0,0.0,0.0,0.0,0.0,0.0613,-0.0334,-0.128,-0.2942,-0.4488,-0.5697,-0.6686,-0.8047,-0.9879,0.0,0.0,0.0,0.0,0.0,0.0,0.0,0.0,0.0,0.0,0.0,0.0,0.0,0.0,0.0,0.0,0.0,0.0,0.0,0.0,0.0,0.0,0.0,0.0,0.0,0.0,0.0,0.0,0.0,0.0,0.0,0.0,0.0,0.0,0.0,0.0,0.0,0.0,0.0,0.0,0.0,0.0,0.0,0.0,0.0,0.0,0.0,0.0,0.0,0.0,0.0,0.0,0.0,0.0,0.0,0.0,0.0,0.0,0.0,0.0,0.0,0.0,0.0,0.0,0.0,0.0,0.0,0.0,0.0,0.0,0.0,0.0,0.0,0.0,0.0,0.0,0.0,0.0,0.0,0.0,0.0,0.0,0.0,0.0,0.0,0.0,0.0,0.0,0.0,0.0,0.0,0.0,0.0,0.0,0.0,0.0,0.0,0.0,0.0,0.0,0.0,0.0,0.0558,-0.0111,-0.1058,-0.2119,-0.3555,-0.5041,-0.6477,-0.7001,-0.8065,-1.0056,0.0,0.0,0.0,0.0,0.0,0.0,0.0,0.0,0.0,0.0,0.0,0.0,0.0,0.0,0.0,0.0,0.0,0.0,0.0,0.0,0.0,0.0,0.0,0.0,0.0,0.0,0.0,0.0,0.0,0.0,0.0,0.0,0.0,0.0,0.0,0.0,0.0,0.0,0.0,0.0,0.0,0.0,0.0,0.0,0.0,0.0,0.0,0.0,0.0,0.0,0.0,0.0,0.0,0.0,0.0,0.0,0.0,0.0,0.0,0.0,0.0,0.0,0.0,0.0,0.0,0.0,0.0,0.0,0.0,0.0,0.0,0.0,0.0,0.0,0.0,0.0,0.0,0.0,0.0,0.0,0.0,0.0,0.0,0.0,0.0,0.0,0.0,0.0,0.0,0.0,0.0,0.0,0.0,0.0,0.0,0.0,0.0,0.0,0.0,0.0,0.0,0.0,-0.0167,-0.1285,-0.2231,-0.2231,-0.3622,-0.506,-0.6475,-0.637,-0.7333,0.0,0.0,0.0,0.0,0.0,0.0,0.0,0.0,0.0,0.0,0.0,0.0,0.0,0.0,0.0,0.0,0.0,0.0,0.0,0.0,0.0,0.0,0.0,0.0,0.0,0.0,0.0,0.0,0.0,0.0,0.0,0.0,0.0,0.0,0.0,0.0,0.0,0.0,0.0,0.0,0.0,0.0,0.0,0.0,0.0,0.0,0.0,0.0,0.0,0.0,0.0,0.0,0.0,0.0,0.0,0.0,0.0,0.0,0.0,0.0,0.0,0.0,0.0,0.0,0.0,0.0,0.0,0.0,0.0,0.0,0.0,0.0,0.0,0.0,0.0,0.0,0.0,0.0,0.0,0.0,0.0,0.0,0.0,0.0,0.0,0.0,0.0,0.0,0.0,0.0,0.0,0.0,0.0,0.0,0.0,0.0,0.0,0.0,0.0,0.0,0.0,0.0,0.0,-0.1612,-0.1953,-0.2398,-0.301,-0.4613,-0.587,-0.629,-0.7004,-0.798,-0.9318,0.0,0.0,0.0,0.0,0.0,0.0,0.0,0.0,0.0,0.0,0.0,0.0,0.0,0.0,0.0,0.0,0.0,0.0,0.0,0.0,0.0,0.0,0.0,0.0,0.0,0.0,0.0,0.0,0.0,0.0,0.0,0.0,0.0,0.0,0.0,0.0,0.0,0.0,0.0,0.0,0.0,0.0,0.0,0.0,0.0,0.0,0.0,0.0,0.0,0.0,0.0,0.0,0.0,0.0,0.0,0.0,0.0,0.0,0.0,0.0,0.0,0.0,0.0,0.0,0.0,0.0,0.0,0.0,0.0,0.0,0.0,0.0,0.0,0.0,0.0,0.0,0.0,0.0,0.0,0.0,0.0,0.0,0.0,0.0,0.0,0.0,0.0,0.0,0.0,0.0,0.0,0.0,0.0,0.0,0.0,0.0,0.0,0.0,0.0,0.0,0.0,0.0,-0.2217,-0.2175,-0.2509,-0.3289,-0.4784,-0.5883,-0.6189,-0.6895,-0.774,-0.8707,0.0,0.0,0.0,0.0,0.0,0.0,0.0,0.0,0.0,0.0,0.0,0.0,0.0,0.0,0.0,0.0,0.0,0.0,0.0,0.0,0.0,0.0,0.0,0.0,0.0,0.0,0.0,0.0,0.0,0.0,0.0,0.0,0.0,0.0,0.0,0.0,0.0,0.0,0.0,0.0,0.0,0.0,0.0,0.0,0.0,0.0,0.0,0.0,0.0,0.0,0.0,0.0,0.0,0.0,0.0,0.0,0.0,0.0,0.0,0.0,0.0,0.0,0.0,0.0,0.0,0.0,0.0,0.0,0.0,0.0,0.0,0.0,0.0,0.0,0.0,0.0,0.0,0.0,0.0,0.0,0.0,0.0,0.0,0.0,0.0,0.0,0.0,0.0,0.0,0.0,0.0,0.0,0.0,0.0,0.0,0.0,0.0,0.0,0.0,0.0,0.0,0.0,-0.2433,-0.2342,-0.2565,-0.3343,-0.4458,-0.5446,-0.6105,-0.6329,-0.6959,-0.8176,0.0,0.0,0.0,0.0,0.0,0.0,0.0,0.0,0.0,0.0,0.0,0.0,0.0,0.0,0.0,0.0,0.0,0.0,0.0,0.0,0.0,0.0,0.0,0.0,0.0,0.0,0.0,0.0,0.0,0.0,0.0,0.0,0.0,0.0,0.0,0.0,0.0,0.0,0.0,0.0,0.0,0.0,0.0,0.0,0.0,0.0,0.0,0.0,0.0,0.0,0.0,0.0,0.0,0.0,0.0,0.0,0.0,0.0,0.0,0.0,-1.0279,-1.0988,0.0,0.0,0.0,0.0,0.0,0.0,0.0,0.0,0.0,0.0,0.0,0.0,0.0,0.0,0.0,0.0,0.0,0.0,0.0,0.0,0.0,0.0,0.0,0.0,0.0,0.0,0.0,0.0,0.0,0.0,0.0,0.0,0.0,0.0,0.0,0.0,0.0,0.0,0.0,0.0,-0.3992,-0.3456,-0.3345,-0.4182,-0.5091,-0.5738,-0.5886,-0.6492,-0.7199,-0.7933,-0.8438,0.0,0.0,0.0,0.0,0.0,0.0,0.0,0.0,0.0,0.0,0.0,0.0,0.0,0.0,0.0,0.0,0.0,0.0,0.0,0.0,0.0,0.0,0.0,0.0,0.0,0.0,0.0,0.0,0.0,0.0,0.0,0.0,0.0,0.0,0.0,0.0,0.0,0.0,0.0,0.0,0.0,0.0,0.0,0.0,0.0,0.0,0.0,0.0,0.0,0.0,0.0,0.0,0.0,0.0,0.0,0.0,0.0,0.0,0.0,-1.0905,-1.1579,0.0,0.0,0.0,0.0,0.0,0.0,0.0,0.0,0.0,0.0,0.0,0.0,0.0,0.0,0.0,0.0,0.0,0.0,0.0,0.0,0.0,0.0,0.0,0.0,0.0,0.0,0.0,0.0,0.0,0.0,0.0,0.0,0.0,0.0,0.0,0.0,0.0,0.0,0.0,0.0,-0.5471,-0.482,-0.4652,-0.5441,-0.5976,-0.6302,-0.6302,-0.6725,-0.715,-0.7447,-0.7987,0.0,0.0,0.0,0.0,0.0,0.0,0.0,0.0,0.0,0.0,0.0,0.0,0.0,0.0,0.0,0.0,0.0,0.0,0.0,0.0,0.0,0.0,0.0,0.0,0.0,0.0,0.0,0.0,0.0,0.0,0.0,0.0,0.0,0.0,0.0,0.0,0.0,0.0,0.0,0.0,0.0,0.0,0.0,0.0,0.0,0.0,0.0,0.0,0.0,0.0,0.0,0.0,0.0,-1.0569,-1.0582,-1.0809,-1.0704,-1.1076,-1.1801,-1.1811,-1.2277,-1.3019,-1.3794,0.0,0.0,0.0,0.0,0.0,0.0,0.0,0.0,0.0,0.0,0.0,0.0,0.0,0.0,0.0,0.0,0.0,0.0,0.0,0.0,0.0,0.0,-1.781,-1.7824,-1.7751,-1.7518,-1.6764,0.0,0.0,0.0,0.0,0.0,0.0,0.0,0.0,0.0,0.0,0.0,-0.6612,-0.6067,-0.5898,-0.6529,-0.6736,-0.6781,-0.6781,-0.6906,-0.6979,-0.6979,-0.7576,-0.8118,0.0,0.0,0.0,0.0,0.0,0.0,0.0,0.0,0.0,0.0,0.0,0.0,0.0,0.0,0.0,0.0,0.0,0.0,0.0,0.0,0.0,0.0,0.0,0.0,0.0,0.0,0.0,0.0,0.0,0.0,0.0,0.0,-0.4219,-0.5781,0.0,0.0,0.0,0.0,0.0,0.0,0.0,0.0,0.0,0.0,0.0,0.0,0.0,-0.8957,-0.9814,-1.0364,-1.0712,-1.0813,-1.0768,-1.0772,-1.0813,-1.1364,-1.1675,-1.1841,-1.2989,0.0,-1.3763,-1.4898,0.0,0.0,0.0,0.0,0.0,0.0,0.0,0.0,0.0,0.0,0.0,0.0,0.0,0.0,0.0,0.0,0.0,0.0,0.0,0.0,0.0,0.0,-1.9844,-1.9905,-1.9581,-1.889,-1.7404,-1.6393,-1.565,-1.5531,-1.4591,-1.3798,0.0,0.0,0.0,0.0,0.0,0.0,-0.674,-0.6529,-0.6473,-0.6588,-0.6736,-0.6781,-0.6781,-0.6906,-0.6979,-0.6979,-0.7576,-0.7912,-0.7995,-0.8565,0.0,0.0,0.0,0.0,0.0,0.0,0.0,0.0,0.0,0.0,0.0,0.0,0.0,0.0,0.0,0.0,0.0,0.0,0.0,0.0,0.0,0.0,0.0,0.0,0.0,0.0,0.0,0.0,0.0,-0.3112,-0.4681,-0.6069,-0.8266,-0.9418,0.0,0.0,0.0,0.0,0.0,0.0,0.0,0.0,0.0,-0.7179,-0.8165,-0.9256,-1.0364,-1.1015,-1.1575,-1.1994,-1.1994,-1.1994,-1.1999,-1.2295,-1.2584,-1.3006,-1.3904,-1.4503,-1.4858,-1.5359,-1.584,-1.6176,0.0,0.0,0.0,0.0,-1.2131,-1.0225,-0.833,-0.6722,-0.5664,-0.6622,0.0,0.0,0.0,0.0,0.0,0.0,0.0,-2.0866,-2.1108,-2.105,-2.0855,-2.0653,-1.9835,-1.8785,-1.7491,-1.6102,-1.5005,-1.4635,-1.4185,-1.3684,-1.3329,-1.2472,0.0,0.0,0.0,-0.9117,-0.8491,-0.8087,-0.783,-0.783,-0.761,-0.743,-0.743,-0.714,-0.6979,-0.6979,-0.7234,-0.7534,-0.7874,-0.8447,-0.9094,0.0,0.0,0.0,0.0,0.0,0.0,0.0,0.0,0.0,0.0,0.0,0.0,0.0,0.0,0.0,0.0,0.0,0.0,0.0,0.0,0.0,0.0,0.0,0.0,0.0,0.0,0.0,0.0,-0.3404,-0.4891,-0.6305,-0.8414,-0.951,0.0,0.0,0.0,0.0,0.0,0.0,-0.7723,-0.7182,-0.7233,-0.7922,-0.8793,-0.982,-1.1065,-1.1724,-1.2437,-1.3152,-1.2968,-1.2973,-1.3152,-1.3152,-1.3377,-1.3815,-1.4601,-1.5192,-1.5626,-1.577,-1.6491,-1.7576,-1.7617,-1.774,-1.7702,-1.5705,-1.3377,-1.0856,-0.8835,-0.7222,-0.6294,-0.7788,-1.0388,-1.3521,-1.6424,0.0,0.0,0.0,0.0,-2.24,-2.24,-2.2192,-2.1841,-2.1223,-2.0033,-1.8691,-1.7289,-1.578,-1.4514,-1.3909,-1.3689,-1.342,-1.2973,-1.2452,0.0,-1.1814,-1.0813,-1.0012,-0.9814,-0.9211,-0.8808,-0.8808,-0.8347,-0.8013,-0.7892,-0.7442,-0.7104,-0.7024,-0.6979,-0.7276,-0.7874,-0.8398,-0.8958,-0.9483,0.0,0.0,0.0,0.0,0.0,0.0,0.0,0.0,0.0,0.0,0.0,0.0,0.0,0.0,0.0,0.0,0.0,0.0,0.0,0.0,0.0,0.0,0.0,0.0,0.0,0.0,0.0,0.0,0.0,-0.6431,-0.8482,0.0,0.0,0.0,0.0,-0.8857,-0.8103,-0.7723,-0.7723,-0.767,-0.7972,-0.8629,-0.9978,-1.1007,-1.1765,-1.2456,-1.3142,-1.3726,-1.3152,-1.3195,-1.3726,-1.3726,-1.3774,-1.3862,-1.5039,-1.5582,-1.5632,-1.6238,-1.7138,-1.8259,-1.8243,-1.8949,-1.9668,-1.721,-1.5032,-1.291,-1.0362,-0.8599,-0.7868,-1.0141,-1.4723,-1.9697,-2.1583,-2.2901,0.0,0.0,-2.3755,-2.369,-2.369,-2.3547,-2.3128,-2.2001,-2.0768,-1.9211,-1.6844,-1.546,-1.4514,-1.3909,-1.3329,-1.2925,-1.2934,0.0,-1.2613,-1.1918,-1.1216,-1.0517,-0.9865,-0.9211,-0.8808,-0.8808,-0.8534,-0.8237,-0.7905,-0.7629,-0.7321,-0.7041,-0.6979,-0.7276,-0.7874,-0.8398,-0.8958,-0.9483,-1.0021,0.0,0.0,0.0,0.0,0.0,0.0,0.0,0.0,0.0,0.0,0.0,0.0,0.0,0.0,0.0,0.0,0.0,0.0,0.0,0.0,0.0,0.0,0.0,0.0,0.0,0.0,0.0,0.0,-0.6445,-0.8087,0.0,-0.8808,-0.9008,-0.9057,-0.8808,-0.8537,-0.8504,-0.8683,-0.8931,-0.9274,-0.9739,-1.0822,-1.1562,-1.1814,-1.2909,-1.36,-1.3821,-1.3972,-1.416,-1.4376,-1.4376,-1.4601,-1.5,-1.5398,-1.5814,-1.6232,-1.6782,-1.7472,-1.8222,-1.8561,-1.9142,-1.9586,-1.7637,-1.5643,-1.3621,-1.1626,-1.075,-1.1161,-1.5286,-1.8975,-2.2073,-2.3466,-2.4288,-2.4735,-2.4745,-2.4624,-2.4504,-2.446,-2.4167,-2.3571,-2.2336,-2.0659,-1.8758,-1.6749,-1.5138,-1.392,-1.3329,-1.3065,-1.2881,-1.2881,-1.2881,-1.2822,-1.2559,-1.1529,-1.0712,-1.0462,-0.9462,-0.8808,-0.8808,-0.8547,-0.833,-0.8227,-0.7756,-0.7466,-0.7315,-0.7128,-0.7276,-0.7874,-0.8077,-0.8598,-0.9478,-0.9071,-0.8909,0.0,0.0,0.0,0.0,0.0,0.0,0.0,0.0,0.0,0.0,0.0,0.0,0.0,0.0,0.0,0.0,0.0,0.0,0.0,0.0,0.0,0.0,0.0,0.0,0.0,-0.3818,-0.5316,-0.6779,-0.8046,-0.8808,-0.8808,-0.8808,-0.8808,-0.8808,-0.8898,-0.9143,-0.9604,-0.9994,-1.0513,-1.1227,-1.1896,-1.2263,-1.2387,-1.3458,-1.4021,-1.4097,-1.452,-1.4795,-1.5011,-1.5011,-1.5231,-1.5626,-1.582,-1.6145,-1.6558,-1.7271,-1.7787,-1.8168,-1.8939,-1.9684,-2.0171,-1.8682,-1.6884,-1.4991,-1.3414,-1.3552,-1.5097,-1.9029,-2.1772,-2.372,-2.4686,-2.5137,-2.5326,-2.5323,-2.5223,-2.5082,-2.5018,-2.4598,-2.3821,-2.2371,-2.0481,-1.8441,-1.6466,-1.4835,-1.3642,-1.3017,-1.2881,-1.2881,-1.2881,-1.2881,-1.2881,-1.2881,-1.1688,-1.0813,-1.0813,-0.9614,-0.8808,-0.8808,-0.8634,-0.844,-0.824,-0.7856,-0.7575,-0.7516,-0.7496,-0.7813,-0.8489,-0.8588,-0.8977,-0.9677,-0.8574,-0.8231,-0.8699,0.0,0.0,0.0,0.0,0.0,0.0,0.0,0.0,0.0,0.0,0.0,0.0,0.0,0.0,0.0,0.0,0.0,0.0,0.0,0.0,0.0,0.0,0.0,-0.322,-0.4591,-0.6051,-0.7498,-0.8371,-0.8808,-0.8808,-0.8808,-0.8811,-0.8821,-0.9072,-0.9611,-1.0496,-1.0781,-1.1623,-1.305,-1.315,-1.3222,-1.3511,-1.4113,-1.4505,-1.4703,-1.4703,-1.5056,-1.5632,-1.5632,-1.5632,-1.5676,-1.6238,-1.6515,-1.6595,-1.7626,-1.8059,-1.8208,-1.9434,-2.0621,-2.1535,-2.0295,-1.8735,-1.7017,-1.5672,-1.6889,-1.9318,-2.1011,-2.3033,-2.4886,-2.5364,-2.5552,-2.5595,-2.5596,-2.5547,-2.5493,-2.5412,-2.4885,-2.3922,-2.2098,-2.0259,-1.8324,-1.6003,-1.4602,-1.36,-1.3017,-1.2929,-1.2929,-1.2929,-1.2929,-1.2934,-1.2929,-1.1688,0.0,-1.0813,-0.9614,-0.8808,-0.8808,-0.8808,-0.8577,-0.7958,-0.7902,-0.7816,-0.7557,-0.815,-0.8903,-0.9723,-0.997,-1.0069,-1.006,-0.8726,-0.8157,-0.8451,0.0,0.0,0.0,0.0,0.0,0.0,0.0,0.0,0.0,0.0,0.0,0.0,0.0,0.0,0.0,0.0,0.0,0.0,0.0,0.0,0.0,-0.3052,-0.3878,-0.4093,-0.4932,-0.6051,-0.7498,-0.8371,-0.8808,-0.8808,-0.8808,-0.8895,-0.905,-0.9411,-1.0046,-1.1026,-1.1699,-1.2486,-1.3447,-1.3684,-1.3715,-1.3511,-1.4113,-1.4505,-1.4703,-1.5147,-1.5688,-1.6238,-1.6238,-1.6238,-1.6238,-1.6429,-1.6515,-1.6558,-1.7229,-1.751,-1.7686,-1.917,-2.0258,-2.0817,-1.9611,-1.8325,-1.7297,-1.7915,-1.8889,-2.024,-2.245,-2.3934,-2.495,-2.5372,-2.5554,-2.5609,-2.5657,-2.5623,-2.5523,-2.5304,-2.4608,-2.3432,-2.1334,-1.929,-1.7274,-1.5292,-1.3966,-1.3109,-1.2925,-1.3238,-1.3552,-1.3552,-1.3195,-1.306,-1.351,-1.1958,-1.0813,-1.0813,-0.9614,-0.8808,-0.8808,-0.8808,-0.8741,-0.8581,-0.8373,-0.8452,-0.8827,-0.8835,-0.9283,-1.0467,-1.0139,-0.9649,-0.896,-0.8666,-0.8272,0.0,0.0,0.0,0.0,0.0,0.0,0.0,0.0,0.0,0.0,0.0,0.0,0.0,0.0,0.0,0.0,0.0,0.0,0.0,0.0,0.0,0.0,-0.4709,-0.5416,-0.574,-0.6169,-0.6878,-0.8043,-0.8537,-0.8854,-0.8978,-0.93,-0.9531,-0.9656,-1.0502,-1.1285,-1.2024,-1.265,-1.3323,-1.4077,-1.4083,-1.3936,-1.3511,-1.4362,-1.4746,-1.4703,-1.5555,-1.6145,-1.6515,-1.6515,-1.6515,-1.6479,-1.6238,-1.6139,-1.6139,-1.6427,-1.6682,-1.7072,0.0,0.0,0.0,0.0,-1.8629,-1.8373,-1.9162,-2.0045,-2.1154,-2.2865,-2.4046,-2.4883,-2.526,-2.5478,-2.5608,-2.5682,-2.5593,-2.5359,-2.4869,-2.375,-2.2245,-2.0199,-1.8036,-1.6071,-1.4592,-1.3532,-1.2968,-1.3238,-1.3552,0.0,-1.4457,-1.4055,-1.37,-1.3779,-1.2278,-1.1099,-1.0813,-0.9614,-0.8808,-0.8808,-0.8808,-0.8758,-0.8637,-0.847,0.0,0.0,0.0,-1.0068,-1.1331,-1.0573,0.0,0.0,0.0,0.0,0.0,-0.8029,0.0,0.0,-0.8365,-0.7924,0.0,0.0,0.0,0.0,0.0,0.0,0.0,0.0,0.0,0.0,0.0,0.0,0.0,0.0,0.0,0.0,-0.6617,-0.6966,-0.7616,-0.7827,-0.82,-0.885,-0.8906,-0.9061,-0.9378,-1.0092,-1.0478,-1.0412,-1.1756,-1.2758,-1.3113,-1.3494,0.0,0.0,0.0,-1.4004,-1.3682,-1.468,-1.5079,-1.4789,-1.5882,-1.6423,-1.6515,-1.6429,-1.638,-1.6374,-1.5776,-1.5499,-1.5487,-1.544,-1.5748,-1.6342,-1.7713,-1.8475,-1.8824,-1.8972,-1.9235,-1.9544,-1.9636,0.0,0.0,-2.2632,-2.3656,-2.4628,-2.5059,-2.535,-2.5546,-2.5593,-2.5386,-2.4949,-2.4023,-2.2453,-2.0624,-1.8711,-1.6652,-1.4887,-1.3919,-1.3329,-1.3152,-1.3684,-1.3909,-1.4318,-1.5404,-1.5101,-1.4514,-1.3956,-1.2653,-1.1468,-1.0859,-0.9614,-0.8808,-0.8808,-0.8808,0.0,-0.8447,-0.8424,-0.8762,-0.9532,-1.0254,-1.1176,-1.2253,-1.108,-1.0217,-0.9806,-0.8609,-0.8143,-0.8424,-0.8407,-0.8554,-0.8794,-0.8273,-0.7767,0.0,0.0,0.0,0.0,0.0,0.0,0.0,0.0,0.0,0.0,0.0,0.0,0.0,0.0,0.0,-0.6653,-0.7095,-0.756,-0.767,-0.8666,-0.9451,-0.9614,-0.9614,-0.9836,-1.0407,-1.0617,-1.0837,-1.1079,-1.1993,-1.2815,-1.3483,-1.4167,-1.4767,-1.5278,-1.4878,-1.4725,-1.48,-1.465,-1.4878,-1.541,-1.5676,0.0,-1.6472,-1.6008,-1.577,-1.5726,-1.5152,-1.4875,-1.4875,-1.4869,-1.4909,-1.5305,-1.7887,-1.8648,-1.8358,-1.9334,-1.9152,-1.8566,-1.9763,-2.0268,-2.0638,-2.2331,-2.324,-2.385,-2.4828,-2.5161,0.0,-2.5019,-2.4629,-2.3878,-2.2263,-2.0855,-1.9233,-1.6818,-1.5484,-1.4427,-1.3314,-1.3372,-1.3642,-1.3774,-1.4589,-1.5315,-1.5543,-1.5101,-1.4658,-1.456,-1.2931,-1.1468,-1.0859,-0.9614,-0.8808,-0.8808,-0.8808,-0.8784,-0.8728,-0.8724,-0.9224,-1.0463,-1.1733,-1.2503,-1.2754,-1.1473,-1.0594,-1.0281,-0.9202,-0.855,-0.8424,-0.8611,-0.8754,-0.8804,-0.8691,-0.8244,0.0,0.0,0.0,0.0,0.0,0.0,0.0,0.0,0.0,0.0,0.0,-0.8698,-0.8139,0.0,-0.8346,-0.7806,-0.7996,-0.8365,-0.8718,-0.9343,-0.9814,-0.9814,-1.0115,-1.0482,-1.1021,-1.109,-1.1329,-1.179,-1.2649,-1.3351,-1.383,-1.4234,-1.4658,-1.5088,-1.4839,-1.4846,-1.5159,-1.562,-1.5923,-1.6019,-1.632,-1.632,-1.6051,-1.5726,-1.5252,-1.4636,-1.4007,-1.3533,-1.3223,-1.3223,-1.3588,-1.441,-1.617,-1.6989,-1.7422,-1.8888,-1.8857,-1.8288,-1.9543,-2.0039,-2.0323,-2.1728,-2.2647,-2.334,-2.412,-2.4285,-2.4132,-2.3786,-2.3022,-2.1941,-2.0408,-1.8807,-1.7192,-1.5556,-1.444,-1.3611,-1.3012,-1.3157,-1.351,-1.4143,-1.4738,-1.5326,-1.5958,-1.5782,-1.5389,-1.4789,-1.325,-1.1724,-1.0418,-0.9072,-0.8265,-0.8265,-0.8265,-0.8374,-0.8755,-0.911,-0.9714,-1.0767,-1.1484,-1.1994,-1.2349,-1.1023,-1.0234,-1.0115,-0.9234,-0.8734,-0.8591,-0.8734,-0.8808,-0.8808,-0.8808,-0.859,0.0,0.0,0.0,0.0,0.0,0.0,0.0,-0.8383,-0.8653,-0.8653,-0.9384,-0.9814,-0.9312,-0.961,-0.9762,-0.911,-0.911,-0.9309,-0.9766,-1.0012,-1.0167,-1.0167,-1.0665,-1.1137,-1.1548,-1.1574,-1.1735,-1.2173,-1.305,-1.3599,-1.3758,-1.4058,-1.4424,-1.4775,-1.4815,-1.5049,-1.5519,-1.6711,-1.7105,-1.6761,-1.7134,-1.6794,-1.5736,-1.54,-1.4521,-1.325,-1.2574,-1.1959,-1.1468,-1.1789,-1.2683,-1.394,-1.4777,-1.5817,-1.7059,-1.8273,-1.8458,-1.8256,-1.942,-1.9919,-2.0239,-2.1269,-2.216,-2.2922,-2.3319,-2.3292,-2.2932,-2.2272,-2.1199,-1.985,-1.8261,-1.6587,-1.5088,-1.4229,-1.3353,-1.272,-1.2876,-1.2973,-1.3382,-1.4474,-1.4789,-1.5197,-1.6287,-1.6423,-1.597,-1.488,-1.357,-1.1976,-0.9972,-0.8531,-0.7723,-0.7723,-0.7723,-0.7993,-0.8755,-0.9409,-1.0012,-1.0564,-1.0716,-1.1065,-1.1566,-1.0415,-0.9707,-0.9599,-0.8945,-0.8537,-0.8374,-0.8537,-0.859,-0.859,-0.8752,-0.8808,-1.1235,-0.9453,-0.7917,-0.7782,-0.7735,-0.7835,0.0,-0.9186,-0.9658,-0.9658,-1.0191,-1.0665,-1.0614,-1.0665,-1.0466,-0.9814,-1.0167,-1.0415,-0.9862,-1.0817,-1.1566,-1.1566,-1.1665,-1.1945,-1.2635,-1.2153,-1.1782,-1.1837,-1.2371,-1.2673,-1.2679,-1.3967,-1.4731,-1.4785,-1.5422,-1.6015,-1.6605,-1.7047,-1.7557,-1.8003,-1.743,-1.6842,-1.6243,-1.4713,-1.3266,-1.1893,-1.0905,-1.0496,-1.0662,-1.2146,-1.3234,-1.4157,-1.6094,-1.7588,-1.8682,-1.8316,-1.8138,-1.8281,-1.9735,-1.9981,-1.9928,-2.1518,-2.2107,-2.2284,-2.281,-2.2623,-2.1952,-2.0656,-1.9592,-1.818,-1.5435,-1.4266,-1.3553,-1.2401,-1.2003,-1.208,-1.2769,-1.3329,-1.3915,-1.4566,-1.5141,-1.5726,-1.638,-1.6058,-1.5454,-1.4789,-1.357,-1.1976,-0.9972,-0.8531,-0.7723,-0.7723,-0.7723,-0.7993,-0.8755,-0.9409,-0.9814,-0.9917,-1.0462,-1.0813,-1.0918,-1.0214,-0.9488,-0.8839,-0.8187,-0.7506,-0.6858,-0.7506,-0.7833,-0.783,-0.848,-0.8808,-0.8721,-0.7049,-0.6049,-0.7385,-0.7399,-0.7447,-0.9044,-0.9614,-0.9913,-1.0316,-1.1253,-1.1747,-1.096,-1.1453,-1.1598,-1.0564,-1.0614,-1.0864,-1.0969,-1.1466,-1.1972,-1.2398,-1.225,-1.2144,-1.226,-1.1625,-1.1216,-1.1216,-1.1268,-1.1794,-1.2779,-1.3437,-1.4231,-1.5132,-1.6037,-1.6773,-1.7265,-1.8283,-1.8555,-1.8204,-1.7787,-1.6918,-1.5719,-1.4389,-1.2565,-1.0288,-0.8949,-0.8832,-0.9547,-1.0533,-1.238,-1.4725,-1.6341,-1.8396,-2.0315,-1.9717,-1.9509,-1.9604,-2.0433,-2.0536,-2.0465,-2.1478,-2.1816,-2.1782,-2.1705,-2.0934,-1.9832,-1.8627,-1.7038,-1.5314,-1.3807,-1.2694,-1.1943,-1.185,-1.1814,-1.1976,-1.272,-1.3109,-1.3563,-1.452,-1.492,-1.5371,-1.6337,-1.6002,-1.541,-1.4789,-1.3207,-1.1518,-0.9929,-0.8531,-0.7723,-0.7723,-0.8103,-0.848,-0.8755,-0.9057,-0.9361,-0.9762,-0.9714,-0.9599,-0.9566,-0.8911,-0.8234,-0.7481,-0.7227,-0.6912,-0.6588,-0.6912,-0.7289,-0.7723,-0.7993,-0.8371,-0.6023,-0.4929,-0.465,-0.6845,-0.702,-0.7173,-0.9287,-0.9965,-1.0316,-1.1157,-1.241,-1.3032,-1.2029,-1.2648,-1.2787,-1.129,-1.1057,-1.1116,-1.1212,-1.1416,-1.1724,-1.2255,-1.2057,-1.1731,-1.1443,-1.097,-1.0621,-1.0521,-1.0484,-1.1112,-1.2572,-1.3022,-1.3858,-1.5215,-1.6465,-1.7334,-1.7627,-1.9044,-1.9415,-1.865,-1.8085,-1.7116,-1.5681,-1.3561,-1.1291,-0.8962,-0.7529,-0.7512,-0.8694,-0.9963,-1.2369,-1.5472,-1.7377,-1.9791,-2.2101,-2.1576,-2.1201,-2.0944,-2.111,-2.103,-2.0942,-2.1436,-2.1521,-2.1313,-2.067,-1.9481,-1.8152,-1.6986,-1.5104,-1.3204,-1.2459,-1.1399,-1.0712,-1.1362,-1.1512,-1.1774,-1.272,-1.2881,-1.3205,-1.4242,-1.4474,-1.4789,-1.5838,-1.5505,-1.4954,-1.4514,-1.2898,-1.131,-1.0132,-0.8832,-0.7975,-0.7975,-0.8623,-0.9159,-0.9361,-0.9159,-0.926,-0.9766,-0.9159,-0.8682,-0.8429,-0.7975,-0.7233,-0.6312,-0.6312,-0.6204,-0.6043,-0.6204,-0.6691,-0.7399,-0.7616,-0.8103,-0.339,-0.3399,-0.3949,-0.6091,-0.6642,-0.7173,-0.9287,-1.0316,-1.1157,-1.2478,-1.3715,-1.4557,-1.4589,-1.4539,-1.3916,-1.1983,-1.1738,-1.1312,-1.0064,-1.0415,-1.0864,-1.0864,-1.0876,-1.0717,-1.037,-1.035,-1.0161,-0.9836,-1.0124,-1.0686,-1.1485,-1.2848,-1.3968,-1.48,-1.6609,-1.7561,-1.7578,-1.9044,-1.9786,-1.9754,-1.8305,-1.7407,-1.6785,-1.1886,-0.904,-0.7991,-0.6895,-0.7053,-0.8259,-1.1387,-1.4005,-1.641,-1.9885,-2.2424,-2.4058,-2.3735,-2.293,-2.2011,-2.1706,-2.1337,-2.1055,-2.1469,-2.1346,-2.0854,-1.9931,-1.8803,-1.7502,-1.5967,-1.422,-1.2517,-1.1208,-1.0364,-1.0016,-1.0661,-1.0813,-1.1225,-1.2618,-1.2881,-1.306,-1.3689,-1.3821,-1.4003,-1.4652,-1.4231,-1.3868,-1.3821,-1.2691,-1.1539,-1.0847,-0.9537,-0.8682,-0.8682,-0.9332,-1.0012,-1.0665,-1.0167,-0.9762,-0.9814,-0.9159,-0.848,-0.7777,-0.772,-0.7012,-0.5542,-0.554,-0.5218,-0.4572,-0.5218,-0.5925,-0.6642,-0.7345,-0.8103,-0.3016,-0.2958,-0.3226,-0.5923,-0.6945,-0.7829,-0.999,-1.1349,-1.2459,-1.3762,-1.4953,-1.5692,-1.5306,-1.5194,-1.458,-1.2734,-1.2092,-1.1466,-1.0568,-1.0665,-1.0813,-1.0813,-1.0771,-1.0638,-1.0318,-1.0113,-0.991,-0.9743,-0.9489,-1.0015,-1.1688,-1.2299,-1.3296,-1.477,-1.6135,-1.709,-1.7578,-1.8555,-1.8963,-1.8737,-1.723,-1.5532,-1.3552,-1.1776,-1.0093,-0.8493,-0.7751,-0.8326,-0.9838,-1.2362,-1.5224,-1.8389,-2.1377,-2.3366,-2.456,-2.4323,-2.3509,-2.2409,-2.1798,-2.1521,-2.1376,-2.1244,-2.0886,-2.0359,-1.936,-1.7997,-1.6449,-1.4789,-1.2921,-1.1253,-1.0364,-0.9666,-0.9312,-0.9965,-1.0466,-1.1065,-1.1981,-1.2559,-1.306,-1.3684,-1.3821,-1.4003,-1.4612,-1.419,-1.3642,-1.3238,-1.2374,-1.1557,-1.0893,-1.0387,-1.0084,-1.0084,-1.0305,-1.0564,-1.0767,-1.0167,-0.9814,-0.9814,-0.9159,-0.8265,-0.702,-0.6966,-0.6312,-0.484,-0.4842,-0.4732,-0.4517,-0.4732,-0.5441,-0.6588,-0.6858,-0.7868,-0.2536,-0.2956,-0.3551,-0.5977,-0.7312,-0.8551,-1.0624,-1.2148,-1.3517,-1.4947,-1.6028,-1.6524,-1.591,-1.5437,-1.4558,-1.2686,-1.1423,-1.0481,-0.9784,-0.9467,-0.9343,-0.9401,-0.9629,-0.978,-0.974,-0.9756,-0.9756,-0.9714,-0.9429,-1.0039,-1.1822,-1.2099,-1.3024,-1.4775,-1.5756,-1.6615,-1.7316,-1.8247,-1.844,-1.7953,-1.645,-1.4547,-1.2245,-1.1582,-1.0433,-0.895,-0.8587,-0.9212,-1.0715,-1.3436,-1.6375,-1.9411,-2.2323,-2.4037,-2.4766,-2.4412,-2.3621,-2.2599,-2.1867,-2.1391,-2.1094,-2.0821,-2.0457,-1.9899,-1.8858,-1.7518,-1.5997,-1.4477,-1.2459,-1.0716,-1.0265,-0.9462,-0.8959,-0.9666,-1.0312,-1.0965,-1.1665,-1.2398,-1.3017,-1.342,-1.3462,-1.36,-1.3978,-1.3742,-1.3329,-1.2973,-1.2505,-1.1931,-1.1266,-1.1166,-1.1166,-1.1166,-1.117,-1.1279,-1.1538,-1.0669,-1.0167,-1.0167,-0.9312,-0.8265,-0.702,-0.675,-0.6041,-0.4895,-0.4625,-0.4517,-0.4517,-0.4517,-0.5226,-0.6588,-0.6845,-0.7953,-0.1995,-0.3199,-0.468,-0.6232,-0.7664,-0.9213,-1.1293,-1.2762,-1.4195,-1.6046,-1.6818,-1.7014,-1.6451,-1.5313,-1.3811,-1.192,-0.9987,-0.8478,-0.7717,-0.702,-0.6661,-0.6867,-0.7652,-0.8316,-0.8728,-0.9317,-0.9671,-0.9726,-0.9953,-1.061,-1.1884,-1.2221,-1.311,-1.4729,-1.5485,-1.6186,-1.6827,-1.8066,-1.824,-1.7418,-1.5961,-1.44,-1.283,-1.1286,-1.0119,-0.9375,-0.9328,-0.9822,-1.0957,-1.4649,-1.7361,-1.9479,-2.2867,-2.4403,-2.4697,-2.4083,-2.3341,-2.2528,-2.1798,-2.0999,-2.0314,-2.028,-1.9992,-1.9486,-1.8419,-1.7282,-1.6052,-1.4977,-1.2807,-1.0813,-1.0767,-0.9762,-0.8959,-0.9614,-1.0265,-1.0965,-1.1611,-1.2349,-1.2881,-1.2881,-1.2881,-1.2881,-1.2881,-1.2881,-1.2881,-1.2881,-1.2881,-1.2662,-1.1972,-1.1868,-1.1868,-1.1868,-1.1841,-1.2166,-1.2832,-1.1638,-1.0864,-1.0864,-0.9614,-0.853,-0.7774,-0.7071,-0.631,-0.5542,-0.4895,-0.4517,-0.4517,-0.4517,-0.5226,-0.664,-0.7304,-0.841,-0.156,-0.2325,-0.3358,-0.6452,-0.7863,-0.9197,-1.1879,-1.3788,-1.5298,-1.6194,-1.6818,-1.6892,-1.5856,-1.4671,-1.3029,-1.0556,-0.9306,-0.8265,-0.7069,-0.6696,-0.6608,-0.6661,-0.7182,-0.7846,-0.8572,-0.9129,-0.9644,-1.0334,-1.0,-1.0544,-1.2204,-1.2423,-1.3226,-1.4724,-1.5249,-1.613,-1.7388,-1.7891,-1.7204,-1.5451,-1.4941,-1.3489,-1.1291,-1.1419,-1.1196,-1.0806,-1.1022,-1.192,-1.3434,-1.6032,-1.824,-2.0226,-2.2717,-2.3941,-2.4209,-2.3552,-2.2612,-2.1563,-2.0878,-2.0475,-2.0246,-1.9929,-1.9775,-1.9486,-1.8419,-1.7282,-1.5948,-1.442,-1.2454,-1.0665,-1.0163,-0.9409,-0.8857,-0.9008,-0.9965,-1.0868,-1.1015,-1.2049,-1.2881,-1.2881,-1.2881,-1.2881,-1.2881,-1.2881,-1.2881,-1.2881,-1.2881,-1.2822,-1.2662,-1.2613,-1.2613,-1.2613,-1.2622,-1.2725,-1.2881,-1.2084,-1.1566,-1.1566,-1.0265,-0.9239,-0.8482,-0.7762,-0.6797,-0.554,-0.5326,-0.5003,-0.4517,-0.4517,-0.5226,-0.664,-0.7304,-0.8659,-0.1185,-0.2268,-0.367,-0.6642,-0.8322,-0.9943,-1.2574,-1.4597,-1.6009,-1.6336,-1.6401,-1.6058,-1.4832,-1.3082,-1.1274,-0.9479,-0.7834,-0.6531,-0.5747,-0.5091,-0.4847,-0.5208,-0.591,-0.6837,-0.8094,-0.8839,-0.9658,-1.0558,-1.0608,-1.1138,-1.2359,-1.2825,-1.3574,-1.4785,-1.5015,-1.5776,-1.7085,-1.6985,-1.6272,-1.4946,-1.422,-1.2906,-1.1175,-1.1247,-1.137,-1.156,-1.2119,-1.3057,-1.4369,-1.6906,-1.8861,-2.0527,-2.268,-2.3763,-2.3997,-2.3114,-2.218,-2.12,-2.0326,-2.0027,-2.0,-1.9782,-1.9522,-1.9207,-1.8334,-1.7077,-1.5719,-1.4488,-1.2507,-1.0712,-1.0364,-0.9514,-0.8808,-0.8808,-0.9814,-1.0813,-1.0813,-1.19,-1.2881,-1.2881,-1.2881,-1.2881,-1.2881,-1.2881,-1.2881,-1.2881,-1.2881,-1.2881,-1.2881,-1.2881,-1.2881,-1.2881,-1.2881,-1.2881,-1.2881,-1.2236,-1.1814,-1.1814,-1.0813,-0.9898,-0.9218,-0.8488,-0.7483,-0.6034,-0.5651,-0.5326,-0.495,-0.495,-0.5658,-0.7128,-0.8084,-0.9331,-0.0847,-0.2505,-0.455,-0.6935,-0.8889,-1.0844,-1.318,-1.497,-1.6151,-1.6164,-1.562,-1.4788,-1.3574,-1.1229,-0.9233,-0.856,-0.619,-0.4351,-0.4317,-0.3098,-0.2566,-0.3447,-0.4378,-0.5588,-0.7451,-0.8498,-0.9421,-1.0378,-1.1225,-1.1919,-1.2445,-1.3242,-1.4033,-1.479,-1.4887,-1.5366,-1.6192,-1.5742,-1.526,-1.4845,-1.3421,-1.2322,-1.1527,-1.0905,-1.1045,-1.183,-1.2638,-1.3489,-1.4433,-1.7285,-1.9101,-2.0269,-2.2419,-2.3462,-2.3643,-2.2653,-2.186,-2.1065,-2.0044,-1.9682,-1.9682,-1.9682,-1.9325,-1.881,-1.8256,-1.6883,-1.5378,-1.4863,-1.2807,-1.0813,-1.0813,-0.9814,-0.8808,-0.8906,-0.9865,-1.0813,-1.0914,-1.1994,-1.2881,-1.2881,-1.2881,-1.2881,-1.2881,-1.2881,-1.2881,-1.2881,-1.2881,-1.2881,-1.2881,-1.2881,-1.2881,-1.2881,-1.2881,-1.2881,-1.2881,-1.229,-1.1972,-1.1972,-1.1316,-1.0661,-1.0064,-0.9266,-0.8212,-0.6902,-0.614,-0.576,-0.5649,-0.5649,-0.6359,-0.772,-0.9079,-1.0109,-0.0416,-0.1947,-0.3802,-0.722,-0.8684,-1.0107,-1.3113,-1.4356,-1.4919,-1.4988,-1.4444,-1.3528,-1.2252,-1.0273,-0.8477,-0.7419,-0.5634,-0.4253,-0.3787,-0.2838,-0.2518,-0.3347,-0.3672,-0.4732,-0.6979,-0.746,-0.8252,-0.9771,-1.0625,-1.1581,-1.2825,-1.3634,-1.4315,-1.4795,-1.5415,-1.5326,-1.4513,-1.4487,-1.3808,-1.2466,-1.1862,-1.1188,-1.0377,-1.0569,-1.1045,-1.183,-1.2638,-1.3489,-1.4378,-1.6813,-1.8241,-1.9098,-2.1178,-2.2062,-2.2085,-2.1889,-2.1377,-2.0708,-1.9958,-1.9682,-1.9682,-1.9682,-1.9325,-1.881,-1.8256,-1.6883,-1.5378,-1.4863,-1.2807,-1.0813,-1.0813,-0.9814,-0.8959,-0.9514,-1.0218,-1.0965,-1.1516,-1.2295,-1.2881,-1.2881,-1.2881,-1.2881,-1.2881,-1.2881,-1.2881,-1.2881,-1.2881,-1.2881,-1.2881,-1.2881,-1.2881,-1.2881,-1.2881,-1.2881,-1.2881,-1.2769,-1.272,-1.272,-1.203,-1.1562,-1.1462,-1.0257,-0.9221,-0.8367,-0.7646,-0.7015,-0.6421,-0.6421,-0.6856,-0.772,-0.9079,-1.0109,-0.0326,-0.1802,-0.3593,-0.7274,-0.8906,-1.0288,-1.3149,-1.4256,-1.4562,-1.4277,-1.335,-1.2349,-1.1423,-0.9234,-0.7413,-0.6831,-0.4762,-0.3168,-0.2923,-0.18,-0.1501,-0.2763,-0.3023,-0.4206,-0.6922,-0.7335,-0.8023,-0.9573,-1.0462,-1.1325,-1.2352,-1.3534,-1.4354,-1.4785,-1.4929,-1.4532,-1.3584,-1.36,-1.2873,-1.1343,-1.0861,-1.0438,-1.0127,-0.9979,-1.0594,-1.183,-1.2638,-1.3489,-1.4382,-1.6661,-1.8012,-1.8764,-2.0553,-2.1415,-2.1643,-2.1292,-2.0991,-2.061,-1.9922,-1.9682,-1.9682,-1.9682,-1.9169,-1.8458,-1.8178,-1.6686,-1.5022,-1.4784,-1.2807,-1.0813,-1.0813,-0.9814,-0.8959,-0.9666,-1.0564,-1.1521,-1.2241,-1.2662,-1.2881,-1.2881,-1.2881,-1.2881,-1.2881,-1.2881,-1.2881,-1.2881,-1.2881,-1.2881,-1.2881,-1.2881,-1.2881,-1.2881,-1.2881,-1.2881,-1.2881,-1.2881,-1.2881,-1.2881,-1.2559,-1.2183,-1.1814,-1.1166,-1.034,-0.9231,-0.8881,-0.8416,-0.7688,-0.7688,-0.7916,-0.8315,-0.9273,-1.014,-0.043,-0.1977,-0.3945,-0.7336,-0.9085,-1.061,-1.3029,-1.3967,-1.4149,-1.3521,-1.2371,-1.1273,-1.0493,-0.8314,-0.6549,-0.6432,-0.4062,-0.2191,-0.2263,-0.0965,-0.061,-0.2293,-0.2595,-0.3841,-0.6944,-0.732,-0.7936,-0.9398,-1.0203,-1.1079,-1.2112,-1.3378,-1.4217,-1.4639,-1.4311,-1.3762,-1.2964,-1.2708,-1.1948,-1.0639,-1.0148,-0.986,-0.9726,-0.9634,-1.0218,-1.1333,-1.2512,-1.3368,-1.414,-1.6604,-1.7915,-1.8554,-2.0172,-2.0997,-2.1241,-2.0853,-2.0625,-2.0415,-1.9869,-1.9682,-1.9682,-1.9682,-1.8968,-1.8099,-1.8099,-1.6487,-1.4703,-1.4703,-1.2807,-1.0813,-1.0813,-0.9913,-0.9211,-1.0012,-1.117,-1.2187,-1.2774,-1.2881,-1.2881,-1.2881,-1.2881,-1.2881,-1.2881,-1.2881,-1.2881,-1.2881,-1.2774,-1.2666,-1.2666,-1.2666,-1.2666,-1.2666,-1.2822,-1.2881,-1.2881,-1.2881,-1.2881,-1.2881,-1.2881,-1.2662,-1.208,-1.1868,-1.129,-1.0144,-0.9995,-0.9699,-0.9148,-0.9148,-0.9121,-0.9005,-0.9714,-1.0214,-0.0722,-0.2617,-0.5054,-0.7577,-0.904,-1.0429,-1.2512,-1.3022,-1.2852,-1.2115,-1.1412,-1.0493,-0.9145,-0.7638,-0.6435,-0.5945,-0.3811,-0.2279,-0.2476,-0.1046,-0.0594,-0.2312,-0.2503,-0.3693,-0.6625,-0.6954,-0.7499,-0.8798,-0.9495,-1.0792,-1.2882,-1.3542,-1.3937,-1.415,-1.4102,-1.3623,-1.2561,-1.1507,-1.0664,-0.9911,-0.9774,-0.9291,-0.859,-0.9916,-1.0107,-0.9649,-1.2012,-1.307,-1.336,-1.6363,-1.7627,-1.7881,-1.9987,-2.0471,-2.0036,-2.0519,-2.0311,-1.9765,-1.9705,-1.9682,-1.9682,-1.9682,-1.8968,-1.8099,-1.8099,-1.6487,-1.4703,-1.4703,-1.2807,-1.0813,-1.0813,-1.0265,-1.0012,-1.1312,-1.2241,-1.2827,-1.2881,-1.2881,-1.2881,-1.2881,-1.2881,-1.2881,-1.2881,-1.2881,-1.2881,-1.2881,-1.2344,-1.1918,-1.1918,-1.1918,-1.1918,-1.1918,-1.2505,-1.2881,-1.2881,-1.2881,-1.2881,-1.2881,-1.2881,-1.2876,-1.2779,-1.2183,-1.176,-1.1602,-1.1007,-1.0657,-1.0606,-1.0606,-1.0312,-0.9714,-1.0415,-1.0415,-0.1379,-0.3172,-0.5462,-0.7736,-0.9246,-1.0677,-1.2488,-1.2881,-1.2666,-1.1967,-1.1266,-1.0344,-0.894,-0.7531,-0.6396,-0.5699,-0.4069,-0.2717,-0.2361,-0.1835,-0.18,-0.2563,-0.3096,-0.4176,-0.6147,-0.6756,-0.7532,-0.8732,-0.9061,-0.9933,-1.1609,-1.2534,-1.3232,-1.3708,-1.376,-1.3011,-1.1511,-1.1044,-1.0049,-0.8514,-0.8187,-0.8216,-0.8557,-0.8731,-0.9298,-1.0168,-1.2147,-1.2889,-1.2856,-1.5896,-1.6969,-1.6951,-1.8898,-1.9505,-1.9349,-1.9888,-1.9922,-1.9682,-1.9682,-1.9682,-1.9682,-1.9682,-1.8968,-1.8013,-1.7659,-1.6219,-1.4606,-1.4283,-1.2527,-1.0813,-1.0813,-1.0614,-1.0665,-1.1566,-1.2349,-1.2881,-1.2881,-1.2881,-1.2881,-1.2881,-1.2881,-1.2881,-1.2881,-1.2881,-1.2769,-1.2295,-1.1972,-1.1661,-1.1266,-1.1216,-1.1362,-1.1765,-1.2452,-1.2881,-1.2881,-1.3238,-1.3286,-1.2925,-1.3238,-1.3286,-1.2929,-1.2613,-1.2452,-1.2452,-1.256,-1.2199,-1.1412,-1.1801,-1.1444,-1.0415,-1.0265,-1.0261,-0.2494,-0.4032,-0.5967,-0.8173,-0.9589,-1.0819,-1.2522,-1.2881,-1.2613,-1.172,-1.1116,-1.0238,-0.8419,-0.7272,-0.6312,-0.5382,-0.4185,-0.3209,-0.2685,-0.2557,-0.269,-0.3064,-0.3613,-0.4511,-0.5844,-0.6775,-0.7714,-0.8728,-0.8959,-0.9614,-1.0767,-1.186,-1.2823,-1.3455,-1.3506,-1.2721,-1.1029,-1.0871,-0.9736,-0.7673,-0.7422,-0.7567,-0.8088,-0.8029,-0.8664,-1.004,-1.2015,-1.2707,-1.2709,-1.5771,-1.6779,-1.6581,-1.8427,-1.9036,-1.8969,-1.9485,-1.9682,-1.9682,-1.9682,-1.9682,-1.9682,-1.9682,-1.8968,-1.7959,-1.7159,-1.5904,-1.456,-1.3962,-1.2487,-1.1116,-1.1116,-1.1116,-1.1266,-1.1981,-1.2505,-1.2881,-1.2881,-1.2881,-1.2881,-1.2881,-1.2881,-1.2881,-1.2881,-1.2881,-1.2662,-1.1918,-1.1611,-1.1266,-1.0614,-1.0517,-1.0767,-1.1412,-1.233,-1.2949,-1.3147,-1.3737,-1.3873,-1.3472,-1.3642,-1.3595,-1.3195,-1.2973,-1.2968,-1.3152,-1.342,-1.315,-1.24,-1.2701,-1.2209,-1.1065,-1.0419,-1.0005,-0.3991,-0.5147,-0.6729,-0.8942,-0.9955,-1.0819,-1.2522,-1.2881,-1.2515,-1.1124,-1.0813,-0.9931,-0.7111,-0.6588,-0.6152,-0.4736,-0.4006,-0.3621,-0.3563,-0.3099,-0.301,-0.3881,-0.4015,-0.4511,-0.5844,-0.7018,-0.7999,-0.8755,-0.9409,-1.0064,-1.0767,-1.186,-1.2823,-1.3455,-1.3506,-1.2861,-1.1513,-1.1046,-0.9736,-0.7726,-0.8043,-0.7765,-0.6973,-0.8082,-0.8551,-0.8551,-1.1367,-1.2597,-1.2842,-1.6231,-1.7276,-1.6983,-1.8989,-1.9427,-1.8969,-1.9485,-1.9682,-1.9682,-1.9682,-1.9682,-1.9682,-1.9682,-1.8968,-1.7873,-1.6687,-1.5542,-1.456,-1.3962,-1.2836,-1.1765,-1.1765,-1.1765,-1.1976,-1.272,-1.2881,-1.2881,-1.2881,-1.2881,-1.2881,-1.2881,-1.2881,-1.2881,-1.2881,-1.2881,-1.2662,-1.1918,-1.1266,-1.0568,-0.9913,-0.9814,-1.0068,-1.0767,-1.1989,-1.3072,-1.3721,-1.4329,-1.4703,-1.4703,-1.4143,-1.3821,-1.3774,-1.3243,-1.3195,-1.3774,-1.3195,-1.3195,-1.3768,-1.3195,-1.2505,-1.176,-1.1116,-0.9684,-0.4321,-0.5741,-0.7535,-0.9217,-1.0158,-1.0926,-1.19,-1.1783,-1.1229,-1.032,-1.0115,-0.9377,-0.7009,-0.6588,-0.6361,-0.5657,-0.4861,-0.4403,-0.4573,-0.4489,-0.4254,-0.4006,-0.4337,-0.5151,-0.6462,-0.6809,-0.745,-0.8699,-0.9413,-1.0115,-1.0767,-1.1589,-1.2337,-1.3081,-1.3359,-1.2935,-1.1705,-1.1124,-0.9986,-0.838,-0.8012,-0.7825,-0.783,-0.8372,-0.9127,-1.007,-1.2032,-1.2852,-1.3021,-1.5885,-1.6763,-1.652,-1.8453,-1.9092,-1.8998,-1.9797,-2.0124,-2.0124,-2.0124,-2.0124,-2.0012,-1.9376,-1.8696,-1.7793,-1.6212,-1.5262,-1.4365,-1.288,-1.2106,-1.1814,-1.1814,-1.1814,-1.1972,-1.2715,-1.2881,-1.2881,-1.2881,-1.2881,-1.2881,-1.2881,-1.2881,-1.2881,-1.2881,-1.2881,-1.251,-1.1321,-1.0965,-1.0415,-0.926,-0.9514,-1.0064,-1.0716,-1.2357,-1.3533,-1.3768,-1.4732,-1.5147,-1.4749,-1.4514,-1.4236,-1.3821,-1.3243,-1.2973,-1.3195,-1.342,-1.342,-1.32,-1.342,-1.2706,-1.1116,-1.0415,-0.896,-0.5582,-0.6806,-0.8295,-0.9448,-1.0289,-1.0918,-1.1316,-1.0897,-1.0289,-0.9862,-0.9596,-0.8908,-0.7283,-0.6804,-0.6522,-0.626,-0.567,-0.5303,-0.5432,-0.5572,-0.5413,-0.454,-0.4879,-0.5667,-0.6805,-0.6986,-0.7506,-0.8699,-0.9413,-1.0115,-1.0767,-1.1462,-1.2133,-1.2881,-1.3135,-1.2817,-1.1814,-1.1166,-1.0084,-0.8678,-0.7756,-0.7535,-0.8025,-0.79,-0.8749,-1.0453,-1.1845,-1.2681,0.0,-1.562,-1.6564,-1.6651,-1.8282,-1.9018,-1.9273,-2.0024,-2.0314,-2.0314,-2.0314,-2.0066,-1.9679,-1.9103,-1.8097,-1.6841,-1.5327,-1.4486,-1.3784,-1.2574,-1.2236,-1.2236,-1.2236,-1.2236,-1.2344,-1.2774,-1.2881,-1.2881,-1.2881,-1.2881,-1.2881,-1.2881,-1.2881,-1.2881,-1.2881,-1.2881,-1.2412,-1.1019,-1.0813,-1.0316,-0.8956,-0.9361,-1.0064,-1.0716,-1.2318,-1.3485,-1.3768,-1.509,-1.5682,-1.5056,-1.4835,-1.4422,-1.3815,-1.3243,-1.3022,-1.3243,-1.3372,-1.3372,-1.3243,-1.3102,-1.2292,-1.0767,-1.0111,-0.881,0.0,-0.8227,-0.8894,-0.9599,-1.0265,-1.0716,-1.0716,-1.0171,0.0,-0.9703,-0.9169,-0.8482,-0.7824,-0.7128,-0.6701,-0.6717,-0.6444,-0.6224,-0.6169,-0.6465,-0.6226,-0.5178,-0.5507,-0.6107,-0.6827,-0.7365,-0.7996,-0.8755,-0.9413,-1.0115,-1.0767,-1.1462,-1.2133,-1.2881,-1.2881,-1.2559,-1.1868,-1.1166,-1.0136,-0.8835,-0.7433,-0.7128,-0.778,-0.7144,-0.7981,-0.9936,-1.108,-1.231,-1.3635,-1.5491,-1.6632,-1.7327,-1.8508,-1.9312,-1.9756,-2.023,-2.0374,-2.034,-2.0306,-1.97,-1.8916,-1.8765,-1.7234,-1.5244,-1.4122,-1.3377,-1.2881,-1.2881,-1.2881,-1.2881,-1.2881,-1.2881,-1.2881,-1.2881,-1.2881,-1.2881,-1.2881,-1.2881,-1.2881,-1.2881,-1.2881,-1.2881,-1.2881,-1.2881,-1.2412,-1.1019,-1.0813,-1.0316,-0.8956,-0.9361,-1.0064,-1.0665,-1.1984,-1.3067,-1.3669,-1.5365,-1.6145,-1.5588,-1.4966,-1.4376,-1.3815,-1.3243,-1.3147,-1.3732,-1.32,-1.3142,-1.3669,-1.2351,-1.1362,-1.0712,-1.0064,-0.8981,-0.848,0.0,-0.8894,-0.9599,-0.9913,-1.0064,0.0,-0.9503,-0.8991,-0.9008,-0.89,-0.8573,-0.783,-0.756,-0.7515,-0.7763,-0.7407,-0.723,-0.7766,-0.6843,-0.5809,-0.493,-0.5364,-0.6056,-0.6624,-0.7268,-0.7996,-0.8755,-0.9413,-1.0115,-1.0767,-1.1462,-1.2133,-1.2881,-1.2881,-1.2827,-1.2662,-1.1429,-1.0606,-1.0297,-0.8928,-0.8374,-0.854,-0.917,-0.9826,-1.0651,-1.1993,-1.317,-1.4312,-1.61,-1.7368,-1.8305,-1.9548,-2.0314,-2.0707,-2.1134,-2.111,-2.0789,-2.0387,-1.9866,-1.9163,-1.7511,-1.6059,-1.4767,-1.3998,-1.3377,-1.2881,-1.2881,-1.2881,-1.2881,-1.2881,-1.2881,-1.2881,-1.2881,-1.2881,-1.2881,-1.2881,-1.2881,-1.2881,-1.2881,-1.2881,-1.2881,-1.2881,-1.2881,-1.2412,-1.1019,-1.0813,-1.0316,-0.8956,-0.9361,-0.9865,-1.0012,-1.1688,-1.287,-1.3019,-1.4302,-1.5062,-1.4926,-1.4329,-1.3956,-1.3821,-1.3243,-1.2973,-1.3109,-1.2968,-1.2706,-1.2253,-1.1462,-1.0712,-1.0012,-0.9364,-0.8577,-0.8808,-0.8988,-0.9225,-0.9305,-0.9343,-0.9277,-0.9357,-0.8517,-0.7993,-0.8646,-0.8533,-0.8265,-0.8212,-0.794,-0.7916,-0.8574,-0.7818,-0.7237,-0.7395,-0.627,-0.5249,-0.4757,-0.559,-0.6274,-0.6598,-0.756,-0.8374,-0.8755,-0.9162,-0.961,-1.0316,-1.0665,-1.1375,-1.2349,-1.2398,-1.2559,-1.2881,-1.1787,-1.1116,-1.0767,-0.9388,-0.8935,-0.9263,-0.9464,-1.0358,-1.1769,-1.2517,-1.3771,-1.5424,-1.6548,-1.7872,-1.9269,-2.0175,-2.0938,-2.1502,-2.1532,-2.1313,-2.0894,-2.0176,-1.9134,-1.7831,-1.6176,-1.5039,-1.4149,-1.3557,-1.3152,-1.2881,-1.2881,-1.2881,-1.2881,-1.2881,-1.2881,-1.2881,-1.2881,-1.2881,-1.2881,-1.2881,-1.2881,-1.2881,-1.2881,-1.2881,-1.2881,-1.2881,-1.2881,-1.2515,-1.1416,-1.1266,-1.0762,-0.9409,-0.9865,-1.0167,-0.9814,-1.1053,-1.1886,-1.1886,-1.2517,-1.3148,-1.3784,-1.3506,-1.322,-1.289,-1.2579,-1.2559,-1.2881,-1.2881,-1.2715,-1.2295,-1.1275,-1.0614,-1.0265,-0.926,-0.859,-0.8808,-0.9211,-0.951,-0.8959,-0.8669,-0.8593,-0.8745,0.0,0.0,0.0,0.0,-0.8046,-0.8699,-0.8265,-0.812,-0.8851,-0.7879,-0.6825,-0.627,-0.5383,-0.4826,-0.4826,-0.5872,-0.6642,-0.675,-0.7993,-0.8808,-0.8808,-0.8808,-0.911,-0.9766,-0.9814,-1.0368,-1.1616,-1.1765,-1.208,-1.272,-1.2133,-1.1512,-1.0965,-0.9614,-0.9367,-0.9913,-0.9415,-1.0503,-1.2817,-1.2999,-1.4404,-1.6553,-1.7156,-1.8541,-2.0303,-2.0796,-2.1499,-2.2192,-2.1741,-2.1295,-2.0732,-1.9634,-1.7923,-1.6083,-1.505,-1.4283,-1.3684,-1.2953,-1.2822,-1.2881,-1.2769,-1.2822,-1.2881,-1.2881,-1.2973,-1.3017,-1.2925,-1.2973,-1.3017,-1.2925,-1.2881,-1.2881,-1.2881,-1.2881,-1.2881,-1.2881,-1.2881,-1.2662,-1.1918,-1.1814,-1.1362,-1.0111,-1.0364,-1.0415,-0.9865,-1.0316,-1.0665,-1.0665,-1.0767,-1.1258,-1.2278,-1.2429,-1.2288,-1.1819,-1.1819,-1.2133,-1.2881,-1.2881,-1.2827,-1.272,-1.1434,-1.0767,-1.0614,-0.9462,-0.8959,-0.8808,-0.8857,-0.891,-0.8808,-0.8312,-0.8037,-0.8643,-0.8156,0.0,0.0,-0.8699,-0.8646,-0.8755,-0.8699,-0.8493,-0.7994,-0.7236,-0.6546,-0.6065,-0.5647,-0.5368,-0.5368,-0.6112,-0.6858,-0.7453,-0.8318,-0.8808,-0.8808,-0.8808,-0.911,-0.9766,-0.9814,-1.0163,-1.0918,-1.1512,-1.1864,-1.1972,-1.1868,-1.1765,-1.1665,-1.0855,-1.0559,-1.0665,-1.1103,-1.1837,-1.2865,-1.3902,-1.5327,-1.7081,-1.8291,-1.9791,-2.1429,-2.2051,-2.253,-2.2798,-2.2211,-2.1299,-2.007,-1.8264,-1.6809,-1.5626,-1.492,-1.4283,-1.3574,-1.236,-1.2398,-1.2774,-1.2129,-1.2403,-1.2881,-1.2881,-1.3286,-1.3552,-1.3017,-1.3286,-1.351,-1.3017,-1.2881,-1.2881,-1.2881,-1.2881,-1.2881,-1.2881,-1.2881,-1.2662,-1.1918,-1.1814,-1.1512,-1.0767,-1.0265,-0.9913,-0.9814,-0.9913,-0.9965,-0.9965,-1.0462,-1.0665,-1.0257,-1.0809,-1.1321,-1.1796,-1.1778,-1.2133,-1.2881,-1.2881,-1.2608,-1.1972,-1.117,-1.0517,-0.9965,-0.9766,-0.9666,-0.8764,-0.8537,-0.8209,-0.8209,-0.7667,-0.7182,-0.7509,-0.7345,-0.7292,-0.8046,-0.8537,-0.8808,-0.8808,-0.848,-0.7827,-0.6686,-0.6738,-0.6587,-0.5838,-0.5927,-0.6091,-0.6091,-0.6745,-0.7343,-0.767,-0.8374,-0.8808,-0.8808,-0.8808,-0.8959,-0.9263,-0.926,-0.9566,-1.0265,-1.0914,-1.1412,-1.1814,-1.2187,-1.2187,-1.1814,-1.1466,-1.1362,-1.1362,-1.2047,-1.287,-1.3878,-1.5066,-1.6581,-1.8339,-1.9482,-2.0977,-2.2555,-2.3021,-2.3088,-2.2784,-2.1292,-1.9844,-1.846,-1.7246,-1.6046,-1.5005,-1.4416,-1.3831,-1.3127,-1.2115,-1.2344,-1.2774,-1.2026,-1.2344,-1.2881,-1.2881,-1.3109,-1.3238,-1.2973,-1.3109,-1.3243,-1.2973,-1.2881,-1.2881,-1.2881,-1.2881,-1.2881,-1.2881,-1.2881,-1.2769,-1.2456,-1.2393,-1.2138,-1.1416,-1.0767,-1.0214,-0.9865,-0.9462,-0.926,-0.926,-0.9566,-0.9766,-0.9814,-1.0064,-1.0568,-1.1233,-1.162,-1.2133,-1.2881,-1.2881,-1.272,-1.2393,-1.167,-1.1166,-1.0864,-1.0517,-1.0364,-0.8215,-0.7838,-0.7399,-0.7233,-0.6743,-0.6423,-0.6804,-0.6696,-0.6858,-0.7777,-0.8262,-0.8537,-0.8537,-0.7774,-0.6848,-0.5925,-0.6278,-0.6498,-0.5837,-0.6256,-0.6642,-0.6858,-0.7343,-0.7777,-0.7937,-0.848,-0.8808,-0.8808,-0.8808,-0.8808,-0.8808,-0.8808,-0.9061,-0.9566,-1.0214,-1.0868,-1.1562,-1.2295,-1.2456,-1.208,-1.208,-1.208,-1.2075,-1.2735,-1.3643,-1.4789,-1.6028,-1.7564,-1.9194,-2.0398,-2.1767,-2.311,-2.3343,-2.2849,-2.1757,-1.9749,-1.812,-1.6809,-1.6213,-1.5347,-1.4422,-1.3956,-1.3372,-1.2769,-1.2026,-1.2344,-1.2774,-1.2026,-1.2344,-1.2881,-1.2881,-1.3017,-1.306,-1.2925,-1.3022,-1.306,-1.2929,-1.2881,-1.2881,-1.2881,-1.2881,-1.2881,-1.2881,-1.2881,-1.2881,-1.2881,-1.2769,-1.2505,-1.2133,-1.117,-1.0415,-1.0064,-0.9312,-0.8808,-0.8808,-0.8808,-0.9008,-0.951,-0.9566,-0.9913,-1.0767,-1.1312,-1.1981,-1.2881,-1.2881,-1.2881,-1.2881,-1.2183,-1.1814,-1.1765,-1.1262,-1.0965,-0.6737,-0.6639,-0.6532,-0.5814,-0.5594,-0.5921,-0.7286,-0.7074,-0.702,-0.8427,-0.8212,-0.7777,-0.7777,-0.6627,-0.5869,-0.6421,-0.5993,-0.5832,-0.6426,-0.6588,-0.6858,-0.756,-0.767,-0.7993,-0.8646,-0.8755,-0.8808,-0.8808,-0.8808,-0.8808,-0.8808,-0.8808,-0.8808,-0.8854,-0.9514,-1.0214,-1.0868,-1.1516,-1.2187,-1.2827,-1.2827,-1.2827,-1.2822,-1.3452,-1.4091,-1.4789,-1.6426,-1.7791,-1.8972,-2.0711,-2.1852,-2.2468,-2.2607,-2.1333,-1.9208,-1.7806,-1.6578,-1.5554,-1.4988,-1.4416,-1.3868,-1.3815,-1.3372,-1.2769,-1.2026,-1.2344,-1.2774,-1.2026,-1.2344,-1.2881,-1.2881,-1.3334,-1.3595,-1.3017,-1.3329,-1.3595,-1.3017,-1.2881,-1.2881,-1.2881,-1.2881,-1.2881,-1.2881,-1.2881,-1.2881,-1.2881,-1.2344,-1.2133,-1.272,-1.1086,-1.0115,-1.0665,-0.9562,-0.8808,-0.8808,-0.8808,-0.8808,-0.8857,-0.8857,-0.9462,-1.0767,-1.0868,-1.1534,-1.2876,-1.2881,-1.2881,-1.2881,-1.2183,-1.1814,-1.1814,-1.176,-1.1412,-0.6421,-0.6147,-0.5982,-0.6145,-0.5817,-0.5649,-0.6195,-0.6851,-0.7453,-0.7993,-0.8265,-0.8103,-0.7182,-0.6197,-0.5594,-0.5871,-0.6091,-0.6418,-0.7182,-0.767,-0.8049,-0.8371,-0.8371,-0.848,-0.8755,-0.8808,-0.8808,-0.8808,-0.8808,-0.8808,-0.8808,-0.8808,-0.8808,-0.8808,-0.9462,-0.9913,-1.0163,-1.1266,-1.1922,-1.2236,-1.2666,-1.2881,-1.2925,-1.3505,-1.3909,-1.4236,-1.5966,-1.7189,-1.8101,-1.95,-2.0564,-2.1203,-2.0426,-1.9068,-1.7442,-1.6482,-1.5662,-1.4937,-1.4324,-1.4003,-1.3732,-1.3372,-1.3113,-1.2671,-1.1529,-1.1994,-1.2671,-1.1475,-1.1994,-1.2881,-1.2881,-1.306,-1.3195,-1.2973,-1.2735,-1.2502,-1.2281,-1.2236,-1.2236,-1.2236,-1.2608,-1.2881,-1.2881,-1.2881,-1.2881,-1.2881,-1.229,-1.1918,-1.2183,-1.0821,-0.9913,-1.0163,-0.9361,-0.8808,-0.8808,-0.8808,-0.8808,-0.8808,-0.8808,-0.9211,-1.0167,-1.0163,-1.0821,-1.2187,-1.2236,-1.2452,-1.2881,-1.2613,-1.2501,-1.2456,-1.2026,-1.1665,-0.5684,-0.546,-0.5382,-0.6093,-0.6036,-0.5925,-0.614,-0.6956,-0.7777,-0.7993,-0.8103,-0.7723,-0.6473,-0.5817,-0.5597,-0.5814,-0.6473,-0.7184,-0.794,-0.8484,-0.8808,-0.8808,-0.8808,-0.8808,-0.8808,-0.8808,-0.8808,-0.8808,-0.8808,-0.8808,-0.8808,-0.8808,-0.8808,-0.8808,-0.9263,-0.9562,-0.9814,-1.0914,-1.1462,-1.1512,-1.2192,-1.2662,-1.2925,-1.3505,-1.3821,-1.3909,-1.5446,-1.6391,-1.695,-1.8035,-1.8711,-1.9038,-1.8158,-1.692,-1.5605,-1.5151,-1.4613,-1.4066,-1.3647,-1.351,-1.3462,-1.3017,-1.2881,-1.2725,-1.1742,-1.2157,-1.2725,-1.1742,-1.2157,-1.2881,-1.2881,-1.2881,-1.2881,-1.2881,-1.2505,-1.2133,-1.2133,-1.2133,-1.2133,-1.2133,-1.2559,-1.2881,-1.2881,-1.2881,-1.2881,-1.2881,-1.2089,-1.1562,-1.176,-1.0415,-0.9462,-0.9462,-0.9057,-0.8808,-0.8808,-0.9008,-0.9008,-0.8804,-0.9008,-0.9312,-0.9762,-1.0016,-1.0665,-1.1765,-1.1814,-1.2183,-1.2881,-1.2881,-1.2881,-1.2881,-1.2133,-1.1665,-0.436,-0.4351,-0.468,-0.5326,-0.6091,-0.6804,-0.756,-0.772,-0.794,-0.8643,-0.7616,-0.6367,-0.5649,-0.5485,-0.5762,-0.6477,-0.7235,-0.794,-0.8699,-0.8808,-0.8804,-0.8804,-0.8804,-0.8804,-0.8804,-0.8808,-0.8808,-0.8808,-0.8808,-0.8808,-0.8808,-0.8808,-0.8808,-0.8808,-0.8808,-0.911,-0.9762,-1.0466,-1.0813,-1.0813,-1.1462,-1.2183,-1.2929,-1.3505,-1.3768,-1.3857,-1.4982,-1.5454,-1.5531,-1.6456,-1.6486,-1.5903,-1.6017,-1.5046,-1.3595,-1.3721,-1.342,-1.2881,-1.2881,-1.2881,-1.2881,-1.2881,-1.2881,-1.2881,-1.2881,-1.2881,-1.2881,-1.2881,-1.2881,-1.2881,-1.2881,-1.2881,-1.2881,-1.2881,-1.2881,-1.2881,-1.2881,-1.2881,-1.2881,-1.2881,-1.2881,-1.2881,-1.2881,-1.2881,-1.2881,-1.2881,-1.1692,-1.1065,-1.1715,-1.0068,-0.8808,-0.8808,-0.8804,-0.8808,-0.8808,-0.9413,-0.951,-0.8857,-0.9409,-0.9814,-0.9814,-1.0415,-1.1116,-1.1765,-1.1814,-1.2183,-1.2881,-1.2881,-1.2881,-1.2881,-1.2133,-1.1412,-0.5623,-0.5836,-0.615,-0.6851,-0.7587,-0.8268,-0.9023,-0.8837,-0.8533,-0.8752,-0.7616,-0.6532,-0.631,-0.5871,-0.5762,-0.6477,-0.7235,-0.794,-0.8699,-0.8371,-0.8046,-0.8046,-0.8046,-0.8046,-0.8046,-0.848,-0.8808,-0.8808,-0.8808,-0.8808,-0.8808,-0.8808,-0.8808,-0.8808,-0.8808,-0.8906,-0.911,-0.9766,-1.0115,-1.0115,-1.0767,-1.1471,-1.2133,-1.2311,-1.2667,-1.319,-1.3485,-1.3596,-1.3627,-1.3871,-1.3844,-1.3703,-1.374,-1.3486,-1.3097,-1.3137,-1.306,-1.2881,-1.2881,-1.2881,-1.2881,-1.2881,-1.2881,-1.2779,-1.229,-1.2505,-1.2774,-1.229,-1.2505,-1.2881,-1.2881,-1.2505,-1.2241,-1.2769,-1.2152,-1.1534,-1.203,-1.1783,-1.1579,-1.203,-1.2559,-1.2881,-1.2881,-1.2881,-1.2715,-1.2183,-1.1371,-1.0716,-1.0415,-1.0265,-1.0218,-1.0218,-0.9766,-0.9514,-0.9514,-0.9662,-0.951,-0.8857,-0.9862,-1.0064,-0.9162,-0.9766,-1.0415,-1.1065,-1.1562,-1.2183,-1.2881,-1.2881,-1.2881,-1.2876,-1.1683,-1.1011,-0.6363,-0.6738,-0.7157,-0.7913,-0.8577,-0.9293,-1.0052,-0.9662,-0.9211,-0.9211,-0.8034,-0.702,-0.702,-0.6418,-0.6091,-0.6532,-0.6966,-0.7399,-0.7886,-0.756,-0.7238,-0.7238,-0.7238,-0.7399,-0.767,-0.8103,-0.8484,-0.8755,-0.8808,-0.8808,-0.8808,-0.8808,-0.8808,-0.8808,-0.8808,-0.8808,-0.8808,-0.9462,-0.9666,-0.9409,-1.0064,-1.0614,-1.1011,-1.1266,-1.1629,-1.2049,-1.2003,-1.1989,-1.1984,-1.1943,-1.1948,-1.2033,-1.2288,-1.2414,-1.2505,-1.2774,-1.2881,-1.2881,-1.2881,-1.2881,-1.2881,-1.2881,-1.2715,-1.2452,-1.229,-1.2344,-1.2452,-1.2295,-1.2344,-1.2554,-1.2827,-1.2344,-1.1918,-1.2349,-1.1633,-1.0965,-1.1665,-1.1462,-1.1416,-1.2084,-1.2613,-1.2881,-1.2881,-1.2881,-1.2662,-1.1918,-1.1216,-1.0564,-0.9865,-1.0368,-1.0716,-1.0415,-1.0064,-0.9714,-0.9413,-0.9666,-0.951,-0.8857,-0.9814,-1.0064,-0.9208,-0.9865,-1.0368,-1.0813,-1.1462,-1.2183,-1.2881,-1.2881,-1.2881,-1.2876,-1.1733,-1.1061,-0.6849,-0.7312,-0.7979,-0.877,-0.953,-1.0238,-1.0994,-1.061,-1.006,-0.9913,-0.8764,-0.7771,-0.7771,-0.7125,-0.6588,-0.6588,-0.6588,-0.6588,-0.6588,-0.6532,-0.6477,-0.6477,-0.6477,-0.6748,-0.745,-0.7613,-0.7993,-0.8643,-0.8752,-0.8808,-0.8808,-0.8808,-0.8808,-0.8808,-0.8808,-0.8808,-0.8808,-0.9413,-0.9413,-0.8808,-0.9413,-0.9714,-0.971,-1.0415,-1.0716,-1.0716,-1.0716,-1.0661,-1.0614,-1.0614,-1.0665,-1.0864,-1.1462,-1.1765,-1.1972,-1.2662,-1.2881,-1.2881,-1.2881,-1.2881,-1.2881,-1.2827,-1.2393,-1.2026,-1.2613,-1.2398,-1.2026,-1.272,-1.2344,-1.1967,-1.2613,-1.2192,-1.1616,-1.1616,-1.1216,-1.1015,-1.172,-1.1819,-1.1927,-1.272,-1.2881,-1.2881,-1.2881,-1.2827,-1.251,-1.1724,-1.1162,-1.0564,-0.9965,-1.0517,-1.0716,-1.0064,-0.9917,-0.9614,-0.8959,-0.9465,-0.951,-0.8857,-0.9413,-0.9814,-0.9814,-1.0415,-1.0817,-1.0868,-1.1566,-1.2218,-1.2822,-1.2861,-1.2861,-1.2822,-1.2115,-1.1462,-0.8797,-0.9225,-0.9625,-1.0755,-1.1974,-1.3007,-1.3721,-1.3004,-1.1837,-1.0813,-0.9467,-0.8478,-0.8478,-0.743,-0.6588,-0.6588,-0.6588,-0.6588,-0.6588,-0.6091,-0.5762,-0.5762,-0.5762,-0.5814,-0.5977,-0.7012,-0.7777,-0.794,-0.848,-0.8808,-0.8808,-0.8808,-0.8808,-0.8808,-0.8808,-0.8808,-0.8808,-0.8959,-0.8959,-0.8808,-0.8959,-0.9008,-0.9061,-0.9714,-1.0012,-1.0012,-1.0012,-0.9714,-0.9208,-0.9208,-0.9862,-1.0813,-1.0965,-1.1683,-1.2666,-1.2827,-1.2881,-1.2881,-1.2881,-1.2881,-1.2822,-1.2236,-1.2344,-1.2559,-1.2183,-1.2344,-1.2715,-1.2881,-1.2344,-1.1819,-1.1976,-1.1124,-1.0214,-1.0214,-1.0517,-1.1124,-1.2403,-1.1787,-1.1379,-1.2666,-1.2881,-1.2881,-1.2881,-1.2398,-1.1625,-1.0419,-1.0564,-1.0767,-1.0614,-1.1692,-1.2147,-1.1466,-1.0914,-1.0312,-0.9666,-0.9714,-0.951,-0.8857,-0.9413,-0.9814,-0.9814,-1.0415,-1.1065,-1.1562,-1.2295,-1.2551,-1.2373,-1.2715,-1.2705,-1.2331,-1.1985,-1.1462,-0.9503,-1.0012,-1.0661,-1.2318,-1.3428,-1.425,-1.4606,-1.4174,-1.3448,-1.2434,-1.0629,-0.9221,-0.9221,-0.78,-0.6588,-0.6588,-0.6043,-0.5607,-0.5607,-0.5277,-0.5001,-0.5001,-0.5001,-0.5166,-0.5487,-0.6195,-0.6956,-0.7667,-0.8046,-0.8262,-0.8262,-0.859,-0.8643,-0.8265,-0.859,-0.8808,-0.8808,-0.8808,-0.8808,-0.8808,-0.8808,-0.8808,-0.8804,-0.9162,-0.9312,-0.9312,-0.9312,-0.911,-0.8808,-0.8808,-0.9413,-1.0316,-1.0316,-1.0977,-1.1895,-1.1895,-1.2098,-1.2344,-1.2344,-1.2613,-1.2769,-1.2026,-1.1828,-1.1891,-1.1823,-1.1828,-1.2049,-1.272,-1.2344,-1.1814,-1.1814,-1.1266,-1.0665,-1.0364,-1.0064,-1.0218,-1.1592,-1.1329,-1.1225,-1.2622,-1.2881,-1.2774,-1.2452,-1.1525,-1.0618,-0.9917,-1.0364,-1.0813,-1.0813,-1.1733,-1.2089,-1.1416,-1.0716,-1.0068,-0.9361,-0.9312,-0.9159,-0.8808,-0.9413,-0.9965,-1.0265,-1.0914,-1.1462,-1.181,-1.2306,-1.2456,-1.2185,-1.2241,-1.2129,-1.1919,-1.1955,-1.1549,-0.9814,-1.0708,-1.189,-1.3564,-1.4549,-1.5141,-1.5141,-1.505,-1.4818,-1.422,-1.1916,-1.0042,-1.0005,-0.8078,-0.6541,-0.6583,-0.5443,-0.4517,-0.4517,-0.4517,-0.4517,-0.4517,-0.4517,-0.4732,-0.5271,-0.5433,-0.6029,-0.7233,-0.745,-0.7506,-0.7506,-0.8099,-0.8209,-0.7723,-0.8318,-0.8646,-0.8808,-0.8808,-0.8808,-0.8808,-0.8808,-0.8808,-0.8808,-0.8808,-0.8808,-0.8808,-0.8808,-0.8808,-0.8808,-0.8808,-0.9211,-0.9814,-0.9814,-1.0218,-1.0813,-1.0813,-1.1216,-1.1814,-1.1814,-1.229,-1.2769,-1.1877,-1.1312,-1.1011,-1.1362,-1.1216,-1.1225,-1.2358,-1.229,-1.1814,-1.1814,-1.1616,-1.1312,-1.0767,-0.9714,-0.9211,-1.0665,-1.0864,-1.1225,-1.2622,-1.2779,-1.2456,-1.1769,-1.0614,-0.9766,-0.9666,-1.0316,-1.0813,-1.0813,-1.1521,-1.167,-1.0868,-1.0316,-0.9662,-0.8857,-0.8808,-0.8808,-0.8808,-0.9413,-1.0115,-1.0762,-1.1462,-1.1868,-1.1972,-1.2216,-1.227,-1.2114,-1.1816,-1.1592,-1.1368,-1.1864,-1.1492,-1.0466,-1.2366,-1.4261,-1.4514,-1.5784,-1.696,-1.696,-1.6568,-1.5984,-1.5378,-1.3053,-1.0989,-1.0701,-0.8258,-0.6353,-0.6556,-0.5443,-0.4517,-0.4517,-0.4517,-0.4517,-0.4517,-0.4517,-0.4517,-0.4625,-0.5164,-0.5594,-0.576,-0.6364,-0.675,-0.675,-0.6856,-0.7128,-0.7667,-0.7777,-0.8156,-0.8808,-0.8808,-0.8808,-0.8808,-0.8808,-0.8808,-0.8808,-0.8808,-0.8808,-0.8808,-0.8808,-0.8808,-0.8808,-0.8808,-0.9211,-0.9814,-0.9814,-1.0218,-1.0813,-1.0813,-1.1216,-1.1814,-1.1814,-1.229,-1.2671,-1.1375,-1.1266,-1.1466,-1.0415,-1.083,-1.1692,-1.1877,-1.1868,-1.1814,-1.1814,-1.0965,-1.0064,-0.9965,-0.9361,-0.9312,-1.1262,-1.1212,-1.1225,-1.2622,-1.2398,-1.172,-1.1065,-1.0316,-0.9614,-0.9008,-1.0016,-1.0813,-1.0813,-1.194,-1.2255,-1.0918,-1.0716,-1.0167,-0.891,-0.8808,-0.8808,-0.8808,-0.9413,-1.0115,-1.0762,-1.1462,-1.208,-1.272,-1.2769,-1.2417,-1.1694,-1.1982,-1.1471,-1.032,-1.1267,-1.1022,-1.1065,-1.3004,-1.4784,-1.5061,-1.6244,-1.7388,-1.7666,-1.7327,-1.664,-1.568,-1.3525,-1.1593,-1.0935,-0.8734,-0.6945,-0.6625,-0.5712,-0.4948,-0.457,-0.4517,-0.4517,-0.4517,-0.4517,-0.4517,-0.4517,-0.4787,-0.5111,-0.5487,-0.5817,-0.598,-0.598,-0.6367,-0.6583,-0.6468,-0.6853,-0.7238,-0.7563,-0.7993,-0.8371,-0.8808,-0.8808,-0.8808,-0.8808,-0.8808,-0.8808,-0.8808,-0.8808,-0.8808,-0.8808,-0.8808,-0.8956,-0.9263,-0.9263,-0.9413,-0.9662,-0.9662,-1.0115,-1.0665,-1.0665,-1.1124,-1.1538,-1.0568,-1.0415,-1.0568,-0.9965,-1.047,-1.1329,-1.1665,-1.208,-1.2344,-1.1918,-1.1362,-1.0712,-0.9965,-0.9865,-1.0167,-1.1065,-1.1015,-1.1225,-1.2622,-1.1994,-1.1166,-1.0864,-0.9913,-0.9162,-0.8857,-0.9965,-1.0813,-1.0813,-1.1679,-1.1886,-1.0918,-1.0466,-0.9865,-0.8857,-0.8808,-0.8808,-0.8808,-0.9762,-1.0513,-1.0767,-1.1832,-1.2559,-1.2881,-1.2439,-1.1993,-1.1606,-1.1279,-1.0679,-0.9785,-1.0438,-1.0162,-1.2185,-1.3726,-1.5,-1.5446,-1.653,-1.7626,-1.802,-1.7787,-1.7142,-1.5966,-1.391,-1.201,-1.0998,-0.9054,-0.7432,-0.6958,-0.6253,-0.5601,-0.5117,-0.5007,-0.5007,-0.5007,-0.4842,-0.4732,-0.4732,-0.4625,-0.4734,-0.5218,-0.5273,-0.5273,-0.5273,-0.5723,-0.5804,-0.5472,-0.5965,-0.6339,-0.6556,-0.7312,-0.7993,-0.8537,-0.8699,-0.8808,-0.8808,-0.8808,-0.8906,-0.9061,-0.8857,-0.8808,-0.8808,-0.8808,-0.8808,-0.8808,-0.8808,-0.8808,-0.8808,-0.8808,-0.9211,-0.9814,-0.9814,-1.0265,-1.0665,-1.0012,-0.9814,-0.9766,-0.9614,-1.0111,-1.0914,-1.1416,-1.2192,-1.2774,-1.2236,-1.1819,-1.1312,-1.0312,-1.0316,-1.0665,-1.0965,-1.122,-1.1588,-1.2456,-1.1633,-1.0767,-1.0564,-0.9562,-0.8808,-0.8808,-0.9965,-1.0813,-1.0813,-1.1575,-1.1774,-1.0868,-1.0364,-0.9714,-0.8854,-0.8808,-0.8808,-0.8808,-0.9913,-1.0568,-1.0568,-1.1742,-1.2311,-1.2261,-1.1667,-1.1426,-1.1606,-1.0851,-1.0061,-0.9324,-0.9735,-0.9429,-1.422,-1.505,-1.5543,-1.5582,-1.6844,-1.8059,-1.8099,-1.8059,-1.7699,-1.6519,-1.4367,-1.2267,-1.1044,-0.8884,-0.739,-0.7629,-0.702,-0.6532,-0.6477,-0.648,-0.648,-0.648,-0.5873,-0.5433,-0.5433,-0.4895,-0.4519,-0.4572,-0.457,-0.457,-0.457,-0.4385,-0.4621,-0.5293,-0.5216,-0.5556,-0.6422,-0.7278,-0.772,-0.7777,-0.848,-0.8808,-0.8808,-0.8808,-0.9162,-0.9714,-0.9057,-0.8808,-0.8808,-0.8808,-0.8808,-0.8808,-0.8808,-0.8808,-0.8808,-0.8808,-0.9211,-0.9814,-0.9814,-1.0265,-1.0665,-1.0012,-0.9814,-0.9662,-0.9061,-0.9766,-1.0817,-1.0864,-1.1841,-1.2881,-1.2827,-1.1846,-1.0813,-1.0767,-1.0265,-1.0214,-1.1462,-1.2295,-1.2613,-1.1976,-1.1266,-1.0614,-0.9965,-0.9263,-0.8808,-0.8808,-0.9965,-1.0813,-1.0813,-1.1999,-1.2309,-1.0969,-1.0767,-1.0214,-0.8906,-0.8808,-0.8808,-0.8808,-0.9462,-0.9862,-0.9862,-1.0517,-1.0806,-1.0563,-1.0589,-1.0971,-1.1606,-1.1099,-1.0131,-0.8756,-0.9301,-0.898,-1.3918,-1.4863,-1.5576,-1.554,-1.6579,-1.7666,-1.802,-1.782,-1.7225,-1.6046,-1.4467,-1.2959,-1.1702,-0.9705,-0.8149,-0.7762,-0.7453,-0.7128,-0.6642,-0.6588,-0.6588,-0.6588,-0.6367,-0.6036,-0.554,-0.5273,-0.4948,-0.4517,-0.4517,-0.4421,-0.4329,-0.4224,-0.4304,-0.4453,-0.4442,-0.4783,-0.5542,-0.5953,-0.6373,-0.6897,-0.7694,-0.8099,-0.8103,-0.859,-0.8906,-0.9162,-0.891,-0.9061,-0.9413,-0.8956,-0.8808,-0.8808,-0.8808,-0.8808,-0.8808,-0.8808,-0.8959,-0.9159,-0.9159,-0.9309,-0.9462,-0.926,-0.9159,-0.911,-0.8857,-0.9714,-1.0813,-1.0813,-1.1796,-1.2774,-1.2344,-1.1475,-1.0712,-1.0265,-0.9965,-1.0068,-1.0965,-1.1674,-1.2133,-1.1864,-1.0914,-1.0064,-0.9865,-0.9263,-0.8959,-0.9361,-1.0214,-1.0813,-1.0813,-1.1625,-1.1679,-1.0316,-1.0167,-0.9766,-0.8857,-0.8374,-0.8099,-0.8099,-0.8708,-0.911,-0.911,-1.0195,-1.0648,-1.0389,-1.0534,-1.0622,-1.062,-1.0546,-1.0064,-0.9199,-0.9039,-0.8598,-1.4507,-1.5276,-1.5902,-1.586,-1.6555,-1.7388,-1.7747,-1.7544,-1.6947,-1.5768,-1.4688,-1.3637,-1.2385,-1.0851,-0.9536,-0.8859,-0.8754,-0.8593,-0.8053,-0.8,-0.8,-0.8,-0.7584,-0.7103,-0.6609,-0.5914,-0.5301,-0.4822,-0.4551,-0.4328,-0.4128,-0.4071,-0.4026,-0.3877,-0.3917,-0.4183,-0.4662,-0.5038,-0.5486,-0.5991,-0.71,-0.7644,-0.7649,-0.8439,-0.8906,-0.911,-0.8906,-0.9057,-0.9413,-0.8959,-0.8808,-0.8808,-0.8808,-0.8808,-0.8808,-0.8808,-0.8808,-0.8808,-0.8808,-0.8808,-0.8808,-0.8808,-0.8808,-0.8808,-0.8808,-0.9562,-1.0466,-1.0466,-1.1283,-1.2098,-1.157,-1.0965,-1.0364,-0.9917,-0.9814,-0.9965,-1.0665,-1.1166,-1.1412,-1.1162,-1.0419,-0.9714,-0.9514,-0.926,-0.9208,-0.9409,-1.0218,-1.0716,-1.0513,-1.1065,-1.1065,-0.9913,-0.9814,-0.9402,-0.8533,-0.7993,-0.7613,-0.7345,-0.775,-0.8109,-0.838,-0.9167,-0.9673,-0.9831,-1.0025,-1.0043,-0.9903,-1.0173,-0.9917,-0.9239,-0.8882,-0.8312,0.0,0.0,0.0,-1.6472,-1.6873,-1.7271,-1.7264,-1.7264,-1.6947,-1.573,-1.5037,-1.4266,-1.3095,-1.2255,-1.1567,-1.0956,-1.0864,-1.0813,-1.0813,-1.0813,-1.0813,-1.0813,-0.9614,-0.8728,-0.8678,-0.6768,-0.5466,-0.5238,-0.4556,-0.4127,-0.3971,-0.3819,-0.3674,-0.3583,-0.3714,-0.3783,-0.3785,-0.4652,-0.5084,-0.5086,-0.669,-0.7479,-0.7494,-0.8394,-0.9152,-0.971,-0.9057,-0.8808,-0.8808,-0.8808,-0.8808,-0.8808,-0.8808,-0.8808,-0.8808,-0.8808,-0.8808,-0.8808,-0.8808,-0.8808,-0.8808,-0.8808,-0.8808,-0.8808,-0.8808,-0.9263,-0.9814,-0.9814,-1.0265,-1.0813,-1.0767,-1.0261,-0.9762,-0.9762,-0.9762,-0.9965,-1.0614,-1.0767,-1.0564,-0.9913,-0.9762,-0.9562,-0.8906,-0.9361,-0.9562,-0.8906,-0.9913,-1.0513,-0.9865,-1.0364,-1.0513,-0.9865,-0.9762,-0.919,-0.783,-0.767,-0.7343,-0.664,-0.6588,-0.691,-0.7605,-0.7422,-0.7706,-0.8644,-0.8952,-0.9241,-0.9518,-1.004,-0.976,-0.876,-0.8716,-0.8095,-1.5676,0.0,0.0,0.0,0.0,0.0,-1.6157,-1.6392,-1.6398,-1.5174,-1.5163,-1.5112,-1.4307,-1.3643,-1.3163,-1.2976,-1.1751,-1.0813,-1.0813,-1.119,-1.1282,-1.0864,-1.0426,-0.953,-0.8029,-0.6937,-0.5627,-0.3972,-0.3651,-0.3249,-0.2612,-0.2413,-0.2527,-0.2944,-0.2975,-0.3221,-0.3637,-0.4012,-0.4184,-0.4184,-0.5714,-0.6499,-0.677,-0.7932,-0.8707,-0.9061,-0.8857,-0.8808,-0.8808,-0.8808,-0.8808,-0.8808,-0.8808,-0.8808,-0.8808,-0.8808,-0.8808,-0.8808,-0.8808,-0.8808,-0.8808,-0.8808,-0.8808,-0.8808,-0.8808,-0.9263,-0.9814,-0.9814,-1.0265,-1.0665,-1.0214,-0.9562,-0.9057,-0.9057,-0.9057,-0.911,-0.9309,-0.9361,-0.9465,-0.9766,-0.9413,-0.9008,-0.8857,-0.8959,-0.9159,-0.9462,-0.9377,-0.9418,-0.9758,-0.9477,-0.9218,-0.9106,-0.9057,-0.8685,-0.7777,-0.7235,-0.6583,-0.5871,-0.5814,-0.5862,-0.5934,-0.681,-0.7462,-0.7743,-0.8635,-0.9241,-0.9518,-1.004,-1.0162,-0.9839,-0.9079,-0.8095,-1.5769,-1.6238,-1.6429,-1.6051,0.0,0.0,-1.6058,-1.6051,-1.587,-1.488,-1.5192,-1.541,-1.4789,-1.4422,-1.4195,-1.4195,-1.2971,-1.2043,-1.2043,-1.2532,-1.271,-1.2136,-1.1679,-1.0689,-0.8687,-0.7362,-0.5788,-0.3812,-0.3393,-0.286,-0.1952,-0.1855,-0.1963,-0.2317,-0.2583,-0.2853,-0.3216,-0.3569,-0.3704,-0.3751,-0.4978,-0.5755,-0.6129,-0.7439,-0.8189,-0.8457,-0.8701,-0.8738,-0.8634,-0.8432,-0.8537,-0.8808,-0.8808,-0.8808,-0.8808,-0.8808,-0.8808,-0.8808,-0.8808,-0.8808,-0.8808,-0.8808,-0.8808,-0.8808,-0.8808,-0.9057,-0.9361,-0.9361,-0.9666,-0.9862,-0.9462,-0.911,-0.8808,-0.8808,-0.8808,-0.8808,-0.8808,-0.8808,-0.8906,-0.9312,-0.9061,-0.8808,-0.8808,-0.9008,-0.9152,-0.8928,-0.8797,-0.8633,-0.8491,-0.8333,-0.829,-0.8318,-0.859,-0.8374,-0.7343,-0.6858,-0.615,-0.5166,-0.5056,-0.5249,-0.5641,-0.6314,-0.7104,-0.8103,-0.8668,-0.9213,-0.9839,-1.0162,-1.0083,-0.9597,-0.876,-0.7855,-1.6286,-1.6595,-1.6595,-1.6595,-1.6595,0.0,-1.6337,-1.5958,-1.541,-1.4744,-1.5101,-1.5326,-1.4789,-1.4658,-1.4606,-1.4703,-1.419,-1.3815,-1.3899,-1.4391,-1.4557,-1.3982,-1.3131,-1.1806,-0.9764,-0.7717,-0.5784,-0.412,-0.3161,-0.237,-0.1659,-0.1518,-0.1561,-0.1696,-0.2228,-0.2584,-0.2717,-0.3216,-0.3534,-0.3626,-0.4426,-0.5102,-0.5646,-0.6784,-0.7487,-0.7864,-0.8412,-0.8556,-0.8346,-0.7887,-0.8099,-0.8646,-0.859,-0.8537,-0.859,-0.8643,-0.8646,-0.859,-0.8643,-0.8646,-0.859,-0.8646,-0.8695,-0.8699,-0.8755,-0.8808,-0.8808,-0.8808,-0.8808,-0.8808,-0.8808,-0.8808,-0.8808,-0.8808,-0.8808,-0.8808,-0.8808,-0.8808,-0.8808,-0.8808,-0.8808,-0.8808,-0.8808,-0.9312,-0.9242,-0.7877,-0.8062,-0.7938,-0.6745,-0.7122,-0.7551,-0.7771,-0.8424,-0.8209,-0.6851,-0.664,-0.5989,-0.4572,-0.4517,-0.4921,-0.5906,-0.5871,-0.6728,-0.8712,-0.8795,-0.9239,-1.0201,-1.0201,-0.9677,-0.8679,-0.816,-0.7576,-1.6815,-1.7153,-1.7153,-1.7153,-1.7153,0.0,-1.5371,-1.5326,-1.527,-1.4185,-1.4468,-1.4835,-1.4698,-1.4283,-1.4143,-1.4606,-1.419,-1.3935,-1.438,-1.5372,-1.5642,-1.4552,-1.3779,-1.2139,-0.9171,-0.6988,-0.4841,-0.2754,-0.0897,0.0,-0.0315,0.0089,-0.0089,-0.1029,-0.1207,-0.1696,-0.2673,-0.2808,-0.3124,-0.3624,-0.4214,-0.47,-0.5082,-0.5769,-0.6507,-0.726,-0.7632,-0.8002,-0.8346,-0.7887,-0.7777,-0.7833,-0.7235,-0.702,-0.7128,-0.7723,-0.756,-0.7128,-0.7723,-0.7506,-0.713,-0.772,-0.794,-0.8046,-0.8643,-0.8808,-0.8808,-0.8808,-0.8808,-0.8808,-0.8808,-0.8808,-0.8808,-0.8808,-0.8808,-0.8808,-0.8808,-0.8808,-0.8808,-0.8808,-0.8808,-0.8808,-0.8808,-0.891,-0.8685,-0.783,-0.6817,-0.6267,-0.6583,-0.6232,-0.6587,-0.8314,-0.8676,-0.8412,-0.7458,-0.6891,-0.5989,-0.4572,-0.4517,-0.45,-0.442,-0.5305,-0.6088,-0.6672,-0.8423,-0.9443,-0.9642,-0.9642,-0.9319,-0.8679,-0.816,-0.7576,-1.6918,-1.7312,-1.7312,-1.7312,-1.7312,0.0,0.0,-1.5147,-1.4869,-1.4003,-1.405,-1.4236,-1.4236,-1.4003,-1.4009,-1.4612,-1.4474,-1.4532,-1.5378,-1.6249,-1.623,-1.4722,-1.3838,-1.1964,-0.8498,-0.6528,-0.441,-0.185,0.0,0.0982,0.1019,0.1292,0.1005,0.0045,-0.0313,-0.0892,-0.1785,-0.2096,-0.2541,-0.317,-0.3426,-0.3947,-0.4664,-0.5079,-0.5634,-0.6259,-0.6971,-0.7367,-0.7471,-0.7104,-0.6941,-0.6951,-0.6704,-0.6572,-0.6526,-0.6896,-0.6844,-0.6526,-0.6949,-0.708,-0.7235,-0.756,-0.794,-0.8318,-0.8699,-0.8808,-0.8808,-0.8808,-0.8808,-0.8808,-0.8808,-0.8808,-0.8808,-0.8808,-0.8808,-0.8808,-0.8808,-0.8808,-0.8808,-0.8808,-0.8808,-0.8808,-0.8808,-0.8808,-0.8427,-0.7343,-0.6225,-0.5512,-0.5548,-0.5835,-0.6655,-0.8449,-0.9051,-0.8957,-0.8186,-0.7188,-0.5989,-0.4572,-0.4517,-0.449,-0.4427,-0.5336,-0.6299,-0.7359,-0.8763,-0.9518,-0.9478,-0.8958,-0.8557,-0.8275,-0.8036,-0.7447,-1.6995,-1.7544,-1.7585,-1.747,-1.7381,-1.6947,0.0,0.0,0.0,-1.3732,-1.3642,-1.3642,-1.3642,-1.3732,-1.4009,-1.4612,-1.4789,-1.5225,-1.6256,-1.6667,-1.6198,-1.4502,-1.3464,-1.1468,-0.7939,-0.6225,-0.425,-0.1682,0.0211,0.1441,0.1784,0.219,0.1961,0.0952,0.0448,-0.0178,-0.0895,-0.1385,-0.1918,-0.254,-0.254,-0.3068,-0.4085,-0.4359,-0.4707,-0.5195,-0.634,-0.6754,-0.6598,-0.6266,-0.618,-0.6151,-0.6171,-0.612,-0.6043,-0.6117,-0.6088,-0.6048,-0.6319,-0.6736,-0.7267,-0.7541,-0.8097,-0.8651,-0.8704,-0.8724,-0.8734,-0.8791,-0.8808,-0.8808,-0.8808,-0.8808,-0.8808,-0.8808,-0.8808,-0.8808,-0.8808,-0.8808,-0.8808,-0.8808,-0.8808,-0.8808,-0.8808,-0.8808,-0.8371,-0.702,-0.6063,-0.535,-0.495,-0.5824,-0.7056,-0.8462,-0.9331,-0.9404,-0.8465,-0.7284,-0.5989,-0.4572,-0.4517,-0.4542,-0.4723,-0.536,-0.6618,-0.8529,-0.8958,-0.9199,-0.9199,-0.8316,-0.7916,-0.7916,-0.7787,-0.7196,-1.7686,-1.8373,-1.8612,-1.8138,-1.7619,-1.6806,-1.5174,0.0,-1.3732,-1.3109,0.0,-1.3017,-1.3017,0.0,0.0,-1.4612,-1.5147,-1.5708,-1.6299,-1.593,-1.5101,-1.3691,-1.2436,-1.0631,-0.7849,-0.5723,-0.4077,-0.3019,0.0052,0.1706,0.1205,0.2838,0.2965,0.1135,0.0912,0.0268,-0.0895,-0.0984,-0.1295,-0.1918,-0.1918,-0.2229,-0.2894,-0.2951,-0.3525,-0.453,-0.547,-0.6119,-0.6584,-0.6198,-0.6013,-0.5935,-0.488,-0.4551,-0.4781,-0.5098,-0.5031,-0.4903,-0.6008,-0.5956,-0.5611,-0.6916,-0.7635,-0.808,-0.8343,-0.8424,-0.8477,-0.8734,-0.8808,-0.8808,-0.8808,-0.8808,-0.8808,-0.8808,-0.8808,-0.8808,-0.8808,-0.8808,-0.8808,-0.8808,-0.8808,-0.8808,-0.8808,-0.8808,-0.8537,-0.7723,-0.6387,-0.5727,-0.631,-0.6418,-0.7078,-0.8551,-0.9374,-0.9214,-0.7858,-0.7047,-0.5989,-0.4572,-0.4517,-0.4383,-0.4131,-0.4905,-0.6174,-0.7953,-0.8036,-0.8077,-0.8077,-0.7957,-0.7916,-0.7874,-0.736,-0.6771,-1.8235,-1.8734,-1.8772,-1.8217,-1.7659,-1.6757,-1.5078,-1.4236,-1.3642,-1.3012,0.0,0.0,0.0,0.0,0.0,0.0,-1.4411,-1.4619,-1.4801,-1.4295,-1.3507,-1.2409,-1.1103,-0.9554,-0.773,-0.6731,-0.5485,-0.3833,-0.084,0.1468,0.2844,0.398,0.405,0.2834,0.1913,0.1028,0.0134,-0.0224,-0.0672,-0.1296,-0.1652,-0.2095,-0.2717,-0.3078,-0.348,-0.3968,-0.4652,-0.5306,-0.582,-0.5411,-0.5453,-0.5604,-0.4441,-0.4021,-0.4108,-0.4267,-0.445,-0.4725,-0.5399,-0.5855,-0.6271,-0.7543,-0.8035,-0.8243,-0.8537,-0.8627,-0.8651,-0.8771,-0.8808,-0.8808,-0.8808,-0.8808,-0.8808,-0.8808,-0.8808,-0.8808,-0.8808,-0.8808,-0.8808,-0.8808,-0.8808,-0.8808,-0.8808,-0.8808,-0.8537,-0.783,-0.6822,-0.6274,-0.6583,-0.69,-0.7699,-0.9075,-0.9183,-0.8871,-0.8228,-0.6801,-0.5548,-0.457,-0.43,-0.4452,-0.5001,-0.5525,-0.6268,-0.7342,-0.7739,-0.7739,-0.7388,-0.7356,-0.736,-0.7363,-0.7108,-0.651,-1.8681,-1.9006,-1.8968,-1.8256,-1.7518,-1.657,-1.5033,-1.4107,-1.342,-1.2973,-1.2881,0.0,0.0,0.0,-1.3286,-1.3732,0.0,-1.369,-1.347,-1.2739,-1.1853,-1.0848,-0.9799,-0.8957,-0.8413,-0.8368,-0.7522,-0.544,-0.195,0.1113,0.3513,0.4899,0.5165,0.4066,0.2738,0.1695,0.0895,0.0314,-0.0225,-0.0672,-0.1251,-0.1874,-0.2496,-0.308,-0.3442,-0.3624,-0.4353,-0.4913,-0.5275,-0.499,-0.5097,-0.5324,-0.4189,-0.3732,-0.3732,-0.3732,-0.4157,-0.4811,-0.5129,-0.6015,-0.7144,-0.7901,-0.8172,-0.8246,-0.8574,-0.8687,-0.8707,-0.8784,-0.8808,-0.8808,-0.8808,-0.8808,-0.8808,-0.8808,-0.8808,-0.8755,-0.8537,-0.8646,-0.8755,-0.8537,-0.8646,-0.8808,-0.8808,-0.8808,-0.8643,-0.8103,-0.7377,-0.6991,-0.7179,-0.7608,-0.83,-0.9288,-0.9127,-0.8819,-0.8388,-0.6798,-0.5416,-0.446,-0.4163,-0.4439,-0.5447,-0.5574,-0.5916,-0.6528,-0.714,-0.7227,-0.679,-0.693,-0.6979,-0.6979,-0.6979,-0.6377,-1.8893,-1.9288,-1.9406,-1.8373,-1.7193,-1.6059,-1.4943,-1.3795,-1.2925,-1.2881,-1.2881,-1.2881,-1.2881,-1.3377,-1.3774,-1.3821,-1.3737,0.0,0.0,-1.1661,-1.0261,-0.8851,-0.8639,-0.9162,-1.0469,-1.0577,-0.9961,-0.848,-0.3127,0.0743,0.2189,0.5288,0.6151,0.4231,0.319,0.2089,0.0895,0.0314,0.0,-0.0045,-0.0627,-0.1251,-0.1829,-0.2451,-0.3034,-0.3667,-0.479,-0.526,-0.5305,-0.5267,-0.5275,-0.5185,-0.4066,-0.3587,-0.3587,-0.3587,-0.4137,-0.4969,-0.5487,-0.6467,-0.7478,-0.7537,-0.754,-0.7654,-0.8256,-0.839,-0.8447,-0.8728,-0.8808,-0.8808,-0.8808,-0.8808,-0.8808,-0.8808,-0.8808,-0.859,-0.7886,-0.8318,-0.859,-0.7883,-0.8318,-0.8808,-0.8808,-0.8808,-0.8808,-0.8755,-0.8156,-0.7937,-0.8643,-0.8705,-0.8695,-0.8794,-0.9406,-0.9239,-0.7821,-0.7017,-0.5909,-0.4316,-0.4056,-0.4244,-0.4737,-0.4536,-0.4737,-0.5346,-0.5959,-0.6267,-0.6224,-0.6725,-0.6979,-0.6979,-0.6979,-0.6377,-1.9442,-1.9566,-1.9442,-1.8373,-1.7471,-1.6522,-1.5033,-1.4061,-1.3372,-1.2973,-1.2881,-1.2881,-1.2881,-1.306,-1.319,-1.319,-1.2803,-1.2136,0.0,-0.9436,-0.8357,-0.8905,-0.9411,-1.0278,-1.1796,-1.2436,-1.1718,-0.9272,-0.4698,-0.0577,0.2777,0.5306,0.6318,0.5571,0.426,0.2918,0.1519,0.0895,0.0404,0.0,-0.061,-0.1158,-0.1671,-0.2399,-0.2955,-0.3432,-0.3965,-0.4355,-0.4694,-0.4314,-0.4399,-0.4609,-0.388,-0.358,-0.3622,-0.4008,-0.4566,-0.5295,-0.6235,-0.6985,-0.751,-0.751,-0.751,-0.7624,-0.8239,-0.8424,-0.8437,-0.8724,-0.8808,-0.8808,-0.8808,-0.8427,-0.8209,-0.8699,-0.8046,-0.7399,-0.7667,-0.7886,-0.7993,-0.7723,-0.8318,-0.8808,-0.8808,-0.8808,-0.8808,-0.8808,-0.859,-0.8537,-0.8755,-0.8791,-0.8788,-0.8808,-0.8577,-0.8193,-0.772,-0.6578,-0.5467,-0.4446,-0.4158,-0.4434,-0.538,-0.5138,-0.526,-0.5873,-0.6428,-0.6562,-0.6181,-0.6729,-0.6979,-0.6979,-0.6979,-0.6377,-1.9339,-1.9395,-1.9102,-1.8051,-1.7357,-1.6471,-1.4809,-1.3943,-1.3319,-1.2647,-1.2505,-1.2456,-1.2206,-1.2353,-1.2452,-1.2201,-1.1733,-1.1085,0.0,-0.8331,-0.7756,-0.9381,-0.9959,-1.0793,-1.2299,-1.3278,-1.2604,-0.9711,-0.5747,-0.1726,0.228,0.467,0.5882,0.5827,0.4607,0.333,0.2141,0.1295,0.0711,0.0307,-0.051,-0.1164,-0.1639,-0.2333,-0.2888,-0.3313,-0.3666,-0.404,-0.4389,-0.4007,-0.4092,-0.4347,-0.3794,-0.358,-0.3667,-0.422,-0.4911,-0.5741,-0.668,-0.7148,-0.7325,-0.7476,-0.751,-0.7558,-0.7863,-0.7981,-0.7996,-0.796,-0.8187,-0.8427,-0.8427,-0.8265,-0.8156,-0.8371,-0.7667,-0.6964,-0.6904,-0.734,-0.7613,-0.7343,-0.8103,-0.8808,-0.8808,-0.8808,-0.8808,-0.8808,-0.8808,-0.8808,-0.8808,-0.8808,-0.8808,-0.8808,-0.8156,-0.7503,-0.6958,-0.6305,-0.5437,-0.4364,-0.4328,-0.4599,-0.5267,-0.5321,-0.5392,-0.5567,-0.6121,-0.6209,-0.5873,-0.6428,-0.6813,-0.6979,-0.6979,-0.6507]}]]